<?xml version="1.0" encoding="UTF-8" standalone="no" ?>
<gpx xmlns="http://www.topografix.com/GPX/1/1" xmlns:xsi="http://www.w3.org/2001/XMLSchema-instance" xsi:schemaLocation="http://www.topografix.com/GPX/1/1 http://www.topografix.com/GPX/1/1/gpx.xsd" version="1.1" creator="VisuGPX - https://www.visugpx.com">
  <metadata>
    <name>Val-de-Ruz Bike N°745</name>
  </metadata>
  <trk>
    <name><![CDATA[Val-de-Ruz Bike N°745_1]]></name>
    <trkseg>
      <trkpt lat="46.99405" lon="6.84449">
        <ele>781.36</ele>
        <time>2020-06-27T07:30:00.000Z</time>
      </trkpt>
      <trkpt lat="46.99385" lon="6.8447">
        <ele>781.25</ele>
        <time>2020-06-27T07:30:05.015Z</time>
      </trkpt>
      <trkpt lat="46.99352" lon="6.84501">
        <ele>780.95</ele>
        <time>2020-06-27T07:30:11.428Z</time>
      </trkpt>
      <trkpt lat="46.99343" lon="6.84509">
        <ele>780.84</ele>
        <time>2020-06-27T07:30:13.087Z</time>
      </trkpt>
      <trkpt lat="46.99322" lon="6.84528">
        <ele>781.12</ele>
        <time>2020-06-27T07:30:19.085Z</time>
      </trkpt>
      <trkpt lat="46.9932" lon="6.84531">
        <ele>780.98</ele>
        <time>2020-06-27T07:30:19.384Z</time>
      </trkpt>
      <trkpt lat="46.99318" lon="6.84535">
        <ele>780.77</ele>
        <time>2020-06-27T07:30:19.701Z</time>
      </trkpt>
      <trkpt lat="46.99317" lon="6.84538">
        <ele>780.62</ele>
        <time>2020-06-27T07:30:19.909Z</time>
      </trkpt>
      <trkpt lat="46.99311" lon="6.84536">
        <ele>780.27</ele>
        <time>2020-06-27T07:30:20.510Z</time>
      </trkpt>
      <trkpt lat="46.9931" lon="6.84539">
        <ele>780.13</ele>
        <time>2020-06-27T07:30:20.724Z</time>
      </trkpt>
      <trkpt lat="46.99309" lon="6.84543">
        <ele>779.84</ele>
        <time>2020-06-27T07:30:21.011Z</time>
      </trkpt>
      <trkpt lat="46.99307" lon="6.84547">
        <ele>779.48</ele>
        <time>2020-06-27T07:30:21.345Z</time>
      </trkpt>
      <trkpt lat="46.99304" lon="6.84553">
        <ele>779.2</ele>
        <time>2020-06-27T07:30:21.848Z</time>
      </trkpt>
      <trkpt lat="46.99301" lon="6.84557">
        <ele>778.84</ele>
        <time>2020-06-27T07:30:22.248Z</time>
      </trkpt>
      <trkpt lat="46.99297" lon="6.84562">
        <ele>778.35</ele>
        <time>2020-06-27T07:30:22.767Z</time>
      </trkpt>
      <trkpt lat="46.99291" lon="6.84568">
        <ele>777.78</ele>
        <time>2020-06-27T07:30:23.484Z</time>
      </trkpt>
      <trkpt lat="46.99285" lon="6.84572">
        <ele>777.14</ele>
        <time>2020-06-27T07:30:24.135Z</time>
      </trkpt>
      <trkpt lat="46.99278" lon="6.84578">
        <ele>776.36</ele>
        <time>2020-06-27T07:30:24.935Z</time>
      </trkpt>
      <trkpt lat="46.99265" lon="6.84587">
        <ele>775.15</ele>
        <time>2020-06-27T07:30:26.355Z</time>
      </trkpt>
      <trkpt lat="46.99254" lon="6.84595">
        <ele>773.94</ele>
        <time>2020-06-27T07:30:27.567Z</time>
      </trkpt>
      <trkpt lat="46.99247" lon="6.84601">
        <ele>773.09</ele>
        <time>2020-06-27T07:30:28.367Z</time>
      </trkpt>
      <trkpt lat="46.99245" lon="6.84603">
        <ele>772.82</ele>
        <time>2020-06-27T07:30:28.606Z</time>
      </trkpt>
      <trkpt lat="46.99245" lon="6.84603">
        <ele>772.82</ele>
        <time>2020-06-27T07:30:28.606Z</time>
      </trkpt>
      <trkpt lat="46.99243" lon="6.84606">
        <ele>772.56</ele>
        <time>2020-06-27T07:30:28.889Z</time>
      </trkpt>
      <trkpt lat="46.99239" lon="6.8461">
        <ele>772.28</ele>
        <time>2020-06-27T07:30:29.358Z</time>
      </trkpt>
      <trkpt lat="46.99235" lon="6.84615">
        <ele>771.79</ele>
        <time>2020-06-27T07:30:29.877Z</time>
      </trkpt>
      <trkpt lat="46.9923" lon="6.84624">
        <ele>771.34</ele>
        <time>2020-06-27T07:30:30.651Z</time>
      </trkpt>
      <trkpt lat="46.99226" lon="6.84636">
        <ele>770.4</ele>
        <time>2020-06-27T07:30:31.550Z</time>
      </trkpt>
      <trkpt lat="46.99225" lon="6.8464">
        <ele>770.14</ele>
        <time>2020-06-27T07:30:31.837Z</time>
      </trkpt>
      <trkpt lat="46.99224" lon="6.84645">
        <ele>769.71</ele>
        <time>2020-06-27T07:30:32.188Z</time>
      </trkpt>
      <trkpt lat="46.99223" lon="6.84652">
        <ele>769.21</ele>
        <time>2020-06-27T07:30:32.670Z</time>
      </trkpt>
      <trkpt lat="46.99223" lon="6.84663">
        <ele>768.57</ele>
        <time>2020-06-27T07:30:33.411Z</time>
      </trkpt>
      <trkpt lat="46.99224" lon="6.84674">
        <ele>767.8</ele>
        <time>2020-06-27T07:30:34.158Z</time>
      </trkpt>
      <trkpt lat="46.99229" lon="6.84715">
        <ele>765.63</ele>
        <time>2020-06-27T07:30:36.963Z</time>
      </trkpt>
      <trkpt lat="46.99232" lon="6.84732">
        <ele>764.8</ele>
        <time>2020-06-27T07:30:38.145Z</time>
      </trkpt>
      <trkpt lat="46.99234" lon="6.84749">
        <ele>764.22</ele>
        <time>2020-06-27T07:30:39.371Z</time>
      </trkpt>
      <trkpt lat="46.99234" lon="6.84748">
        <ele>764.22</ele>
        <time>2020-06-27T07:30:39.519Z</time>
      </trkpt>
      <trkpt lat="46.99234" lon="6.84752">
        <ele>763.64</ele>
        <time>2020-06-27T07:30:39.789Z</time>
      </trkpt>
      <trkpt lat="46.99236" lon="6.84765">
        <ele>762.96</ele>
        <time>2020-06-27T07:30:40.686Z</time>
      </trkpt>
      <trkpt lat="46.99238" lon="6.84781">
        <ele>761.86</ele>
        <time>2020-06-27T07:30:41.781Z</time>
      </trkpt>
      <trkpt lat="46.9924" lon="6.8479">
        <ele>761.24</ele>
        <time>2020-06-27T07:30:42.419Z</time>
      </trkpt>
      <trkpt lat="46.99242" lon="6.84799">
        <ele>760.86</ele>
        <time>2020-06-27T07:30:43.040Z</time>
      </trkpt>
      <trkpt lat="46.99244" lon="6.84807">
        <ele>760.31</ele>
        <time>2020-06-27T07:30:43.613Z</time>
      </trkpt>
      <trkpt lat="46.99247" lon="6.84815">
        <ele>759.77</ele>
        <time>2020-06-27T07:30:44.228Z</time>
      </trkpt>
      <trkpt lat="46.99251" lon="6.84825">
        <ele>759.07</ele>
        <time>2020-06-27T07:30:45.009Z</time>
      </trkpt>
      <trkpt lat="46.99256" lon="6.84835">
        <ele>758.35</ele>
        <time>2020-06-27T07:30:45.844Z</time>
      </trkpt>
      <trkpt lat="46.99261" lon="6.84844">
        <ele>757.88</ele>
        <time>2020-06-27T07:30:46.602Z</time>
      </trkpt>
      <trkpt lat="46.99264" lon="6.84852">
        <ele>757.4</ele>
        <time>2020-06-27T07:30:47.217Z</time>
      </trkpt>
      <trkpt lat="46.99264" lon="6.84854">
        <ele>757.26</ele>
        <time>2020-06-27T07:30:47.351Z</time>
      </trkpt>
      <trkpt lat="46.99264" lon="6.84853">
        <ele>757.26</ele>
        <time>2020-06-27T07:30:47.500Z</time>
      </trkpt>
      <trkpt lat="46.99266" lon="6.84858">
        <ele>757.12</ele>
        <time>2020-06-27T07:30:47.968Z</time>
      </trkpt>
      <trkpt lat="46.99267" lon="6.84864">
        <ele>756.88</ele>
        <time>2020-06-27T07:30:48.380Z</time>
      </trkpt>
      <trkpt lat="46.99268" lon="6.84871">
        <ele>756.69</ele>
        <time>2020-06-27T07:30:48.938Z</time>
      </trkpt>
      <trkpt lat="46.99268" lon="6.84879">
        <ele>756.41</ele>
        <time>2020-06-27T07:30:49.497Z</time>
      </trkpt>
      <trkpt lat="46.99267" lon="6.84886">
        <ele>756.22</ele>
        <time>2020-06-27T07:30:50.055Z</time>
      </trkpt>
      <trkpt lat="46.99266" lon="6.84893">
        <ele>755.84</ele>
        <time>2020-06-27T07:30:50.537Z</time>
      </trkpt>
      <trkpt lat="46.99267" lon="6.84903">
        <ele>755.46</ele>
        <time>2020-06-27T07:30:51.254Z</time>
      </trkpt>
      <trkpt lat="46.99263" lon="6.84904">
        <ele>755.18</ele>
        <time>2020-06-27T07:30:51.655Z</time>
      </trkpt>
      <trkpt lat="46.99261" lon="6.84909">
        <ele>754.94</ele>
        <time>2020-06-27T07:30:52.030Z</time>
      </trkpt>
      <trkpt lat="46.99258" lon="6.84914">
        <ele>754.61</ele>
        <time>2020-06-27T07:30:52.478Z</time>
      </trkpt>
      <trkpt lat="46.99254" lon="6.84917">
        <ele>754.32</ele>
        <time>2020-06-27T07:30:52.891Z</time>
      </trkpt>
      <trkpt lat="46.99251" lon="6.84921">
        <ele>754.13</ele>
        <time>2020-06-27T07:30:53.323Z</time>
      </trkpt>
      <trkpt lat="46.99246" lon="6.84923">
        <ele>753.9</ele>
        <time>2020-06-27T07:30:53.887Z</time>
      </trkpt>
      <trkpt lat="46.99242" lon="6.84925">
        <ele>753.85</ele>
        <time>2020-06-27T07:30:54.541Z</time>
      </trkpt>
      <trkpt lat="46.99242" lon="6.84926">
        <ele>753.85</ele>
        <time>2020-06-27T07:30:54.689Z</time>
      </trkpt>
      <trkpt lat="46.99241" lon="6.84926">
        <ele>753.8</ele>
        <time>2020-06-27T07:30:54.793Z</time>
      </trkpt>
      <trkpt lat="46.9923" lon="6.84929">
        <ele>753.42</ele>
        <time>2020-06-27T07:30:56.138Z</time>
      </trkpt>
      <trkpt lat="46.99193" lon="6.84939">
        <ele>752.47</ele>
        <time>2020-06-27T07:31:01.098Z</time>
      </trkpt>
      <trkpt lat="46.99187" lon="6.84941">
        <ele>752.15</ele>
        <time>2020-06-27T07:31:01.724Z</time>
      </trkpt>
      <trkpt lat="46.99197" lon="6.84977">
        <ele>751.83</ele>
        <time>2020-06-27T07:31:05.815Z</time>
      </trkpt>
      <trkpt lat="46.99197" lon="6.84976">
        <ele>751.83</ele>
        <time>2020-06-27T07:31:05.964Z</time>
      </trkpt>
      <trkpt lat="46.99198" lon="6.84979">
        <ele>751.51</ele>
        <time>2020-06-27T07:31:06.188Z</time>
      </trkpt>
      <trkpt lat="46.99204" lon="6.84998">
        <ele>751.3</ele>
        <time>2020-06-27T07:31:08.319Z</time>
      </trkpt>
      <trkpt lat="46.99208" lon="6.85011">
        <ele>751.3</ele>
        <time>2020-06-27T07:31:10.438Z</time>
      </trkpt>
      <trkpt lat="46.99213" lon="6.85023">
        <ele>751.44</ele>
        <time>2020-06-27T07:31:12.850Z</time>
      </trkpt>
      <trkpt lat="46.9922" lon="6.85038">
        <ele>751.65</ele>
        <time>2020-06-27T07:31:16.046Z</time>
      </trkpt>
      <trkpt lat="46.99225" lon="6.85052">
        <ele>752.08</ele>
        <time>2020-06-27T07:31:19.746Z</time>
      </trkpt>
      <trkpt lat="46.9923" lon="6.85065">
        <ele>752.65</ele>
        <time>2020-06-27T07:31:23.782Z</time>
      </trkpt>
      <trkpt lat="46.99234" lon="6.8508">
        <ele>753.45</ele>
        <time>2020-06-27T07:31:28.702Z</time>
      </trkpt>
      <trkpt lat="46.99236" lon="6.85086">
        <ele>753.94</ele>
        <time>2020-06-27T07:31:31.487Z</time>
      </trkpt>
      <trkpt lat="46.99244" lon="6.85116">
        <ele>755.62</ele>
        <time>2020-06-27T07:31:41.611Z</time>
      </trkpt>
      <trkpt lat="46.99254" lon="6.85161">
        <ele>758.8</ele>
        <time>2020-06-27T07:31:59.635Z</time>
      </trkpt>
      <trkpt lat="46.99256" lon="6.85173">
        <ele>760</ele>
        <time>2020-06-27T07:32:06.714Z</time>
      </trkpt>
      <trkpt lat="46.99258" lon="6.85186">
        <ele>761.08</ele>
        <time>2020-06-27T07:32:13.019Z</time>
      </trkpt>
      <trkpt lat="46.99261" lon="6.852">
        <ele>762.51</ele>
        <time>2020-06-27T07:32:21.428Z</time>
      </trkpt>
      <trkpt lat="46.99263" lon="6.85209">
        <ele>763.27</ele>
        <time>2020-06-27T07:32:25.849Z</time>
      </trkpt>
      <trkpt lat="46.99267" lon="6.85224">
        <ele>764.46</ele>
        <time>2020-06-27T07:32:32.621Z</time>
      </trkpt>
      <trkpt lat="46.99273" lon="6.85239">
        <ele>765.58</ele>
        <time>2020-06-27T07:32:38.993Z</time>
      </trkpt>
      <trkpt lat="46.99281" lon="6.85256">
        <ele>766.77</ele>
        <time>2020-06-27T07:32:45.924Z</time>
      </trkpt>
      <trkpt lat="46.9929" lon="6.85272">
        <ele>766.94</ele>
        <time>2020-06-27T07:32:49.387Z</time>
      </trkpt>
      <trkpt lat="46.99296" lon="6.85283">
        <ele>767.23</ele>
        <time>2020-06-27T07:32:52.279Z</time>
      </trkpt>
      <trkpt lat="46.99299" lon="6.85291">
        <ele>767.23</ele>
        <time>2020-06-27T07:32:53.635Z</time>
      </trkpt>
      <trkpt lat="46.99304" lon="6.85306">
        <ele>767.44</ele>
        <time>2020-06-27T07:32:56.620Z</time>
      </trkpt>
      <trkpt lat="46.99314" lon="6.85332">
        <ele>767.65</ele>
        <time>2020-06-27T07:33:01.517Z</time>
      </trkpt>
      <trkpt lat="46.99321" lon="6.85348">
        <ele>767.98</ele>
        <time>2020-06-27T07:33:05.200Z</time>
      </trkpt>
      <trkpt lat="46.99326" lon="6.85356">
        <ele>768.24</ele>
        <time>2020-06-27T07:33:07.577Z</time>
      </trkpt>
      <trkpt lat="46.99326" lon="6.85355">
        <ele>768.24</ele>
        <time>2020-06-27T07:33:07.726Z</time>
      </trkpt>
      <trkpt lat="46.99328" lon="6.8536">
        <ele>768.51</ele>
        <time>2020-06-27T07:33:09.437Z</time>
      </trkpt>
      <trkpt lat="46.99337" lon="6.85372">
        <ele>769.04</ele>
        <time>2020-06-27T07:33:13.846Z</time>
      </trkpt>
      <trkpt lat="46.99346" lon="6.85383">
        <ele>769.68</ele>
        <time>2020-06-27T07:33:18.448Z</time>
      </trkpt>
      <trkpt lat="46.99353" lon="6.8539">
        <ele>770.14</ele>
        <time>2020-06-27T07:33:21.769Z</time>
      </trkpt>
      <trkpt lat="46.99358" lon="6.85396">
        <ele>770.64</ele>
        <time>2020-06-27T07:33:24.768Z</time>
      </trkpt>
      <trkpt lat="46.99367" lon="6.85408">
        <ele>771.28</ele>
        <time>2020-06-27T07:33:29.482Z</time>
      </trkpt>
      <trkpt lat="46.99378" lon="6.85426">
        <ele>771.5</ele>
        <time>2020-06-27T07:33:33.573Z</time>
      </trkpt>
      <trkpt lat="46.99399" lon="6.85457">
        <ele>772.74</ele>
        <time>2020-06-27T07:33:44.061Z</time>
      </trkpt>
      <trkpt lat="46.99423" lon="6.8549">
        <ele>773.38</ele>
        <time>2020-06-27T07:33:52.782Z</time>
      </trkpt>
      <trkpt lat="46.99426" lon="6.85493">
        <ele>773.59</ele>
        <time>2020-06-27T07:33:54.240Z</time>
      </trkpt>
      <trkpt lat="46.99425" lon="6.85493">
        <ele>773.59</ele>
        <time>2020-06-27T07:33:54.458Z</time>
      </trkpt>
      <trkpt lat="46.99431" lon="6.85501">
        <ele>773.81</ele>
        <time>2020-06-27T07:33:56.809Z</time>
      </trkpt>
      <trkpt lat="46.99448" lon="6.85529">
        <ele>773.49</ele>
        <time>2020-06-27T07:34:00.731Z</time>
      </trkpt>
      <trkpt lat="46.99469" lon="6.85557">
        <ele>772.85</ele>
        <time>2020-06-27T07:34:04.588Z</time>
      </trkpt>
      <trkpt lat="46.99476" lon="6.85563">
        <ele>772.74</ele>
        <time>2020-06-27T07:34:05.815Z</time>
      </trkpt>
      <trkpt lat="46.99481" lon="6.85566">
        <ele>772.31</ele>
        <time>2020-06-27T07:34:06.349Z</time>
      </trkpt>
      <trkpt lat="46.99488" lon="6.85566">
        <ele>772.16</ele>
        <time>2020-06-27T07:34:07.312Z</time>
      </trkpt>
      <trkpt lat="46.99491" lon="6.85566">
        <ele>772.09</ele>
        <time>2020-06-27T07:34:07.716Z</time>
      </trkpt>
      <trkpt lat="46.99495" lon="6.85565">
        <ele>771.95</ele>
        <time>2020-06-27T07:34:08.202Z</time>
      </trkpt>
      <trkpt lat="46.99508" lon="6.85557">
        <ele>772.02</ele>
        <time>2020-06-27T07:34:11.419Z</time>
      </trkpt>
      <trkpt lat="46.99521" lon="6.85548">
        <ele>772.02</ele>
        <time>2020-06-27T07:34:14.550Z</time>
      </trkpt>
      <trkpt lat="46.99531" lon="6.85541">
        <ele>772.16</ele>
        <time>2020-06-27T07:34:17.280Z</time>
      </trkpt>
      <trkpt lat="46.99538" lon="6.85538">
        <ele>772.37</ele>
        <time>2020-06-27T07:34:19.438Z</time>
      </trkpt>
      <trkpt lat="46.99542" lon="6.85537">
        <ele>772.44</ele>
        <time>2020-06-27T07:34:20.487Z</time>
      </trkpt>
      <trkpt lat="46.99546" lon="6.85534">
        <ele>772.66</ele>
        <time>2020-06-27T07:34:22.187Z</time>
      </trkpt>
      <trkpt lat="46.99551" lon="6.85528">
        <ele>772.8</ele>
        <time>2020-06-27T07:34:23.943Z</time>
      </trkpt>
      <trkpt lat="46.99556" lon="6.85522">
        <ele>773.19</ele>
        <time>2020-06-27T07:34:26.583Z</time>
      </trkpt>
      <trkpt lat="46.99558" lon="6.85519">
        <ele>773.3</ele>
        <time>2020-06-27T07:34:27.545Z</time>
      </trkpt>
      <trkpt lat="46.99563" lon="6.85514">
        <ele>773.51</ele>
        <time>2020-06-27T07:34:29.478Z</time>
      </trkpt>
      <trkpt lat="46.99574" lon="6.85504">
        <ele>774.22</ele>
        <time>2020-06-27T07:34:34.569Z</time>
      </trkpt>
      <trkpt lat="46.99586" lon="6.85493">
        <ele>775.08</ele>
        <time>2020-06-27T07:34:40.369Z</time>
      </trkpt>
      <trkpt lat="46.99626" lon="6.85452">
        <ele>777.42</ele>
        <time>2020-06-27T07:34:58.711Z</time>
      </trkpt>
      <trkpt lat="46.99644" lon="6.85433">
        <ele>778.13</ele>
        <time>2020-06-27T07:35:05.546Z</time>
      </trkpt>
      <trkpt lat="46.99655" lon="6.85421">
        <ele>778.34</ele>
        <time>2020-06-27T07:35:09.020Z</time>
      </trkpt>
      <trkpt lat="46.99663" lon="6.85413">
        <ele>778.42</ele>
        <time>2020-06-27T07:35:11.302Z</time>
      </trkpt>
      <trkpt lat="46.9967" lon="6.85407">
        <ele>778.49</ele>
        <time>2020-06-27T07:35:13.220Z</time>
      </trkpt>
      <trkpt lat="46.99675" lon="6.85405">
        <ele>778.49</ele>
        <time>2020-06-27T07:35:14.349Z</time>
      </trkpt>
      <trkpt lat="46.99681" lon="6.85403">
        <ele>778.49</ele>
        <time>2020-06-27T07:35:15.689Z</time>
      </trkpt>
      <trkpt lat="46.99687" lon="6.85403">
        <ele>778.42</ele>
        <time>2020-06-27T07:35:16.620Z</time>
      </trkpt>
      <trkpt lat="46.99693" lon="6.85403">
        <ele>778.49</ele>
        <time>2020-06-27T07:35:18.083Z</time>
      </trkpt>
      <trkpt lat="46.99701" lon="6.85405">
        <ele>778.63</ele>
        <time>2020-06-27T07:35:20.182Z</time>
      </trkpt>
      <trkpt lat="46.99711" lon="6.8541">
        <ele>778.77</ele>
        <time>2020-06-27T07:35:22.802Z</time>
      </trkpt>
      <trkpt lat="46.99721" lon="6.85416">
        <ele>778.91</ele>
        <time>2020-06-27T07:35:25.472Z</time>
      </trkpt>
      <trkpt lat="46.9973" lon="6.85422">
        <ele>779.2</ele>
        <time>2020-06-27T07:35:28.417Z</time>
      </trkpt>
      <trkpt lat="46.99762" lon="6.85444">
        <ele>782.04</ele>
        <time>2020-06-27T07:35:45.220Z</time>
      </trkpt>
      <trkpt lat="46.99774" lon="6.85451">
        <ele>783.11</ele>
        <time>2020-06-27T07:35:51.488Z</time>
      </trkpt>
      <trkpt lat="46.99786" lon="6.85458">
        <ele>783.82</ele>
        <time>2020-06-27T07:35:56.573Z</time>
      </trkpt>
      <trkpt lat="46.99802" lon="6.85465">
        <ele>784.39</ele>
        <time>2020-06-27T07:36:01.865Z</time>
      </trkpt>
      <trkpt lat="46.99828" lon="6.85475">
        <ele>783.11</ele>
        <time>2020-06-27T07:36:04.706Z</time>
      </trkpt>
      <trkpt lat="46.9984" lon="6.85479">
        <ele>782.61</ele>
        <time>2020-06-27T07:36:06.093Z</time>
      </trkpt>
      <trkpt lat="46.99839" lon="6.85479">
        <ele>782.61</ele>
        <time>2020-06-27T07:36:06.310Z</time>
      </trkpt>
      <trkpt lat="46.99865" lon="6.85487">
        <ele>782.11</ele>
        <time>2020-06-27T07:36:10.080Z</time>
      </trkpt>
      <trkpt lat="46.99884" lon="6.85495">
        <ele>782.19</ele>
        <time>2020-06-27T07:36:14.552Z</time>
      </trkpt>
      <trkpt lat="46.99895" lon="6.85501">
        <ele>782.26</ele>
        <time>2020-06-27T07:36:17.256Z</time>
      </trkpt>
      <trkpt lat="46.99905" lon="6.85508">
        <ele>782.33</ele>
        <time>2020-06-27T07:36:19.818Z</time>
      </trkpt>
      <trkpt lat="46.99915" lon="6.85516">
        <ele>782.39</ele>
        <time>2020-06-27T07:36:22.425Z</time>
      </trkpt>
      <trkpt lat="46.99917" lon="6.85518">
        <ele>782.46</ele>
        <time>2020-06-27T07:36:23.143Z</time>
      </trkpt>
      <trkpt lat="46.99925" lon="6.85526">
        <ele>782.72</ele>
        <time>2020-06-27T07:36:25.940Z</time>
      </trkpt>
      <trkpt lat="46.99936" lon="6.85539">
        <ele>783.12</ele>
        <time>2020-06-27T07:36:30.095Z</time>
      </trkpt>
      <trkpt lat="46.99968" lon="6.8558">
        <ele>783.85</ele>
        <time>2020-06-27T07:36:41.080Z</time>
      </trkpt>
      <trkpt lat="46.99985" lon="6.85598">
        <ele>783.9</ele>
        <time>2020-06-27T07:36:45.749Z</time>
      </trkpt>
      <trkpt lat="47.00001" lon="6.85615">
        <ele>784.22</ele>
        <time>2020-06-27T07:36:50.803Z</time>
      </trkpt>
      <trkpt lat="47.00021" lon="6.85635">
        <ele>784.36</ele>
        <time>2020-06-27T07:36:56.371Z</time>
      </trkpt>
      <trkpt lat="47.00067" lon="6.8568">
        <ele>784.63</ele>
        <time>2020-06-27T07:37:08.980Z</time>
      </trkpt>
      <trkpt lat="47.00091" lon="6.85701">
        <ele>784.83</ele>
        <time>2020-06-27T07:37:15.495Z</time>
      </trkpt>
      <trkpt lat="47.00113" lon="6.85722">
        <ele>785.18</ele>
        <time>2020-06-27T07:37:22.008Z</time>
      </trkpt>
      <trkpt lat="47.00121" lon="6.85729">
        <ele>785.45</ele>
        <time>2020-06-27T07:37:24.771Z</time>
      </trkpt>
      <trkpt lat="47.00129" lon="6.85734">
        <ele>785.74</ele>
        <time>2020-06-27T07:37:27.498Z</time>
      </trkpt>
      <trkpt lat="47.0016" lon="6.85751">
        <ele>786.62</ele>
        <time>2020-06-27T07:37:37.028Z</time>
      </trkpt>
      <trkpt lat="47.00206" lon="6.85776">
        <ele>788.16</ele>
        <time>2020-06-27T07:37:52.027Z</time>
      </trkpt>
      <trkpt lat="47.00236" lon="6.85793">
        <ele>789.47</ele>
        <time>2020-06-27T07:38:03.202Z</time>
      </trkpt>
      <trkpt lat="47.00249" lon="6.858">
        <ele>789.94</ele>
        <time>2020-06-27T07:38:07.579Z</time>
      </trkpt>
      <trkpt lat="47.00248" lon="6.858">
        <ele>789.94</ele>
        <time>2020-06-27T07:38:07.797Z</time>
      </trkpt>
      <trkpt lat="47.00269" lon="6.85811">
        <ele>790.42</ele>
        <time>2020-06-27T07:38:13.847Z</time>
      </trkpt>
      <trkpt lat="47.00297" lon="6.8583">
        <ele>791.31</ele>
        <time>2020-06-27T07:38:22.981Z</time>
      </trkpt>
      <trkpt lat="47.00312" lon="6.85838">
        <ele>791.98</ele>
        <time>2020-06-27T07:38:28.630Z</time>
      </trkpt>
      <trkpt lat="47.0032" lon="6.85841">
        <ele>792.38</ele>
        <time>2020-06-27T07:38:31.743Z</time>
      </trkpt>
      <trkpt lat="47.00333" lon="6.85844">
        <ele>792.99</ele>
        <time>2020-06-27T07:38:36.638Z</time>
      </trkpt>
      <trkpt lat="47.00341" lon="6.85818">
        <ele>794.57</ele>
        <time>2020-06-27T07:38:45.953Z</time>
      </trkpt>
      <trkpt lat="47.00345" lon="6.85804">
        <ele>795.27</ele>
        <time>2020-06-27T07:38:50.410Z</time>
      </trkpt>
      <trkpt lat="47.00347" lon="6.85805">
        <ele>795.33</ele>
        <time>2020-06-27T07:38:51.032Z</time>
      </trkpt>
      <trkpt lat="47.00348" lon="6.85805">
        <ele>795.37</ele>
        <time>2020-06-27T07:38:51.376Z</time>
      </trkpt>
      <trkpt lat="47.00349" lon="6.85804">
        <ele>795.41</ele>
        <time>2020-06-27T07:38:51.754Z</time>
      </trkpt>
      <trkpt lat="47.0035" lon="6.85804">
        <ele>795.45</ele>
        <time>2020-06-27T07:38:52.098Z</time>
      </trkpt>
      <trkpt lat="47.00351" lon="6.85803">
        <ele>795.49</ele>
        <time>2020-06-27T07:38:52.476Z</time>
      </trkpt>
      <trkpt lat="47.00352" lon="6.85802">
        <ele>795.53</ele>
        <time>2020-06-27T07:38:52.854Z</time>
      </trkpt>
      <trkpt lat="47.00352" lon="6.858">
        <ele>795.56</ele>
        <time>2020-06-27T07:38:53.226Z</time>
      </trkpt>
      <trkpt lat="47.00365" lon="6.85812">
        <ele>795.16</ele>
        <time>2020-06-27T07:38:55.233Z</time>
      </trkpt>
      <trkpt lat="47.00379" lon="6.85824">
        <ele>795.18</ele>
        <time>2020-06-27T07:38:58.806Z</time>
      </trkpt>
      <trkpt lat="47.00398" lon="6.85839">
        <ele>794.82</ele>
        <time>2020-06-27T07:39:01.948Z</time>
      </trkpt>
      <trkpt lat="47.00417" lon="6.85853">
        <ele>794.64</ele>
        <time>2020-06-27T07:39:05.389Z</time>
      </trkpt>
      <trkpt lat="47.00456" lon="6.8588">
        <ele>794.07</ele>
        <time>2020-06-27T07:39:11.946Z</time>
      </trkpt>
      <trkpt lat="47.00472" lon="6.85891">
        <ele>793.91</ele>
        <time>2020-06-27T07:39:14.784Z</time>
      </trkpt>
      <trkpt lat="47.00486" lon="6.859">
        <ele>793.83</ele>
        <time>2020-06-27T07:39:17.866Z</time>
      </trkpt>
      <trkpt lat="47.00485" lon="6.859">
        <ele>793.83</ele>
        <time>2020-06-27T07:39:18.084Z</time>
      </trkpt>
      <trkpt lat="47.00488" lon="6.85902">
        <ele>793.75</ele>
        <time>2020-06-27T07:39:18.523Z</time>
      </trkpt>
      <trkpt lat="47.00511" lon="6.85917">
        <ele>794.19</ele>
        <time>2020-06-27T07:39:25.051Z</time>
      </trkpt>
      <trkpt lat="47.00544" lon="6.85938">
        <ele>794.58</ele>
        <time>2020-06-27T07:39:33.751Z</time>
      </trkpt>
      <trkpt lat="47.00546" lon="6.8594">
        <ele>794.58</ele>
        <time>2020-06-27T07:39:34.278Z</time>
      </trkpt>
      <trkpt lat="47.00564" lon="6.85954">
        <ele>795.1</ele>
        <time>2020-06-27T07:39:40.070Z</time>
      </trkpt>
      <trkpt lat="47.00588" lon="6.85971">
        <ele>795.89</ele>
        <time>2020-06-27T07:39:48.040Z</time>
      </trkpt>
      <trkpt lat="47.00613" lon="6.85991">
        <ele>797.21</ele>
        <time>2020-06-27T07:39:58.633Z</time>
      </trkpt>
      <trkpt lat="47.00639" lon="6.8601">
        <ele>798.52</ele>
        <time>2020-06-27T07:40:09.353Z</time>
      </trkpt>
      <trkpt lat="47.0065" lon="6.86019">
        <ele>798.96</ele>
        <time>2020-06-27T07:40:13.387Z</time>
      </trkpt>
      <trkpt lat="47.00686" lon="6.86044">
        <ele>800.3</ele>
        <time>2020-06-27T07:40:25.928Z</time>
      </trkpt>
      <trkpt lat="47.00707" lon="6.86057">
        <ele>801.23</ele>
        <time>2020-06-27T07:40:33.856Z</time>
      </trkpt>
      <trkpt lat="47.00716" lon="6.86063">
        <ele>801.55</ele>
        <time>2020-06-27T07:40:36.917Z</time>
      </trkpt>
      <trkpt lat="47.00725" lon="6.86068">
        <ele>801.91</ele>
        <time>2020-06-27T07:40:40.106Z</time>
      </trkpt>
      <trkpt lat="47.00726" lon="6.86063">
        <ele>801.72</ele>
        <time>2020-06-27T07:40:40.463Z</time>
      </trkpt>
      <trkpt lat="47.00726" lon="6.8606">
        <ele>801.93</ele>
        <time>2020-06-27T07:40:41.653Z</time>
      </trkpt>
      <trkpt lat="47.00725" lon="6.86054">
        <ele>802.04</ele>
        <time>2020-06-27T07:40:42.859Z</time>
      </trkpt>
      <trkpt lat="47.00718" lon="6.86031">
        <ele>802.4</ele>
        <time>2020-06-27T07:40:47.489Z</time>
      </trkpt>
      <trkpt lat="47.00718" lon="6.86029">
        <ele>802.49</ele>
        <time>2020-06-27T07:40:48.069Z</time>
      </trkpt>
      <trkpt lat="47.00718" lon="6.86028">
        <ele>802.49</ele>
        <time>2020-06-27T07:40:48.217Z</time>
      </trkpt>
      <trkpt lat="47.00715" lon="6.86013">
        <ele>802.58</ele>
        <time>2020-06-27T07:40:50.734Z</time>
      </trkpt>
      <trkpt lat="47.00713" lon="6.86006">
        <ele>802.52</ele>
        <time>2020-06-27T07:40:51.537Z</time>
      </trkpt>
      <trkpt lat="47.0071" lon="6.8599">
        <ele>802.4</ele>
        <time>2020-06-27T07:40:53.317Z</time>
      </trkpt>
      <trkpt lat="47.00708" lon="6.85986">
        <ele>802.41</ele>
        <time>2020-06-27T07:40:54.074Z</time>
      </trkpt>
      <trkpt lat="47.00708" lon="6.8598">
        <ele>802.45</ele>
        <time>2020-06-27T07:40:55.053Z</time>
      </trkpt>
      <trkpt lat="47.00707" lon="6.85963">
        <ele>802.54</ele>
        <time>2020-06-27T07:40:57.781Z</time>
      </trkpt>
      <trkpt lat="47.00706" lon="6.85941">
        <ele>802.46</ele>
        <time>2020-06-27T07:41:00.809Z</time>
      </trkpt>
      <trkpt lat="47.00708" lon="6.8589">
        <ele>802.7</ele>
        <time>2020-06-27T07:41:08.908Z</time>
      </trkpt>
      <trkpt lat="47.00711" lon="6.85863">
        <ele>803.05</ele>
        <time>2020-06-27T07:41:13.814Z</time>
      </trkpt>
      <trkpt lat="47.00712" lon="6.85853">
        <ele>803.1</ele>
        <time>2020-06-27T07:41:15.423Z</time>
      </trkpt>
      <trkpt lat="47.00715" lon="6.85843">
        <ele>802.93</ele>
        <time>2020-06-27T07:41:16.432Z</time>
      </trkpt>
      <trkpt lat="47.00717" lon="6.85834">
        <ele>803.12</ele>
        <time>2020-06-27T07:41:18.357Z</time>
      </trkpt>
      <trkpt lat="47.0072" lon="6.85827">
        <ele>803.12</ele>
        <time>2020-06-27T07:41:19.585Z</time>
      </trkpt>
      <trkpt lat="47.00724" lon="6.8582">
        <ele>803.45</ele>
        <time>2020-06-27T07:41:22.004Z</time>
      </trkpt>
      <trkpt lat="47.00729" lon="6.85812">
        <ele>803.68</ele>
        <time>2020-06-27T07:41:24.258Z</time>
      </trkpt>
      <trkpt lat="47.00746" lon="6.85791">
        <ele>804.34</ele>
        <time>2020-06-27T07:41:30.908Z</time>
      </trkpt>
      <trkpt lat="47.00752" lon="6.8578">
        <ele>804.75</ele>
        <time>2020-06-27T07:41:34.343Z</time>
      </trkpt>
      <trkpt lat="47.00758" lon="6.85768">
        <ele>804.94</ele>
        <time>2020-06-27T07:41:37.011Z</time>
      </trkpt>
      <trkpt lat="47.00763" lon="6.85755">
        <ele>805.19</ele>
        <time>2020-06-27T07:41:39.872Z</time>
      </trkpt>
      <trkpt lat="47.00766" lon="6.85742">
        <ele>805.6</ele>
        <time>2020-06-27T07:41:43.277Z</time>
      </trkpt>
      <trkpt lat="47.00768" lon="6.85728">
        <ele>806</ele>
        <time>2020-06-27T07:41:46.679Z</time>
      </trkpt>
      <trkpt lat="47.00769" lon="6.85711">
        <ele>806.38</ele>
        <time>2020-06-27T07:41:50.296Z</time>
      </trkpt>
      <trkpt lat="47.00769" lon="6.8567">
        <ele>807.09</ele>
        <time>2020-06-27T07:41:58.231Z</time>
      </trkpt>
      <trkpt lat="47.00768" lon="6.85606">
        <ele>807.84</ele>
        <time>2020-06-27T07:42:09.516Z</time>
      </trkpt>
      <trkpt lat="47.00768" lon="6.85585">
        <ele>807.9</ele>
        <time>2020-06-27T07:42:12.760Z</time>
      </trkpt>
      <trkpt lat="47.00766" lon="6.85568">
        <ele>807.91</ele>
        <time>2020-06-27T07:42:15.342Z</time>
      </trkpt>
      <trkpt lat="47.00764" lon="6.85546">
        <ele>808.4</ele>
        <time>2020-06-27T07:42:20.029Z</time>
      </trkpt>
      <trkpt lat="47.00761" lon="6.85525">
        <ele>808.62</ele>
        <time>2020-06-27T07:42:23.724Z</time>
      </trkpt>
      <trkpt lat="47.00759" lon="6.85503">
        <ele>808.72</ele>
        <time>2020-06-27T07:42:27.234Z</time>
      </trkpt>
      <trkpt lat="47.00753" lon="6.85436">
        <ele>809.41</ele>
        <time>2020-06-27T07:42:38.866Z</time>
      </trkpt>
      <trkpt lat="47.00751" lon="6.85417">
        <ele>809.45</ele>
        <time>2020-06-27T07:42:41.804Z</time>
      </trkpt>
      <trkpt lat="47.00751" lon="6.85416">
        <ele>809.45</ele>
        <time>2020-06-27T07:42:41.952Z</time>
      </trkpt>
      <trkpt lat="47.00751" lon="6.85416">
        <ele>809.48</ele>
        <time>2020-06-27T07:42:41.952Z</time>
      </trkpt>
      <trkpt lat="47.0075" lon="6.85394">
        <ele>809.93</ele>
        <time>2020-06-27T07:42:46.464Z</time>
      </trkpt>
      <trkpt lat="47.00749" lon="6.8536">
        <ele>810.83</ele>
        <time>2020-06-27T07:42:54.304Z</time>
      </trkpt>
      <trkpt lat="47.00749" lon="6.85314">
        <ele>812.28</ele>
        <time>2020-06-27T07:43:05.963Z</time>
      </trkpt>
      <trkpt lat="47.00749" lon="6.85305">
        <ele>812.61</ele>
        <time>2020-06-27T07:43:08.360Z</time>
      </trkpt>
      <trkpt lat="47.00749" lon="6.85299">
        <ele>812.77</ele>
        <time>2020-06-27T07:43:09.748Z</time>
      </trkpt>
      <trkpt lat="47.00752" lon="6.85293">
        <ele>813.36</ele>
        <time>2020-06-27T07:43:13.164Z</time>
      </trkpt>
      <trkpt lat="47.00753" lon="6.85289">
        <ele>813.49</ele>
        <time>2020-06-27T07:43:14.234Z</time>
      </trkpt>
      <trkpt lat="47.00756" lon="6.85269">
        <ele>813.97</ele>
        <time>2020-06-27T07:43:18.674Z</time>
      </trkpt>
      <trkpt lat="47.00759" lon="6.85256">
        <ele>814.52</ele>
        <time>2020-06-27T07:43:22.455Z</time>
      </trkpt>
      <trkpt lat="47.00763" lon="6.85246">
        <ele>814.78</ele>
        <time>2020-06-27T07:43:24.920Z</time>
      </trkpt>
      <trkpt lat="47.00768" lon="6.85235">
        <ele>815.38</ele>
        <time>2020-06-27T07:43:28.771Z</time>
      </trkpt>
      <trkpt lat="47.00775" lon="6.85224">
        <ele>815.67</ele>
        <time>2020-06-27T07:43:31.787Z</time>
      </trkpt>
      <trkpt lat="47.00783" lon="6.85212">
        <ele>816.32</ele>
        <time>2020-06-27T07:43:36.348Z</time>
      </trkpt>
      <trkpt lat="47.00791" lon="6.85204">
        <ele>817.15</ele>
        <time>2020-06-27T07:43:41.163Z</time>
      </trkpt>
      <trkpt lat="47.00798" lon="6.852">
        <ele>817.4</ele>
        <time>2020-06-27T07:43:43.517Z</time>
      </trkpt>
      <trkpt lat="47.00801" lon="6.85199">
        <ele>817.43</ele>
        <time>2020-06-27T07:43:44.253Z</time>
      </trkpt>
      <trkpt lat="47.00804" lon="6.852">
        <ele>817.49</ele>
        <time>2020-06-27T07:43:45.069Z</time>
      </trkpt>
      <trkpt lat="47.00807" lon="6.85201">
        <ele>817.65</ele>
        <time>2020-06-27T07:43:46.256Z</time>
      </trkpt>
      <trkpt lat="47.0081" lon="6.85204">
        <ele>817.71</ele>
        <time>2020-06-27T07:43:47.188Z</time>
      </trkpt>
      <trkpt lat="47.00816" lon="6.85214">
        <ele>817.77</ele>
        <time>2020-06-27T07:43:49.294Z</time>
      </trkpt>
      <trkpt lat="47.00826" lon="6.85236">
        <ele>817.95</ele>
        <time>2020-06-27T07:43:53.617Z</time>
      </trkpt>
      <trkpt lat="47.00837" lon="6.85259">
        <ele>818.08</ele>
        <time>2020-06-27T07:43:58.066Z</time>
      </trkpt>
      <trkpt lat="47.00848" lon="6.85279">
        <ele>817.82</ele>
        <time>2020-06-27T07:44:00.676Z</time>
      </trkpt>
      <trkpt lat="47.00858" lon="6.85297">
        <ele>817.69</ele>
        <time>2020-06-27T07:44:03.247Z</time>
      </trkpt>
      <trkpt lat="47.00872" lon="6.85316">
        <ele>817.65</ele>
        <time>2020-06-27T07:44:07.272Z</time>
      </trkpt>
      <trkpt lat="47.00891" lon="6.85345">
        <ele>817.85</ele>
        <time>2020-06-27T07:44:13.673Z</time>
      </trkpt>
      <trkpt lat="47.00891" lon="6.85344">
        <ele>817.85</ele>
        <time>2020-06-27T07:44:13.822Z</time>
      </trkpt>
      <trkpt lat="47.00906" lon="6.85367">
        <ele>818.05</ele>
        <time>2020-06-27T07:44:18.985Z</time>
      </trkpt>
      <trkpt lat="47.00912" lon="6.85377">
        <ele>817.94</ele>
        <time>2020-06-27T07:44:20.386Z</time>
      </trkpt>
      <trkpt lat="47.00925" lon="6.85401">
        <ele>816.88</ele>
        <time>2020-06-27T07:44:22.536Z</time>
      </trkpt>
      <trkpt lat="47.00933" lon="6.85413">
        <ele>816.32</ele>
        <time>2020-06-27T07:44:23.731Z</time>
      </trkpt>
      <trkpt lat="47.00939" lon="6.85423">
        <ele>816.12</ele>
        <time>2020-06-27T07:44:24.973Z</time>
      </trkpt>
      <trkpt lat="47.00962" lon="6.85453">
        <ele>815.98</ele>
        <time>2020-06-27T07:44:31.241Z</time>
      </trkpt>
      <trkpt lat="47.00977" lon="6.85477">
        <ele>816.02</ele>
        <time>2020-06-27T07:44:36.158Z</time>
      </trkpt>
      <trkpt lat="47.00996" lon="6.85511">
        <ele>816.27</ele>
        <time>2020-06-27T07:44:43.227Z</time>
      </trkpt>
      <trkpt lat="47.01005" lon="6.85525">
        <ele>816.31</ele>
        <time>2020-06-27T07:44:46.167Z</time>
      </trkpt>
      <trkpt lat="47.01012" lon="6.85535">
        <ele>816.4</ele>
        <time>2020-06-27T07:44:48.492Z</time>
      </trkpt>
      <trkpt lat="47.01018" lon="6.85543">
        <ele>816.49</ele>
        <time>2020-06-27T07:44:50.458Z</time>
      </trkpt>
      <trkpt lat="47.01028" lon="6.85554">
        <ele>816.64</ele>
        <time>2020-06-27T07:44:53.517Z</time>
      </trkpt>
      <trkpt lat="47.01051" lon="6.85575">
        <ele>816.85</ele>
        <time>2020-06-27T07:44:59.869Z</time>
      </trkpt>
      <trkpt lat="47.01073" lon="6.85598">
        <ele>816.94</ele>
        <time>2020-06-27T07:45:05.940Z</time>
      </trkpt>
      <trkpt lat="47.01086" lon="6.85612">
        <ele>816.9</ele>
        <time>2020-06-27T07:45:09.324Z</time>
      </trkpt>
      <trkpt lat="47.01105" lon="6.85628">
        <ele>816.71</ele>
        <time>2020-06-27T07:45:12.860Z</time>
      </trkpt>
      <trkpt lat="47.01133" lon="6.85651">
        <ele>816.7</ele>
        <time>2020-06-27T07:45:19.817Z</time>
      </trkpt>
      <trkpt lat="47.01148" lon="6.85664">
        <ele>816.69</ele>
        <time>2020-06-27T07:45:23.579Z</time>
      </trkpt>
      <trkpt lat="47.01153" lon="6.8567">
        <ele>816.9</ele>
        <time>2020-06-27T07:45:25.583Z</time>
      </trkpt>
      <trkpt lat="47.01151" lon="6.85676">
        <ele>816.77</ele>
        <time>2020-06-27T07:45:26.162Z</time>
      </trkpt>
      <trkpt lat="47.01154" lon="6.85678">
        <ele>817.1</ele>
        <time>2020-06-27T07:45:28.032Z</time>
      </trkpt>
      <trkpt lat="47.01161" lon="6.85684">
        <ele>817.07</ele>
        <time>2020-06-27T07:45:29.703Z</time>
      </trkpt>
      <trkpt lat="47.01165" lon="6.8569">
        <ele>817.43</ele>
        <time>2020-06-27T07:45:32.084Z</time>
      </trkpt>
      <trkpt lat="47.01166" lon="6.85688">
        <ele>817.62</ele>
        <time>2020-06-27T07:45:33.173Z</time>
      </trkpt>
      <trkpt lat="47.01168" lon="6.85687">
        <ele>817.8</ele>
        <time>2020-06-27T07:45:34.219Z</time>
      </trkpt>
      <trkpt lat="47.01166" lon="6.85667">
        <ele>817.66</ele>
        <time>2020-06-27T07:45:36.399Z</time>
      </trkpt>
      <trkpt lat="47.01166" lon="6.85655">
        <ele>817.74</ele>
        <time>2020-06-27T07:45:38.357Z</time>
      </trkpt>
      <trkpt lat="47.01169" lon="6.85642">
        <ele>818.29</ele>
        <time>2020-06-27T07:45:42.138Z</time>
      </trkpt>
      <trkpt lat="47.01178" lon="6.85615">
        <ele>819.46</ele>
        <time>2020-06-27T07:45:50.324Z</time>
      </trkpt>
      <trkpt lat="47.01198" lon="6.85563">
        <ele>822.28</ele>
        <time>2020-06-27T07:46:08.069Z</time>
      </trkpt>
      <trkpt lat="47.012" lon="6.85557">
        <ele>823.11</ele>
        <time>2020-06-27T07:46:11.895Z</time>
      </trkpt>
      <trkpt lat="47.012" lon="6.85557">
        <ele>823.11</ele>
        <time>2020-06-27T07:46:11.895Z</time>
      </trkpt>
      <trkpt lat="47.01214" lon="6.85524">
        <ele>823.93</ele>
        <time>2020-06-27T07:46:19.951Z</time>
      </trkpt>
      <trkpt lat="47.01226" lon="6.85501">
        <ele>825.7</ele>
        <time>2020-06-27T07:46:30.110Z</time>
      </trkpt>
      <trkpt lat="47.01228" lon="6.85496">
        <ele>826.09</ele>
        <time>2020-06-27T07:46:32.320Z</time>
      </trkpt>
      <trkpt lat="47.01248" lon="6.85462">
        <ele>829.7</ele>
        <time>2020-06-27T07:46:53.329Z</time>
      </trkpt>
      <trkpt lat="47.0126" lon="6.85442">
        <ele>831.77</ele>
        <time>2020-06-27T07:47:05.238Z</time>
      </trkpt>
      <trkpt lat="47.01273" lon="6.85417">
        <ele>834.38</ele>
        <time>2020-06-27T07:47:20.647Z</time>
      </trkpt>
      <trkpt lat="47.01282" lon="6.85398">
        <ele>836.34</ele>
        <time>2020-06-27T07:47:32.348Z</time>
      </trkpt>
      <trkpt lat="47.01288" lon="6.85385">
        <ele>837.61</ele>
        <time>2020-06-27T07:47:39.758Z</time>
      </trkpt>
      <trkpt lat="47.01304" lon="6.85345">
        <ele>841.61</ele>
        <time>2020-06-27T07:48:03.904Z</time>
      </trkpt>
      <trkpt lat="47.01307" lon="6.85337">
        <ele>842.32</ele>
        <time>2020-06-27T07:48:07.990Z</time>
      </trkpt>
      <trkpt lat="47.01311" lon="6.85327">
        <ele>843.33</ele>
        <time>2020-06-27T07:48:14.129Z</time>
      </trkpt>
      <trkpt lat="47.01323" lon="6.85294">
        <ele>846.65</ele>
        <time>2020-06-27T07:48:34.595Z</time>
      </trkpt>
      <trkpt lat="47.01328" lon="6.85282">
        <ele>847.89</ele>
        <time>2020-06-27T07:48:42.199Z</time>
      </trkpt>
      <trkpt lat="47.01335" lon="6.85265">
        <ele>848.41</ele>
        <time>2020-06-27T07:48:46.749Z</time>
      </trkpt>
      <trkpt lat="47.01343" lon="6.85248">
        <ele>848.58</ele>
        <time>2020-06-27T07:48:50.198Z</time>
      </trkpt>
      <trkpt lat="47.01348" lon="6.85254">
        <ele>848.67</ele>
        <time>2020-06-27T07:48:51.811Z</time>
      </trkpt>
      <trkpt lat="47.01352" lon="6.85257">
        <ele>848.59</ele>
        <time>2020-06-27T07:48:52.457Z</time>
      </trkpt>
      <trkpt lat="47.0137" lon="6.85265">
        <ele>849</ele>
        <time>2020-06-27T07:48:57.576Z</time>
      </trkpt>
      <trkpt lat="47.01377" lon="6.85268">
        <ele>849.09</ele>
        <time>2020-06-27T07:48:59.367Z</time>
      </trkpt>
      <trkpt lat="47.01381" lon="6.85271">
        <ele>849.25</ele>
        <time>2020-06-27T07:49:00.819Z</time>
      </trkpt>
      <trkpt lat="47.01387" lon="6.85273">
        <ele>849.38</ele>
        <time>2020-06-27T07:49:02.481Z</time>
      </trkpt>
      <trkpt lat="47.01386" lon="6.85273">
        <ele>849.38</ele>
        <time>2020-06-27T07:49:02.699Z</time>
      </trkpt>
      <trkpt lat="47.014" lon="6.85278">
        <ele>849.51</ele>
        <time>2020-06-27T07:49:06.120Z</time>
      </trkpt>
      <trkpt lat="47.01411" lon="6.85282">
        <ele>849.58</ele>
        <time>2020-06-27T07:49:08.737Z</time>
      </trkpt>
      <trkpt lat="47.01423" lon="6.85285">
        <ele>849.66</ele>
        <time>2020-06-27T07:49:11.558Z</time>
      </trkpt>
      <trkpt lat="47.01433" lon="6.85286">
        <ele>849.82</ele>
        <time>2020-06-27T07:49:14.115Z</time>
      </trkpt>
      <trkpt lat="47.01444" lon="6.85284">
        <ele>849.82</ele>
        <time>2020-06-27T07:49:16.530Z</time>
      </trkpt>
      <trkpt lat="47.01451" lon="6.85284">
        <ele>849.96</ele>
        <time>2020-06-27T07:49:18.396Z</time>
      </trkpt>
      <trkpt lat="47.01456" lon="6.85284">
        <ele>849.92</ele>
        <time>2020-06-27T07:49:19.211Z</time>
      </trkpt>
      <trkpt lat="47.01461" lon="6.85286">
        <ele>849.8</ele>
        <time>2020-06-27T07:49:19.910Z</time>
      </trkpt>
      <trkpt lat="47.01477" lon="6.85291">
        <ele>849.63</ele>
        <time>2020-06-27T07:49:22.490Z</time>
      </trkpt>
      <trkpt lat="47.01508" lon="6.85302">
        <ele>849.91</ele>
        <time>2020-06-27T07:49:30.045Z</time>
      </trkpt>
      <trkpt lat="47.01516" lon="6.85306">
        <ele>850.09</ele>
        <time>2020-06-27T07:49:32.332Z</time>
      </trkpt>
      <trkpt lat="47.01523" lon="6.8531">
        <ele>850.25</ele>
        <time>2020-06-27T07:49:34.365Z</time>
      </trkpt>
      <trkpt lat="47.01531" lon="6.85317">
        <ele>850.12</ele>
        <time>2020-06-27T07:49:35.768Z</time>
      </trkpt>
      <trkpt lat="47.01542" lon="6.85328">
        <ele>850.25</ele>
        <time>2020-06-27T07:49:38.953Z</time>
      </trkpt>
      <trkpt lat="47.01558" lon="6.85337">
        <ele>850.4</ele>
        <time>2020-06-27T07:49:43.011Z</time>
      </trkpt>
      <trkpt lat="47.01571" lon="6.85344">
        <ele>850.16</ele>
        <time>2020-06-27T07:49:45.012Z</time>
      </trkpt>
      <trkpt lat="47.01581" lon="6.85348">
        <ele>850.36</ele>
        <time>2020-06-27T07:49:47.754Z</time>
      </trkpt>
      <trkpt lat="47.01597" lon="6.85353">
        <ele>850.49</ele>
        <time>2020-06-27T07:49:51.597Z</time>
      </trkpt>
      <trkpt lat="47.01596" lon="6.85353">
        <ele>850.49</ele>
        <time>2020-06-27T07:49:51.815Z</time>
      </trkpt>
      <trkpt lat="47.01603" lon="6.85355">
        <ele>850.61</ele>
        <time>2020-06-27T07:49:53.652Z</time>
      </trkpt>
      <trkpt lat="47.01627" lon="6.85361">
        <ele>851.02</ele>
        <time>2020-06-27T07:49:59.922Z</time>
      </trkpt>
      <trkpt lat="47.01681" lon="6.8537">
        <ele>852.29</ele>
        <time>2020-06-27T07:50:14.984Z</time>
      </trkpt>
      <trkpt lat="47.01684" lon="6.8536">
        <ele>852.52</ele>
        <time>2020-06-27T07:50:17.246Z</time>
      </trkpt>
      <trkpt lat="47.01694" lon="6.85319">
        <ele>853.81</ele>
        <time>2020-06-27T07:50:27.989Z</time>
      </trkpt>
      <trkpt lat="47.01696" lon="6.85313">
        <ele>855.11</ele>
        <time>2020-06-27T07:50:31.814Z</time>
      </trkpt>
      <trkpt lat="47.017" lon="6.85296">
        <ele>856.02</ele>
        <time>2020-06-27T07:50:37.365Z</time>
      </trkpt>
      <trkpt lat="47.01702" lon="6.8529">
        <ele>856.4</ele>
        <time>2020-06-27T07:50:39.586Z</time>
      </trkpt>
      <trkpt lat="47.01704" lon="6.85285">
        <ele>856.79</ele>
        <time>2020-06-27T07:50:41.796Z</time>
      </trkpt>
      <trkpt lat="47.01703" lon="6.85283">
        <ele>857</ele>
        <time>2020-06-27T07:50:43.050Z</time>
      </trkpt>
      <trkpt lat="47.01702" lon="6.85281">
        <ele>857.02</ele>
        <time>2020-06-27T07:50:43.463Z</time>
      </trkpt>
      <trkpt lat="47.01702" lon="6.85278">
        <ele>857.16</ele>
        <time>2020-06-27T07:50:44.349Z</time>
      </trkpt>
      <trkpt lat="47.01702" lon="6.85274">
        <ele>857.41</ele>
        <time>2020-06-27T07:50:45.778Z</time>
      </trkpt>
      <trkpt lat="47.01705" lon="6.85258">
        <ele>858.45</ele>
        <time>2020-06-27T07:50:51.719Z</time>
      </trkpt>
      <trkpt lat="47.01707" lon="6.85239">
        <ele>859.54</ele>
        <time>2020-06-27T07:50:58.097Z</time>
      </trkpt>
      <trkpt lat="47.01707" lon="6.85234">
        <ele>860.15</ele>
        <time>2020-06-27T07:51:00.961Z</time>
      </trkpt>
      <trkpt lat="47.01706" lon="6.85231">
        <ele>860.39</ele>
        <time>2020-06-27T07:51:02.322Z</time>
      </trkpt>
      <trkpt lat="47.01705" lon="6.85228">
        <ele>860.63</ele>
        <time>2020-06-27T07:51:03.684Z</time>
      </trkpt>
      <trkpt lat="47.01721" lon="6.85234">
        <ele>859.92</ele>
        <time>2020-06-27T07:51:05.504Z</time>
      </trkpt>
      <trkpt lat="47.01733" lon="6.8524">
        <ele>859.62</ele>
        <time>2020-06-27T07:51:07.205Z</time>
      </trkpt>
      <trkpt lat="47.01738" lon="6.85241">
        <ele>859.7</ele>
        <time>2020-06-27T07:51:08.491Z</time>
      </trkpt>
      <trkpt lat="47.01739" lon="6.85242">
        <ele>859.8</ele>
        <time>2020-06-27T07:51:09.077Z</time>
      </trkpt>
      <trkpt lat="47.0174" lon="6.85243">
        <ele>859.84</ele>
        <time>2020-06-27T07:51:09.455Z</time>
      </trkpt>
      <trkpt lat="47.01742" lon="6.85248">
        <ele>859.48</ele>
        <time>2020-06-27T07:51:09.846Z</time>
      </trkpt>
      <trkpt lat="47.01748" lon="6.85243">
        <ele>860.02</ele>
        <time>2020-06-27T07:51:13.071Z</time>
      </trkpt>
      <trkpt lat="47.01758" lon="6.85238">
        <ele>860.58</ele>
        <time>2020-06-27T07:51:17.176Z</time>
      </trkpt>
      <trkpt lat="47.01764" lon="6.85236">
        <ele>861</ele>
        <time>2020-06-27T07:51:19.838Z</time>
      </trkpt>
      <trkpt lat="47.0179" lon="6.85228">
        <ele>862.91</ele>
        <time>2020-06-27T07:51:31.651Z</time>
      </trkpt>
      <trkpt lat="47.01807" lon="6.85223">
        <ele>864.06</ele>
        <time>2020-06-27T07:51:39.046Z</time>
      </trkpt>
      <trkpt lat="47.01826" lon="6.85219">
        <ele>865.42</ele>
        <time>2020-06-27T07:51:47.513Z</time>
      </trkpt>
      <trkpt lat="47.01854" lon="6.85215">
        <ele>867.38</ele>
        <time>2020-06-27T07:51:59.813Z</time>
      </trkpt>
      <trkpt lat="47.01865" lon="6.85213">
        <ele>868.36</ele>
        <time>2020-06-27T07:52:05.455Z</time>
      </trkpt>
      <trkpt lat="47.01874" lon="6.85211">
        <ele>869.02</ele>
        <time>2020-06-27T07:52:09.522Z</time>
      </trkpt>
      <trkpt lat="47.01885" lon="6.85208">
        <ele>870.06</ele>
        <time>2020-06-27T07:52:15.452Z</time>
      </trkpt>
      <trkpt lat="47.01895" lon="6.85203">
        <ele>871.03</ele>
        <time>2020-06-27T07:52:20.995Z</time>
      </trkpt>
      <trkpt lat="47.01903" lon="6.85199">
        <ele>871.81</ele>
        <time>2020-06-27T07:52:25.447Z</time>
      </trkpt>
      <trkpt lat="47.01911" lon="6.85193">
        <ele>872.77</ele>
        <time>2020-06-27T07:52:30.901Z</time>
      </trkpt>
      <trkpt lat="47.01917" lon="6.85188">
        <ele>873.73</ele>
        <time>2020-06-27T07:52:36.698Z</time>
      </trkpt>
      <trkpt lat="47.01931" lon="6.85175">
        <ele>875.31</ele>
        <time>2020-06-27T07:52:45.678Z</time>
      </trkpt>
      <trkpt lat="47.01948" lon="6.85158">
        <ele>877.84</ele>
        <time>2020-06-27T07:53:00.692Z</time>
      </trkpt>
      <trkpt lat="47.01953" lon="6.85152">
        <ele>878.63</ele>
        <time>2020-06-27T07:53:05.367Z</time>
      </trkpt>
      <trkpt lat="47.01957" lon="6.85145">
        <ele>878.98</ele>
        <time>2020-06-27T07:53:07.839Z</time>
      </trkpt>
      <trkpt lat="47.01957" lon="6.85145">
        <ele>878.96</ele>
        <time>2020-06-27T07:53:07.839Z</time>
      </trkpt>
      <trkpt lat="47.01958" lon="6.85146">
        <ele>878.96</ele>
        <time>2020-06-27T07:53:08.103Z</time>
      </trkpt>
      <trkpt lat="47.01959" lon="6.85146">
        <ele>878.97</ele>
        <time>2020-06-27T07:53:08.343Z</time>
      </trkpt>
      <trkpt lat="47.0196" lon="6.85146">
        <ele>878.99</ele>
        <time>2020-06-27T07:53:08.609Z</time>
      </trkpt>
      <trkpt lat="47.0196" lon="6.85146">
        <ele>879.02</ele>
        <time>2020-06-27T07:53:08.609Z</time>
      </trkpt>
      <trkpt lat="47.01961" lon="6.85145">
        <ele>879.03</ele>
        <time>2020-06-27T07:53:08.895Z</time>
      </trkpt>
      <trkpt lat="47.01962" lon="6.85143">
        <ele>879.09</ele>
        <time>2020-06-27T07:53:09.440Z</time>
      </trkpt>
      <trkpt lat="47.01968" lon="6.85144">
        <ele>879.16</ele>
        <time>2020-06-27T07:53:10.912Z</time>
      </trkpt>
      <trkpt lat="47.01973" lon="6.85147">
        <ele>879.01</ele>
        <time>2020-06-27T07:53:11.605Z</time>
      </trkpt>
      <trkpt lat="47.01977" lon="6.85149">
        <ele>878.81</ele>
        <time>2020-06-27T07:53:12.053Z</time>
      </trkpt>
      <trkpt lat="47.0198" lon="6.85151">
        <ele>878.65</ele>
        <time>2020-06-27T07:53:12.398Z</time>
      </trkpt>
      <trkpt lat="47.01983" lon="6.85153">
        <ele>878.55</ele>
        <time>2020-06-27T07:53:12.809Z</time>
      </trkpt>
      <trkpt lat="47.0199" lon="6.8516">
        <ele>878.41</ele>
        <time>2020-06-27T07:53:14.045Z</time>
      </trkpt>
      <trkpt lat="47.02029" lon="6.85206">
        <ele>879.17</ele>
        <time>2020-06-27T07:53:26.707Z</time>
      </trkpt>
      <trkpt lat="47.02028" lon="6.85206">
        <ele>879.17</ele>
        <time>2020-06-27T07:53:26.925Z</time>
      </trkpt>
      <trkpt lat="47.02047" lon="6.85228">
        <ele>879.93</ele>
        <time>2020-06-27T07:53:34.326Z</time>
      </trkpt>
      <trkpt lat="47.02077" lon="6.85262">
        <ele>880.62</ele>
        <time>2020-06-27T07:53:44.236Z</time>
      </trkpt>
      <trkpt lat="47.02174" lon="6.85364">
        <ele>877.91</ele>
        <time>2020-06-27T07:54:00.425Z</time>
      </trkpt>
      <trkpt lat="47.02179" lon="6.85369">
        <ele>877.83</ele>
        <time>2020-06-27T07:54:01.345Z</time>
      </trkpt>
      <trkpt lat="47.02221" lon="6.85412">
        <ele>878.14</ele>
        <time>2020-06-27T07:54:13.156Z</time>
      </trkpt>
      <trkpt lat="47.0225" lon="6.85442">
        <ele>877.82</ele>
        <time>2020-06-27T07:54:18.856Z</time>
      </trkpt>
      <trkpt lat="47.0225" lon="6.85441">
        <ele>877.82</ele>
        <time>2020-06-27T07:54:19.005Z</time>
      </trkpt>
      <trkpt lat="47.02262" lon="6.85453">
        <ele>877.5</ele>
        <time>2020-06-27T07:54:20.990Z</time>
      </trkpt>
      <trkpt lat="47.02287" lon="6.85478">
        <ele>876.42</ele>
        <time>2020-06-27T07:54:24.566Z</time>
      </trkpt>
      <trkpt lat="47.02326" lon="6.85512">
        <ele>875.6</ele>
        <time>2020-06-27T07:54:31.061Z</time>
      </trkpt>
      <trkpt lat="47.02338" lon="6.85522">
        <ele>875.39</ele>
        <time>2020-06-27T07:54:33.107Z</time>
      </trkpt>
      <trkpt lat="47.02408" lon="6.85584">
        <ele>876.57</ele>
        <time>2020-06-27T07:54:53.632Z</time>
      </trkpt>
      <trkpt lat="47.02412" lon="6.85588">
        <ele>876.71</ele>
        <time>2020-06-27T07:54:55.066Z</time>
      </trkpt>
      <trkpt lat="47.0242" lon="6.85597">
        <ele>876.59</ele>
        <time>2020-06-27T07:54:56.625Z</time>
      </trkpt>
      <trkpt lat="47.02428" lon="6.85605">
        <ele>876.79</ele>
        <time>2020-06-27T07:54:59.226Z</time>
      </trkpt>
      <trkpt lat="47.02431" lon="6.85607">
        <ele>877.02</ele>
        <time>2020-06-27T07:55:00.668Z</time>
      </trkpt>
      <trkpt lat="47.02444" lon="6.85615">
        <ele>876.96</ele>
        <time>2020-06-27T07:55:03.551Z</time>
      </trkpt>
      <trkpt lat="47.02455" lon="6.85623">
        <ele>877.19</ele>
        <time>2020-06-27T07:55:06.779Z</time>
      </trkpt>
      <trkpt lat="47.02477" lon="6.85639">
        <ele>877.36</ele>
        <time>2020-06-27T07:55:12.490Z</time>
      </trkpt>
      <trkpt lat="47.02483" lon="6.85643">
        <ele>877.44</ele>
        <time>2020-06-27T07:55:14.105Z</time>
      </trkpt>
      <trkpt lat="47.02488" lon="6.85649">
        <ele>877.57</ele>
        <time>2020-06-27T07:55:15.830Z</time>
      </trkpt>
      <trkpt lat="47.02492" lon="6.85654">
        <ele>877.58</ele>
        <time>2020-06-27T07:55:16.995Z</time>
      </trkpt>
      <trkpt lat="47.02493" lon="6.85657">
        <ele>877.57</ele>
        <time>2020-06-27T07:55:17.460Z</time>
      </trkpt>
      <trkpt lat="47.02496" lon="6.85655">
        <ele>877.78</ele>
        <time>2020-06-27T07:55:18.839Z</time>
      </trkpt>
      <trkpt lat="47.02499" lon="6.85653">
        <ele>877.87</ele>
        <time>2020-06-27T07:55:19.796Z</time>
      </trkpt>
      <trkpt lat="47.02504" lon="6.85652">
        <ele>878.21</ele>
        <time>2020-06-27T07:55:21.965Z</time>
      </trkpt>
      <trkpt lat="47.02508" lon="6.85651">
        <ele>878.4</ele>
        <time>2020-06-27T07:55:23.479Z</time>
      </trkpt>
      <trkpt lat="47.02512" lon="6.85652">
        <ele>878.61</ele>
        <time>2020-06-27T07:55:25.043Z</time>
      </trkpt>
      <trkpt lat="47.02535" lon="6.85658">
        <ele>880.13</ele>
        <time>2020-06-27T07:55:34.915Z</time>
      </trkpt>
      <trkpt lat="47.02544" lon="6.85661">
        <ele>881.19</ele>
        <time>2020-06-27T07:55:41.027Z</time>
      </trkpt>
      <trkpt lat="47.02562" lon="6.85668">
        <ele>883.44</ele>
        <time>2020-06-27T07:55:54.261Z</time>
      </trkpt>
      <trkpt lat="47.02586" lon="6.85682">
        <ele>884.38</ele>
        <time>2020-06-27T07:56:02.700Z</time>
      </trkpt>
      <trkpt lat="47.02599" lon="6.8569">
        <ele>885.11</ele>
        <time>2020-06-27T07:56:08.133Z</time>
      </trkpt>
      <trkpt lat="47.02616" lon="6.857">
        <ele>885.87</ele>
        <time>2020-06-27T07:56:14.569Z</time>
      </trkpt>
      <trkpt lat="47.02659" lon="6.85729">
        <ele>888.96</ele>
        <time>2020-06-27T07:56:34.601Z</time>
      </trkpt>
      <trkpt lat="47.02678" lon="6.85741">
        <ele>890.51</ele>
        <time>2020-06-27T07:56:44.018Z</time>
      </trkpt>
      <trkpt lat="47.027" lon="6.85753">
        <ele>892.1</ele>
        <time>2020-06-27T07:56:54.134Z</time>
      </trkpt>
      <trkpt lat="47.02711" lon="6.85758">
        <ele>892.65</ele>
        <time>2020-06-27T07:56:58.456Z</time>
      </trkpt>
      <trkpt lat="47.02721" lon="6.8576">
        <ele>892.94</ele>
        <time>2020-06-27T07:57:01.440Z</time>
      </trkpt>
      <trkpt lat="47.02735" lon="6.85762">
        <ele>892.95</ele>
        <time>2020-06-27T07:57:04.524Z</time>
      </trkpt>
      <trkpt lat="47.02746" lon="6.85762">
        <ele>893.21</ele>
        <time>2020-06-27T07:57:07.582Z</time>
      </trkpt>
      <trkpt lat="47.02763" lon="6.8576">
        <ele>893.3</ele>
        <time>2020-06-27T07:57:11.486Z</time>
      </trkpt>
      <trkpt lat="47.02774" lon="6.85759">
        <ele>893.33</ele>
        <time>2020-06-27T07:57:13.948Z</time>
      </trkpt>
      <trkpt lat="47.02774" lon="6.85759">
        <ele>893.33</ele>
        <time>2020-06-27T07:57:13.948Z</time>
      </trkpt>
      <trkpt lat="47.02788" lon="6.85759">
        <ele>893.36</ele>
        <time>2020-06-27T07:57:17.058Z</time>
      </trkpt>
      <trkpt lat="47.02798" lon="6.85759">
        <ele>893.56</ele>
        <time>2020-06-27T07:57:19.725Z</time>
      </trkpt>
      <trkpt lat="47.02804" lon="6.85762">
        <ele>893.67</ele>
        <time>2020-06-27T07:57:21.367Z</time>
      </trkpt>
      <trkpt lat="47.02814" lon="6.8577">
        <ele>894.14</ele>
        <time>2020-06-27T07:57:25.355Z</time>
      </trkpt>
      <trkpt lat="47.02845" lon="6.85807">
        <ele>895.33</ele>
        <time>2020-06-27T07:57:37.325Z</time>
      </trkpt>
      <trkpt lat="47.02855" lon="6.85818">
        <ele>895.02</ele>
        <time>2020-06-27T07:57:38.981Z</time>
      </trkpt>
      <trkpt lat="47.02864" lon="6.85826">
        <ele>895.03</ele>
        <time>2020-06-27T07:57:41.293Z</time>
      </trkpt>
      <trkpt lat="47.02883" lon="6.85831">
        <ele>894.79</ele>
        <time>2020-06-27T07:57:44.258Z</time>
      </trkpt>
      <trkpt lat="47.02906" lon="6.85835">
        <ele>894.88</ele>
        <time>2020-06-27T07:57:49.489Z</time>
      </trkpt>
      <trkpt lat="47.02923" lon="6.85837">
        <ele>895.25</ele>
        <time>2020-06-27T07:57:54.125Z</time>
      </trkpt>
      <trkpt lat="47.02945" lon="6.85842">
        <ele>897.32</ele>
        <time>2020-06-27T07:58:05.928Z</time>
      </trkpt>
      <trkpt lat="47.02959" lon="6.85848">
        <ele>898.88</ele>
        <time>2020-06-27T07:58:14.791Z</time>
      </trkpt>
      <trkpt lat="47.02971" lon="6.85854">
        <ele>900.45</ele>
        <time>2020-06-27T07:58:24.145Z</time>
      </trkpt>
      <trkpt lat="47.02989" lon="6.85866">
        <ele>902.22</ele>
        <time>2020-06-27T07:58:34.307Z</time>
      </trkpt>
      <trkpt lat="47.0301" lon="6.8588">
        <ele>903.56</ele>
        <time>2020-06-27T07:58:43.584Z</time>
      </trkpt>
      <trkpt lat="47.0302" lon="6.85887">
        <ele>904.59</ele>
        <time>2020-06-27T07:58:49.458Z</time>
      </trkpt>
      <trkpt lat="47.03029" lon="6.85891">
        <ele>904.59</ele>
        <time>2020-06-27T07:58:51.506Z</time>
      </trkpt>
      <trkpt lat="47.03035" lon="6.85894">
        <ele>904.59</ele>
        <time>2020-06-27T07:58:52.887Z</time>
      </trkpt>
      <trkpt lat="47.03041" lon="6.85895">
        <ele>904.59</ele>
        <time>2020-06-27T07:58:54.202Z</time>
      </trkpt>
      <trkpt lat="47.03059" lon="6.85898">
        <ele>903.94</ele>
        <time>2020-06-27T07:58:56.339Z</time>
      </trkpt>
      <trkpt lat="47.03071" lon="6.85899">
        <ele>904.59</ele>
        <time>2020-06-27T07:59:01.043Z</time>
      </trkpt>
      <trkpt lat="47.03081" lon="6.85901">
        <ele>903.52</ele>
        <time>2020-06-27T07:59:02.039Z</time>
      </trkpt>
      <trkpt lat="47.0309" lon="6.85904">
        <ele>903.7</ele>
        <time>2020-06-27T07:59:04.487Z</time>
      </trkpt>
      <trkpt lat="47.03103" lon="6.85911">
        <ele>904.01</ele>
        <time>2020-06-27T07:59:08.281Z</time>
      </trkpt>
      <trkpt lat="47.03127" lon="6.85927">
        <ele>904.23</ele>
        <time>2020-06-27T07:59:14.499Z</time>
      </trkpt>
      <trkpt lat="47.03173" lon="6.85963">
        <ele>904.95</ele>
        <time>2020-06-27T07:59:27.500Z</time>
      </trkpt>
      <trkpt lat="47.03172" lon="6.85963">
        <ele>904.95</ele>
        <time>2020-06-27T07:59:27.717Z</time>
      </trkpt>
      <trkpt lat="47.03175" lon="6.85964">
        <ele>905.68</ele>
        <time>2020-06-27T07:59:30.302Z</time>
      </trkpt>
      <trkpt lat="47.03198" lon="6.85981">
        <ele>906.11</ele>
        <time>2020-06-27T07:59:36.925Z</time>
      </trkpt>
      <trkpt lat="47.03219" lon="6.85998">
        <ele>907.36</ele>
        <time>2020-06-27T07:59:46.188Z</time>
      </trkpt>
      <trkpt lat="47.03241" lon="6.86019">
        <ele>908.61</ele>
        <time>2020-06-27T07:59:56.032Z</time>
      </trkpt>
      <trkpt lat="47.03274" lon="6.86049">
        <ele>911.96</ele>
        <time>2020-06-27T08:00:15.431Z</time>
      </trkpt>
      <trkpt lat="47.03289" lon="6.86064">
        <ele>914.42</ele>
        <time>2020-06-27T08:00:30.682Z</time>
      </trkpt>
      <trkpt lat="47.03302" lon="6.86079">
        <ele>915.84</ele>
        <time>2020-06-27T08:00:38.916Z</time>
      </trkpt>
      <trkpt lat="47.03307" lon="6.86086">
        <ele>916.19</ele>
        <time>2020-06-27T08:00:41.559Z</time>
      </trkpt>
      <trkpt lat="47.03327" lon="6.86111">
        <ele>917.75</ele>
        <time>2020-06-27T08:00:52.221Z</time>
      </trkpt>
      <trkpt lat="47.03341" lon="6.86129">
        <ele>918.36</ele>
        <time>2020-06-27T08:00:58.015Z</time>
      </trkpt>
      <trkpt lat="47.0335" lon="6.86139">
        <ele>918.83</ele>
        <time>2020-06-27T08:01:01.990Z</time>
      </trkpt>
      <trkpt lat="47.03359" lon="6.86146">
        <ele>919.46</ele>
        <time>2020-06-27T08:01:06.196Z</time>
      </trkpt>
      <trkpt lat="47.03364" lon="6.86148">
        <ele>919.4</ele>
        <time>2020-06-27T08:01:07.001Z</time>
      </trkpt>
      <trkpt lat="47.03372" lon="6.86147">
        <ele>919.59</ele>
        <time>2020-06-27T08:01:09.234Z</time>
      </trkpt>
      <trkpt lat="47.0338" lon="6.86147">
        <ele>919.58</ele>
        <time>2020-06-27T08:01:10.944Z</time>
      </trkpt>
      <trkpt lat="47.0339" lon="6.86148">
        <ele>920.19</ele>
        <time>2020-06-27T08:01:15.054Z</time>
      </trkpt>
      <trkpt lat="47.03396" lon="6.8615">
        <ele>920.39</ele>
        <time>2020-06-27T08:01:16.962Z</time>
      </trkpt>
      <trkpt lat="47.034" lon="6.86154">
        <ele>920.59</ele>
        <time>2020-06-27T08:01:18.659Z</time>
      </trkpt>
      <trkpt lat="47.03403" lon="6.86159">
        <ele>920.59</ele>
        <time>2020-06-27T08:01:19.647Z</time>
      </trkpt>
      <trkpt lat="47.03406" lon="6.86165">
        <ele>920.59</ele>
        <time>2020-06-27T08:01:20.752Z</time>
      </trkpt>
      <trkpt lat="47.03408" lon="6.86173">
        <ele>920.78</ele>
        <time>2020-06-27T08:01:22.559Z</time>
      </trkpt>
      <trkpt lat="47.0341" lon="6.86185">
        <ele>920.78</ele>
        <time>2020-06-27T08:01:24.393Z</time>
      </trkpt>
      <trkpt lat="47.03412" lon="6.86197">
        <ele>920.98</ele>
        <time>2020-06-27T08:01:26.737Z</time>
      </trkpt>
      <trkpt lat="47.03415" lon="6.8622">
        <ele>921.43</ele>
        <time>2020-06-27T08:01:31.424Z</time>
      </trkpt>
      <trkpt lat="47.03419" lon="6.86244">
        <ele>921.75</ele>
        <time>2020-06-27T08:01:35.865Z</time>
      </trkpt>
      <trkpt lat="47.03424" lon="6.86273">
        <ele>921.95</ele>
        <time>2020-06-27T08:01:40.744Z</time>
      </trkpt>
      <trkpt lat="47.03428" lon="6.8629">
        <ele>922.34</ele>
        <time>2020-06-27T08:01:44.512Z</time>
      </trkpt>
      <trkpt lat="47.03435" lon="6.86315">
        <ele>922.73</ele>
        <time>2020-06-27T08:01:49.490Z</time>
      </trkpt>
      <trkpt lat="47.03435" lon="6.86314">
        <ele>922.73</ele>
        <time>2020-06-27T08:01:49.638Z</time>
      </trkpt>
      <trkpt lat="47.03437" lon="6.86321">
        <ele>923.12</ele>
        <time>2020-06-27T08:01:52.002Z</time>
      </trkpt>
      <trkpt lat="47.03461" lon="6.86389">
        <ele>924.48</ele>
        <time>2020-06-27T08:02:06.934Z</time>
      </trkpt>
      <trkpt lat="47.03473" lon="6.86422">
        <ele>924.87</ele>
        <time>2020-06-27T08:02:13.392Z</time>
      </trkpt>
      <trkpt lat="47.03481" lon="6.86446">
        <ele>925.22</ele>
        <time>2020-06-27T08:02:18.206Z</time>
      </trkpt>
      <trkpt lat="47.03488" lon="6.86464">
        <ele>925.46</ele>
        <time>2020-06-27T08:02:21.850Z</time>
      </trkpt>
      <trkpt lat="47.03499" lon="6.86496">
        <ele>926.1</ele>
        <time>2020-06-27T08:02:28.851Z</time>
      </trkpt>
      <trkpt lat="47.03506" lon="6.86514">
        <ele>926.85</ele>
        <time>2020-06-27T08:02:34.342Z</time>
      </trkpt>
      <trkpt lat="47.03516" lon="6.86546">
        <ele>927.59</ele>
        <time>2020-06-27T08:02:41.626Z</time>
      </trkpt>
      <trkpt lat="47.03526" lon="6.86575">
        <ele>927.98</ele>
        <time>2020-06-27T08:02:47.378Z</time>
      </trkpt>
      <trkpt lat="47.03537" lon="6.86609">
        <ele>928.24</ele>
        <time>2020-06-27T08:02:53.538Z</time>
      </trkpt>
      <trkpt lat="47.03541" lon="6.86619">
        <ele>928.4</ele>
        <time>2020-06-27T08:02:55.651Z</time>
      </trkpt>
      <trkpt lat="47.03552" lon="6.86646">
        <ele>928.95</ele>
        <time>2020-06-27T08:03:01.755Z</time>
      </trkpt>
      <trkpt lat="47.03565" lon="6.86678">
        <ele>929.34</ele>
        <time>2020-06-27T08:03:08.191Z</time>
      </trkpt>
      <trkpt lat="47.03569" lon="6.86689">
        <ele>929.51</ele>
        <time>2020-06-27T08:03:10.457Z</time>
      </trkpt>
      <trkpt lat="47.03573" lon="6.86699">
        <ele>929.92</ele>
        <time>2020-06-27T08:03:13.505Z</time>
      </trkpt>
      <trkpt lat="47.03578" lon="6.86711">
        <ele>930.12</ele>
        <time>2020-06-27T08:03:16.086Z</time>
      </trkpt>
      <trkpt lat="47.03592" lon="6.86737">
        <ele>930.48</ele>
        <time>2020-06-27T08:03:21.846Z</time>
      </trkpt>
      <trkpt lat="47.03598" lon="6.86753">
        <ele>930.65</ele>
        <time>2020-06-27T08:03:24.945Z</time>
      </trkpt>
      <trkpt lat="47.03604" lon="6.86768">
        <ele>930.87</ele>
        <time>2020-06-27T08:03:28.056Z</time>
      </trkpt>
      <trkpt lat="47.03609" lon="6.86777">
        <ele>931.11</ele>
        <time>2020-06-27T08:03:30.443Z</time>
      </trkpt>
      <trkpt lat="47.03614" lon="6.86785">
        <ele>931.01</ele>
        <time>2020-06-27T08:03:31.563Z</time>
      </trkpt>
      <trkpt lat="47.03621" lon="6.86798">
        <ele>931.39</ele>
        <time>2020-06-27T08:03:35.119Z</time>
      </trkpt>
      <trkpt lat="47.0363" lon="6.86816">
        <ele>931.59</ele>
        <time>2020-06-27T08:03:38.887Z</time>
      </trkpt>
      <trkpt lat="47.03637" lon="6.86827">
        <ele>932.01</ele>
        <time>2020-06-27T08:03:42.462Z</time>
      </trkpt>
      <trkpt lat="47.03648" lon="6.86841">
        <ele>932.36</ele>
        <time>2020-06-27T08:03:46.529Z</time>
      </trkpt>
      <trkpt lat="47.03663" lon="6.86862">
        <ele>932.8</ele>
        <time>2020-06-27T08:03:52.135Z</time>
      </trkpt>
      <trkpt lat="47.0369" lon="6.86894">
        <ele>933.76</ele>
        <time>2020-06-27T08:04:02.260Z</time>
      </trkpt>
      <trkpt lat="47.0373" lon="6.86936">
        <ele>935.11</ele>
        <time>2020-06-27T08:04:16.572Z</time>
      </trkpt>
      <trkpt lat="47.03742" lon="6.86946">
        <ele>935.41</ele>
        <time>2020-06-27T08:04:20.326Z</time>
      </trkpt>
      <trkpt lat="47.03749" lon="6.86949">
        <ele>935.06</ele>
        <time>2020-06-27T08:04:21.094Z</time>
      </trkpt>
      <trkpt lat="47.0376" lon="6.86959">
        <ele>934.11</ele>
        <time>2020-06-27T08:04:22.371Z</time>
      </trkpt>
      <trkpt lat="47.03775" lon="6.8697">
        <ele>933.75</ele>
        <time>2020-06-27T08:04:24.678Z</time>
      </trkpt>
      <trkpt lat="47.03775" lon="6.86969">
        <ele>933.75</ele>
        <time>2020-06-27T08:04:24.827Z</time>
      </trkpt>
      <trkpt lat="47.03776" lon="6.8697">
        <ele>933.38</ele>
        <time>2020-06-27T08:04:24.946Z</time>
      </trkpt>
      <trkpt lat="47.03817" lon="6.86996">
        <ele>933.2</ele>
        <time>2020-06-27T08:04:34.110Z</time>
      </trkpt>
      <trkpt lat="47.03827" lon="6.87001">
        <ele>933.34</ele>
        <time>2020-06-27T08:04:36.729Z</time>
      </trkpt>
      <trkpt lat="47.03847" lon="6.87009">
        <ele>933.47</ele>
        <time>2020-06-27T08:04:41.519Z</time>
      </trkpt>
      <trkpt lat="47.03871" lon="6.8702">
        <ele>930.82</ele>
        <time>2020-06-27T08:04:44.002Z</time>
      </trkpt>
      <trkpt lat="47.03876" lon="6.87024">
        <ele>929.79</ele>
        <time>2020-06-27T08:04:44.564Z</time>
      </trkpt>
      <trkpt lat="47.0388" lon="6.87028">
        <ele>929.11</ele>
        <time>2020-06-27T08:04:45.042Z</time>
      </trkpt>
      <trkpt lat="47.03883" lon="6.87035">
        <ele>928.27</ele>
        <time>2020-06-27T08:04:45.598Z</time>
      </trkpt>
      <trkpt lat="47.03885" lon="6.87042">
        <ele>927.52</ele>
        <time>2020-06-27T08:04:46.109Z</time>
      </trkpt>
      <trkpt lat="47.03885" lon="6.87053">
        <ele>926.63</ele>
        <time>2020-06-27T08:04:46.849Z</time>
      </trkpt>
      <trkpt lat="47.0388" lon="6.87081">
        <ele>923.63</ele>
        <time>2020-06-27T08:04:48.796Z</time>
      </trkpt>
      <trkpt lat="47.03878" lon="6.87094">
        <ele>922.44</ele>
        <time>2020-06-27T08:04:49.693Z</time>
      </trkpt>
      <trkpt lat="47.0389" lon="6.87102">
        <ele>920.87</ele>
        <time>2020-06-27T08:04:50.994Z</time>
      </trkpt>
      <trkpt lat="47.03898" lon="6.87105">
        <ele>919.73</ele>
        <time>2020-06-27T08:04:51.810Z</time>
      </trkpt>
      <trkpt lat="47.03904" lon="6.87106">
        <ele>918.73</ele>
        <time>2020-06-27T08:04:52.406Z</time>
      </trkpt>
      <trkpt lat="47.03909" lon="6.87107">
        <ele>918.17</ele>
        <time>2020-06-27T08:04:52.904Z</time>
      </trkpt>
      <trkpt lat="47.03914" lon="6.87111">
        <ele>917.53</ele>
        <time>2020-06-27T08:04:53.466Z</time>
      </trkpt>
      <trkpt lat="47.03921" lon="6.87119">
        <ele>916.85</ele>
        <time>2020-06-27T08:04:54.342Z</time>
      </trkpt>
      <trkpt lat="47.03923" lon="6.87123">
        <ele>916.69</ele>
        <time>2020-06-27T08:04:54.700Z</time>
      </trkpt>
      <trkpt lat="47.03924" lon="6.87126">
        <ele>916.47</ele>
        <time>2020-06-27T08:04:54.925Z</time>
      </trkpt>
      <trkpt lat="47.03924" lon="6.8713">
        <ele>916.48</ele>
        <time>2020-06-27T08:04:55.539Z</time>
      </trkpt>
      <trkpt lat="47.03963" lon="6.87126">
        <ele>920.38</ele>
        <time>2020-06-27T08:05:17.632Z</time>
      </trkpt>
      <trkpt lat="47.03978" lon="6.87125">
        <ele>921.78</ele>
        <time>2020-06-27T08:05:25.612Z</time>
      </trkpt>
      <trkpt lat="47.04016" lon="6.87125">
        <ele>924.11</ele>
        <time>2020-06-27T08:05:41.244Z</time>
      </trkpt>
      <trkpt lat="47.04016" lon="6.87125">
        <ele>924.11</ele>
        <time>2020-06-27T08:05:41.244Z</time>
      </trkpt>
      <trkpt lat="47.04025" lon="6.87125">
        <ele>926.44</ele>
        <time>2020-06-27T08:05:48.806Z</time>
      </trkpt>
      <trkpt lat="47.04044" lon="6.87126">
        <ele>927.97</ele>
        <time>2020-06-27T08:05:57.854Z</time>
      </trkpt>
      <trkpt lat="47.04063" lon="6.87129">
        <ele>929.85</ele>
        <time>2020-06-27T08:06:08.510Z</time>
      </trkpt>
      <trkpt lat="47.04079" lon="6.87131">
        <ele>931.27</ele>
        <time>2020-06-27T08:06:16.684Z</time>
      </trkpt>
      <trkpt lat="47.04104" lon="6.87136">
        <ele>933.8</ele>
        <time>2020-06-27T08:06:31.014Z</time>
      </trkpt>
      <trkpt lat="47.04121" lon="6.87141">
        <ele>935.37</ele>
        <time>2020-06-27T08:06:40.008Z</time>
      </trkpt>
      <trkpt lat="47.04146" lon="6.8715">
        <ele>937.89</ele>
        <time>2020-06-27T08:06:54.296Z</time>
      </trkpt>
      <trkpt lat="47.04167" lon="6.87158">
        <ele>939.84</ele>
        <time>2020-06-27T08:07:05.482Z</time>
      </trkpt>
      <trkpt lat="47.04166" lon="6.87164">
        <ele>939.72</ele>
        <time>2020-06-27T08:07:06.018Z</time>
      </trkpt>
      <trkpt lat="47.04167" lon="6.87169">
        <ele>939.72</ele>
        <time>2020-06-27T08:07:06.791Z</time>
      </trkpt>
      <trkpt lat="47.0417" lon="6.87174">
        <ele>939.7</ele>
        <time>2020-06-27T08:07:07.718Z</time>
      </trkpt>
      <trkpt lat="47.04173" lon="6.87178">
        <ele>939.82</ele>
        <time>2020-06-27T08:07:08.929Z</time>
      </trkpt>
      <trkpt lat="47.04176" lon="6.8718">
        <ele>939.91</ele>
        <time>2020-06-27T08:07:09.886Z</time>
      </trkpt>
      <trkpt lat="47.04181" lon="6.8718">
        <ele>940</ele>
        <time>2020-06-27T08:07:11.190Z</time>
      </trkpt>
      <trkpt lat="47.04193" lon="6.87181">
        <ele>940.19</ele>
        <time>2020-06-27T08:07:14.252Z</time>
      </trkpt>
      <trkpt lat="47.04201" lon="6.87183">
        <ele>940.05</ele>
        <time>2020-06-27T08:07:15.425Z</time>
      </trkpt>
      <trkpt lat="47.04212" lon="6.87189">
        <ele>939.15</ele>
        <time>2020-06-27T08:07:16.584Z</time>
      </trkpt>
      <trkpt lat="47.04234" lon="6.872">
        <ele>938.97</ele>
        <time>2020-06-27T08:07:20.382Z</time>
      </trkpt>
      <trkpt lat="47.04241" lon="6.87201">
        <ele>939.78</ele>
        <time>2020-06-27T08:07:25.057Z</time>
      </trkpt>
      <trkpt lat="47.04246" lon="6.87201">
        <ele>940.5</ele>
        <time>2020-06-27T08:07:29.258Z</time>
      </trkpt>
      <trkpt lat="47.04259" lon="6.87196">
        <ele>942.27</ele>
        <time>2020-06-27T08:07:40.274Z</time>
      </trkpt>
      <trkpt lat="47.0427" lon="6.87194">
        <ele>942.61</ele>
        <time>2020-06-27T08:07:43.632Z</time>
      </trkpt>
      <trkpt lat="47.04275" lon="6.87193">
        <ele>942.7</ele>
        <time>2020-06-27T08:07:44.946Z</time>
      </trkpt>
      <trkpt lat="47.04283" lon="6.87196">
        <ele>942.83</ele>
        <time>2020-06-27T08:07:47.047Z</time>
      </trkpt>
      <trkpt lat="47.04349" lon="6.87227">
        <ele>943.9</ele>
        <time>2020-06-27T08:08:04.629Z</time>
      </trkpt>
      <trkpt lat="47.04349" lon="6.87226">
        <ele>943.9</ele>
        <time>2020-06-27T08:08:04.777Z</time>
      </trkpt>
      <trkpt lat="47.04354" lon="6.87229">
        <ele>944.98</ele>
        <time>2020-06-27T08:08:09.315Z</time>
      </trkpt>
      <trkpt lat="47.04358" lon="6.87231">
        <ele>945.04</ele>
        <time>2020-06-27T08:08:10.373Z</time>
      </trkpt>
      <trkpt lat="47.04364" lon="6.87233">
        <ele>945.38</ele>
        <time>2020-06-27T08:08:12.801Z</time>
      </trkpt>
      <trkpt lat="47.04378" lon="6.87239">
        <ele>945.67</ele>
        <time>2020-06-27T08:08:16.685Z</time>
      </trkpt>
      <trkpt lat="47.04429" lon="6.87262">
        <ele>947.06</ele>
        <time>2020-06-27T08:08:31.949Z</time>
      </trkpt>
      <trkpt lat="47.04447" lon="6.8727">
        <ele>947.6</ele>
        <time>2020-06-27T08:08:37.508Z</time>
      </trkpt>
      <trkpt lat="47.04483" lon="6.87292">
        <ele>949.06</ele>
        <time>2020-06-27T08:08:50.435Z</time>
      </trkpt>
      <trkpt lat="47.04498" lon="6.87298">
        <ele>949.52</ele>
        <time>2020-06-27T08:08:55.081Z</time>
      </trkpt>
      <trkpt lat="47.04535" lon="6.8732">
        <ele>950.62</ele>
        <time>2020-06-27T08:09:06.712Z</time>
      </trkpt>
      <trkpt lat="47.04551" lon="6.87329">
        <ele>951.04</ele>
        <time>2020-06-27T08:09:11.525Z</time>
      </trkpt>
      <trkpt lat="47.04571" lon="6.87342">
        <ele>951.78</ele>
        <time>2020-06-27T08:09:18.429Z</time>
      </trkpt>
      <trkpt lat="47.04588" lon="6.87355">
        <ele>952.56</ele>
        <time>2020-06-27T08:09:25.086Z</time>
      </trkpt>
      <trkpt lat="47.04636" lon="6.87395">
        <ele>953.26</ele>
        <time>2020-06-27T08:09:38.690Z</time>
      </trkpt>
      <trkpt lat="47.04649" lon="6.87407">
        <ele>953.45</ele>
        <time>2020-06-27T08:09:42.462Z</time>
      </trkpt>
      <trkpt lat="47.04654" lon="6.87411">
        <ele>953.63</ele>
        <time>2020-06-27T08:09:44.208Z</time>
      </trkpt>
      <trkpt lat="47.04694" lon="6.87445">
        <ele>954.46</ele>
        <time>2020-06-27T08:09:56.259Z</time>
      </trkpt>
      <trkpt lat="47.04694" lon="6.87447">
        <ele>954.36</ele>
        <time>2020-06-27T08:09:56.394Z</time>
      </trkpt>
      <trkpt lat="47.04691" lon="6.87456">
        <ele>954.07</ele>
        <time>2020-06-27T08:09:57.150Z</time>
      </trkpt>
      <trkpt lat="47.04691" lon="6.8746">
        <ele>953.99</ele>
        <time>2020-06-27T08:09:57.493Z</time>
      </trkpt>
      <trkpt lat="47.04692" lon="6.87465">
        <ele>953.99</ele>
        <time>2020-06-27T08:09:58.267Z</time>
      </trkpt>
      <trkpt lat="47.04696" lon="6.87474">
        <ele>954.08</ele>
        <time>2020-06-27T08:10:00.064Z</time>
      </trkpt>
      <trkpt lat="47.04701" lon="6.87479">
        <ele>954.13</ele>
        <time>2020-06-27T08:10:01.490Z</time>
      </trkpt>
      <trkpt lat="47.04713" lon="6.87491">
        <ele>954.05</ele>
        <time>2020-06-27T08:10:04.407Z</time>
      </trkpt>
      <trkpt lat="47.04724" lon="6.875">
        <ele>954.03</ele>
        <time>2020-06-27T08:10:07.085Z</time>
      </trkpt>
      <trkpt lat="47.04735" lon="6.87508">
        <ele>954.1</ele>
        <time>2020-06-27T08:10:09.906Z</time>
      </trkpt>
      <trkpt lat="47.04735" lon="6.87507">
        <ele>954.1</ele>
        <time>2020-06-27T08:10:10.055Z</time>
      </trkpt>
      <trkpt lat="47.04744" lon="6.87514">
        <ele>954.17</ele>
        <time>2020-06-27T08:10:12.422Z</time>
      </trkpt>
      <trkpt lat="47.04758" lon="6.87524">
        <ele>954.36</ele>
        <time>2020-06-27T08:10:16.241Z</time>
      </trkpt>
      <trkpt lat="47.04773" lon="6.87531">
        <ele>954.42</ele>
        <time>2020-06-27T08:10:19.793Z</time>
      </trkpt>
      <trkpt lat="47.04805" lon="6.87546">
        <ele>954.59</ele>
        <time>2020-06-27T08:10:27.466Z</time>
      </trkpt>
      <trkpt lat="47.04912" lon="6.87588">
        <ele>955.21</ele>
        <time>2020-06-27T08:10:52.896Z</time>
      </trkpt>
      <trkpt lat="47.04911" lon="6.87588">
        <ele>955.21</ele>
        <time>2020-06-27T08:10:53.114Z</time>
      </trkpt>
      <trkpt lat="47.04915" lon="6.8759">
        <ele>955.84</ele>
        <time>2020-06-27T08:10:56.664Z</time>
      </trkpt>
      <trkpt lat="47.04944" lon="6.876">
        <ele>956.42</ele>
        <time>2020-06-27T08:11:04.562Z</time>
      </trkpt>
      <trkpt lat="47.04955" lon="6.87605">
        <ele>956.47</ele>
        <time>2020-06-27T08:11:07.174Z</time>
      </trkpt>
      <trkpt lat="47.04974" lon="6.87615">
        <ele>956.13</ele>
        <time>2020-06-27T08:11:10.107Z</time>
      </trkpt>
      <trkpt lat="47.04976" lon="6.87609">
        <ele>956.33</ele>
        <time>2020-06-27T08:11:11.766Z</time>
      </trkpt>
      <trkpt lat="47.04977" lon="6.87608">
        <ele>956.45</ele>
        <time>2020-06-27T08:11:12.446Z</time>
      </trkpt>
      <trkpt lat="47.04979" lon="6.87607">
        <ele>956.47</ele>
        <time>2020-06-27T08:11:12.950Z</time>
      </trkpt>
      <trkpt lat="47.04982" lon="6.87607">
        <ele>956.54</ele>
        <time>2020-06-27T08:11:13.781Z</time>
      </trkpt>
      <trkpt lat="47.04987" lon="6.87608">
        <ele>956.77</ele>
        <time>2020-06-27T08:11:15.649Z</time>
      </trkpt>
      <trkpt lat="47.04997" lon="6.87612">
        <ele>957.12</ele>
        <time>2020-06-27T08:11:18.918Z</time>
      </trkpt>
      <trkpt lat="47.05018" lon="6.8762">
        <ele>957.91</ele>
        <time>2020-06-27T08:11:26.009Z</time>
      </trkpt>
      <trkpt lat="47.05028" lon="6.87622">
        <ele>958.55</ele>
        <time>2020-06-27T08:11:30.223Z</time>
      </trkpt>
      <trkpt lat="47.05032" lon="6.87623">
        <ele>958.53</ele>
        <time>2020-06-27T08:11:31.045Z</time>
      </trkpt>
      <trkpt lat="47.05035" lon="6.87623">
        <ele>958.93</ele>
        <time>2020-06-27T08:11:33.562Z</time>
      </trkpt>
      <trkpt lat="47.05039" lon="6.87621">
        <ele>958.97</ele>
        <time>2020-06-27T08:11:34.569Z</time>
      </trkpt>
      <trkpt lat="47.05039" lon="6.87623">
        <ele>959.02</ele>
        <time>2020-06-27T08:11:35.017Z</time>
      </trkpt>
      <trkpt lat="47.05041" lon="6.87628">
        <ele>958.61</ele>
        <time>2020-06-27T08:11:35.407Z</time>
      </trkpt>
      <trkpt lat="47.05044" lon="6.87631">
        <ele>958.25</ele>
        <time>2020-06-27T08:11:35.765Z</time>
      </trkpt>
      <trkpt lat="47.05049" lon="6.87635">
        <ele>957.69</ele>
        <time>2020-06-27T08:11:36.327Z</time>
      </trkpt>
      <trkpt lat="47.05054" lon="6.87637">
        <ele>957.25</ele>
        <time>2020-06-27T08:11:36.839Z</time>
      </trkpt>
      <trkpt lat="47.05058" lon="6.87637">
        <ele>956.81</ele>
        <time>2020-06-27T08:11:37.234Z</time>
      </trkpt>
      <trkpt lat="47.05063" lon="6.87637">
        <ele>956.33</ele>
        <time>2020-06-27T08:11:37.727Z</time>
      </trkpt>
      <trkpt lat="47.05072" lon="6.87636">
        <ele>955.3</ele>
        <time>2020-06-27T08:11:38.618Z</time>
      </trkpt>
      <trkpt lat="47.05079" lon="6.87636">
        <ele>954.52</ele>
        <time>2020-06-27T08:11:39.310Z</time>
      </trkpt>
      <trkpt lat="47.05087" lon="6.87637">
        <ele>953.92</ele>
        <time>2020-06-27T08:11:40.102Z</time>
      </trkpt>
      <trkpt lat="47.05089" lon="6.87633">
        <ele>953.82</ele>
        <time>2020-06-27T08:11:40.527Z</time>
      </trkpt>
      <trkpt lat="47.05093" lon="6.87629">
        <ele>953.5</ele>
        <time>2020-06-27T08:11:40.967Z</time>
      </trkpt>
      <trkpt lat="47.05103" lon="6.87625">
        <ele>953.54</ele>
        <time>2020-06-27T08:11:43.307Z</time>
      </trkpt>
      <trkpt lat="47.0511" lon="6.87624">
        <ele>954</ele>
        <time>2020-06-27T08:11:46.287Z</time>
      </trkpt>
      <trkpt lat="47.05127" lon="6.87621">
        <ele>956.42</ele>
        <time>2020-06-27T08:12:00.673Z</time>
      </trkpt>
      <trkpt lat="47.05141" lon="6.8762">
        <ele>958.73</ele>
        <time>2020-06-27T08:12:12.449Z</time>
      </trkpt>
      <trkpt lat="47.05197" lon="6.87623">
        <ele>963.33</ele>
        <time>2020-06-27T08:12:39.474Z</time>
      </trkpt>
      <trkpt lat="47.05209" lon="6.87622">
        <ele>963.31</ele>
        <time>2020-06-27T08:12:42.027Z</time>
      </trkpt>
      <trkpt lat="47.05221" lon="6.87622">
        <ele>962.99</ele>
        <time>2020-06-27T08:12:43.585Z</time>
      </trkpt>
      <trkpt lat="47.05227" lon="6.87623">
        <ele>962.61</ele>
        <time>2020-06-27T08:12:44.147Z</time>
      </trkpt>
      <trkpt lat="47.0523" lon="6.87624">
        <ele>962.35</ele>
        <time>2020-06-27T08:12:44.450Z</time>
      </trkpt>
      <trkpt lat="47.05229" lon="6.87624">
        <ele>962.35</ele>
        <time>2020-06-27T08:12:44.668Z</time>
      </trkpt>
      <trkpt lat="47.05241" lon="6.87628">
        <ele>962.09</ele>
        <time>2020-06-27T08:12:46.368Z</time>
      </trkpt>
      <trkpt lat="47.05279" lon="6.87644">
        <ele>960.87</ele>
        <time>2020-06-27T08:12:51.275Z</time>
      </trkpt>
      <trkpt lat="47.05305" lon="6.87655">
        <ele>962.52</ele>
        <time>2020-06-27T08:13:02.380Z</time>
      </trkpt>
      <trkpt lat="47.05321" lon="6.87661">
        <ele>963.35</ele>
        <time>2020-06-27T08:13:08.680Z</time>
      </trkpt>
      <trkpt lat="47.05345" lon="6.87672">
        <ele>965.62</ele>
        <time>2020-06-27T08:13:21.691Z</time>
      </trkpt>
      <trkpt lat="47.05347" lon="6.87673">
        <ele>965.62</ele>
        <time>2020-06-27T08:13:22.151Z</time>
      </trkpt>
      <trkpt lat="47.05351" lon="6.87677">
        <ele>965.62</ele>
        <time>2020-06-27T08:13:23.205Z</time>
      </trkpt>
      <trkpt lat="47.05362" lon="6.87691">
        <ele>965</ele>
        <time>2020-06-27T08:13:24.816Z</time>
      </trkpt>
      <trkpt lat="47.05367" lon="6.87695">
        <ele>965</ele>
        <time>2020-06-27T08:13:26.056Z</time>
      </trkpt>
      <trkpt lat="47.05377" lon="6.87699">
        <ele>965.24</ele>
        <time>2020-06-27T08:13:28.922Z</time>
      </trkpt>
      <trkpt lat="47.0538" lon="6.87702">
        <ele>965.62</ele>
        <time>2020-06-27T08:13:31.076Z</time>
      </trkpt>
      <trkpt lat="47.05384" lon="6.87704">
        <ele>966.44</ele>
        <time>2020-06-27T08:13:34.627Z</time>
      </trkpt>
      <trkpt lat="47.05388" lon="6.87705">
        <ele>967.17</ele>
        <time>2020-06-27T08:13:38.036Z</time>
      </trkpt>
      <trkpt lat="47.05392" lon="6.87706">
        <ele>967.47</ele>
        <time>2020-06-27T08:13:39.869Z</time>
      </trkpt>
      <trkpt lat="47.05396" lon="6.87708">
        <ele>968.17</ele>
        <time>2020-06-27T08:13:43.419Z</time>
      </trkpt>
      <trkpt lat="47.054" lon="6.8771">
        <ele>968.67</ele>
        <time>2020-06-27T08:13:46.333Z</time>
      </trkpt>
      <trkpt lat="47.05407" lon="6.87714">
        <ele>969.52</ele>
        <time>2020-06-27T08:13:51.214Z</time>
      </trkpt>
      <trkpt lat="47.05412" lon="6.87719">
        <ele>969.37</ele>
        <time>2020-06-27T08:13:52.015Z</time>
      </trkpt>
      <trkpt lat="47.0542" lon="6.87726">
        <ele>970.3</ele>
        <time>2020-06-27T08:13:57.283Z</time>
      </trkpt>
      <trkpt lat="47.05427" lon="6.8773">
        <ele>970.92</ele>
        <time>2020-06-27T08:14:00.920Z</time>
      </trkpt>
      <trkpt lat="47.0543" lon="6.87733">
        <ele>971.23</ele>
        <time>2020-06-27T08:14:02.720Z</time>
      </trkpt>
      <trkpt lat="47.05434" lon="6.87738">
        <ele>971.85</ele>
        <time>2020-06-27T08:14:06.329Z</time>
      </trkpt>
      <trkpt lat="47.05439" lon="6.87744">
        <ele>972.33</ele>
        <time>2020-06-27T08:14:09.255Z</time>
      </trkpt>
      <trkpt lat="47.05453" lon="6.8776">
        <ele>973.92</ele>
        <time>2020-06-27T08:14:18.382Z</time>
      </trkpt>
      <trkpt lat="47.05463" lon="6.87774">
        <ele>975.7</ele>
        <time>2020-06-27T08:14:29.264Z</time>
      </trkpt>
      <trkpt lat="47.05482" lon="6.87797">
        <ele>977.42</ele>
        <time>2020-06-27T08:14:40.046Z</time>
      </trkpt>
      <trkpt lat="47.05488" lon="6.87804">
        <ele>977.72</ele>
        <time>2020-06-27T08:14:42.649Z</time>
      </trkpt>
      <trkpt lat="47.0549" lon="6.87806">
        <ele>977.8</ele>
        <time>2020-06-27T08:14:43.405Z</time>
      </trkpt>
      <trkpt lat="47.05494" lon="6.87812">
        <ele>977.91</ele>
        <time>2020-06-27T08:14:44.917Z</time>
      </trkpt>
      <trkpt lat="47.05529" lon="6.87857">
        <ele>976.47</ele>
        <time>2020-06-27T08:14:50.687Z</time>
      </trkpt>
      <trkpt lat="47.05536" lon="6.87866">
        <ele>977.25</ele>
        <time>2020-06-27T08:14:55.241Z</time>
      </trkpt>
      <trkpt lat="47.05542" lon="6.87878">
        <ele>977.59</ele>
        <time>2020-06-27T08:14:58.428Z</time>
      </trkpt>
      <trkpt lat="47.05549" lon="6.87889">
        <ele>977.54</ele>
        <time>2020-06-27T08:15:00.507Z</time>
      </trkpt>
      <trkpt lat="47.05556" lon="6.87898">
        <ele>977.13</ele>
        <time>2020-06-27T08:15:01.523Z</time>
      </trkpt>
      <trkpt lat="47.0556" lon="6.87904">
        <ele>976.98</ele>
        <time>2020-06-27T08:15:02.269Z</time>
      </trkpt>
      <trkpt lat="47.05565" lon="6.87911">
        <ele>976.98</ele>
        <time>2020-06-27T08:15:03.774Z</time>
      </trkpt>
      <trkpt lat="47.05576" lon="6.8793">
        <ele>978.06</ele>
        <time>2020-06-27T08:15:10.875Z</time>
      </trkpt>
      <trkpt lat="47.05582" lon="6.87939">
        <ele>978.06</ele>
        <time>2020-06-27T08:15:12.744Z</time>
      </trkpt>
      <trkpt lat="47.05586" lon="6.87945">
        <ele>978.06</ele>
        <time>2020-06-27T08:15:13.990Z</time>
      </trkpt>
      <trkpt lat="47.05588" lon="6.87949">
        <ele>978.38</ele>
        <time>2020-06-27T08:15:15.810Z</time>
      </trkpt>
      <trkpt lat="47.0559" lon="6.87953">
        <ele>978.53</ele>
        <time>2020-06-27T08:15:17.050Z</time>
      </trkpt>
      <trkpt lat="47.05592" lon="6.87958">
        <ele>979</ele>
        <time>2020-06-27T08:15:19.796Z</time>
      </trkpt>
      <trkpt lat="47.05594" lon="6.87966">
        <ele>978.51</ele>
        <time>2020-06-27T08:15:20.369Z</time>
      </trkpt>
      <trkpt lat="47.05593" lon="6.87969">
        <ele>978.43</ele>
        <time>2020-06-27T08:15:20.639Z</time>
      </trkpt>
      <trkpt lat="47.05592" lon="6.87975">
        <ele>977.91</ele>
        <time>2020-06-27T08:15:21.055Z</time>
      </trkpt>
      <trkpt lat="47.05593" lon="6.87983">
        <ele>977.6</ele>
        <time>2020-06-27T08:15:21.600Z</time>
      </trkpt>
      <trkpt lat="47.05596" lon="6.88">
        <ele>976.38</ele>
        <time>2020-06-27T08:15:22.781Z</time>
      </trkpt>
      <trkpt lat="47.05604" lon="6.88033">
        <ele>974.17</ele>
        <time>2020-06-27T08:15:25.137Z</time>
      </trkpt>
      <trkpt lat="47.0561" lon="6.88056">
        <ele>972.3</ele>
        <time>2020-06-27T08:15:26.794Z</time>
      </trkpt>
      <trkpt lat="47.05614" lon="6.88068">
        <ele>971.66</ele>
        <time>2020-06-27T08:15:27.692Z</time>
      </trkpt>
      <trkpt lat="47.05614" lon="6.88067">
        <ele>971.66</ele>
        <time>2020-06-27T08:15:27.841Z</time>
      </trkpt>
      <trkpt lat="47.05615" lon="6.88072">
        <ele>971.02</ele>
        <time>2020-06-27T08:15:28.191Z</time>
      </trkpt>
      <trkpt lat="47.05618" lon="6.88086">
        <ele>969.55</ele>
        <time>2020-06-27T08:15:29.178Z</time>
      </trkpt>
      <trkpt lat="47.05617" lon="6.88101">
        <ele>967.98</ele>
        <time>2020-06-27T08:15:30.192Z</time>
      </trkpt>
      <trkpt lat="47.05616" lon="6.8813">
        <ele>964.28</ele>
        <time>2020-06-27T08:15:32.145Z</time>
      </trkpt>
      <trkpt lat="47.05617" lon="6.8815">
        <ele>962.08</ele>
        <time>2020-06-27T08:15:33.494Z</time>
      </trkpt>
      <trkpt lat="47.0562" lon="6.88161">
        <ele>960.83</ele>
        <time>2020-06-27T08:15:34.291Z</time>
      </trkpt>
      <trkpt lat="47.05624" lon="6.8817">
        <ele>959.51</ele>
        <time>2020-06-27T08:15:35.014Z</time>
      </trkpt>
      <trkpt lat="47.05632" lon="6.88182">
        <ele>957.54</ele>
        <time>2020-06-27T08:15:36.143Z</time>
      </trkpt>
      <trkpt lat="47.0564" lon="6.88192">
        <ele>955.85</ele>
        <time>2020-06-27T08:15:37.180Z</time>
      </trkpt>
      <trkpt lat="47.05647" lon="6.88201">
        <ele>954.45</ele>
        <time>2020-06-27T08:15:38.099Z</time>
      </trkpt>
      <trkpt lat="47.05649" lon="6.88206">
        <ele>954.35</ele>
        <time>2020-06-27T08:15:38.619Z</time>
      </trkpt>
      <trkpt lat="47.05651" lon="6.88211">
        <ele>954.18</ele>
        <time>2020-06-27T08:15:39.055Z</time>
      </trkpt>
      <trkpt lat="47.05651" lon="6.88218">
        <ele>953.67</ele>
        <time>2020-06-27T08:15:39.525Z</time>
      </trkpt>
      <trkpt lat="47.05645" lon="6.88245">
        <ele>951.18</ele>
        <time>2020-06-27T08:15:41.436Z</time>
      </trkpt>
      <trkpt lat="47.05638" lon="6.88255">
        <ele>950.08</ele>
        <time>2020-06-27T08:15:42.400Z</time>
      </trkpt>
      <trkpt lat="47.05649" lon="6.88267">
        <ele>950.62</ele>
        <time>2020-06-27T08:15:47.071Z</time>
      </trkpt>
      <trkpt lat="47.05662" lon="6.88285">
        <ele>953.17</ele>
        <time>2020-06-27T08:16:02.086Z</time>
      </trkpt>
      <trkpt lat="47.05676" lon="6.88303">
        <ele>954.84</ele>
        <time>2020-06-27T08:16:11.669Z</time>
      </trkpt>
      <trkpt lat="47.05675" lon="6.88303">
        <ele>954.84</ele>
        <time>2020-06-27T08:16:11.887Z</time>
      </trkpt>
      <trkpt lat="47.05678" lon="6.88306">
        <ele>956.5</ele>
        <time>2020-06-27T08:16:14.937Z</time>
      </trkpt>
      <trkpt lat="47.05697" lon="6.88334">
        <ele>957.88</ele>
        <time>2020-06-27T08:16:25.277Z</time>
      </trkpt>
      <trkpt lat="47.05715" lon="6.88363">
        <ele>958.66</ele>
        <time>2020-06-27T08:16:33.222Z</time>
      </trkpt>
      <trkpt lat="47.05731" lon="6.88386">
        <ele>959.45</ele>
        <time>2020-06-27T08:16:40.429Z</time>
      </trkpt>
      <trkpt lat="47.05754" lon="6.88421">
        <ele>960.63</ele>
        <time>2020-06-27T08:16:51.140Z</time>
      </trkpt>
      <trkpt lat="47.05768" lon="6.88442">
        <ele>961.02</ele>
        <time>2020-06-27T08:16:56.447Z</time>
      </trkpt>
      <trkpt lat="47.05772" lon="6.88448">
        <ele>961.13</ele>
        <time>2020-06-27T08:16:57.959Z</time>
      </trkpt>
      <trkpt lat="47.05783" lon="6.88494">
        <ele>957.3</ele>
        <time>2020-06-27T08:17:01.238Z</time>
      </trkpt>
      <trkpt lat="47.05794" lon="6.88538">
        <ele>953.04</ele>
        <time>2020-06-27T08:17:04.390Z</time>
      </trkpt>
      <trkpt lat="47.05799" lon="6.88557">
        <ele>951.39</ele>
        <time>2020-06-27T08:17:05.760Z</time>
      </trkpt>
      <trkpt lat="47.05805" lon="6.88583">
        <ele>949.11</ele>
        <time>2020-06-27T08:17:07.607Z</time>
      </trkpt>
      <trkpt lat="47.0581" lon="6.88595">
        <ele>948.21</ele>
        <time>2020-06-27T08:17:08.553Z</time>
      </trkpt>
      <trkpt lat="47.05815" lon="6.88604">
        <ele>947.38</ele>
        <time>2020-06-27T08:17:09.334Z</time>
      </trkpt>
      <trkpt lat="47.05821" lon="6.88615">
        <ele>946.85</ele>
        <time>2020-06-27T08:17:10.285Z</time>
      </trkpt>
      <trkpt lat="47.05821" lon="6.88614">
        <ele>946.85</ele>
        <time>2020-06-27T08:17:10.433Z</time>
      </trkpt>
      <trkpt lat="47.05822" lon="6.88616">
        <ele>946.32</ele>
        <time>2020-06-27T08:17:10.600Z</time>
      </trkpt>
      <trkpt lat="47.05828" lon="6.88627">
        <ele>945.35</ele>
        <time>2020-06-27T08:17:11.548Z</time>
      </trkpt>
      <trkpt lat="47.05837" lon="6.88646">
        <ele>943.76</ele>
        <time>2020-06-27T08:17:13.104Z</time>
      </trkpt>
      <trkpt lat="47.05841" lon="6.88659">
        <ele>942.55</ele>
        <time>2020-06-27T08:17:14.063Z</time>
      </trkpt>
      <trkpt lat="47.05846" lon="6.88676">
        <ele>941.3</ele>
        <time>2020-06-27T08:17:15.309Z</time>
      </trkpt>
      <trkpt lat="47.05847" lon="6.88689">
        <ele>940.32</ele>
        <time>2020-06-27T08:17:16.189Z</time>
      </trkpt>
      <trkpt lat="47.05847" lon="6.88706">
        <ele>939.28</ele>
        <time>2020-06-27T08:17:17.332Z</time>
      </trkpt>
      <trkpt lat="47.05846" lon="6.88732">
        <ele>937.98</ele>
        <time>2020-06-27T08:17:19.084Z</time>
      </trkpt>
      <trkpt lat="47.05847" lon="6.88751">
        <ele>936.85</ele>
        <time>2020-06-27T08:17:20.365Z</time>
      </trkpt>
      <trkpt lat="47.05849" lon="6.88765">
        <ele>935.71</ele>
        <time>2020-06-27T08:17:21.327Z</time>
      </trkpt>
      <trkpt lat="47.05857" lon="6.88791">
        <ele>933.58</ele>
        <time>2020-06-27T08:17:23.246Z</time>
      </trkpt>
      <trkpt lat="47.05862" lon="6.88813">
        <ele>932.3</ele>
        <time>2020-06-27T08:17:24.806Z</time>
      </trkpt>
      <trkpt lat="47.05867" lon="6.88833">
        <ele>930.61</ele>
        <time>2020-06-27T08:17:26.239Z</time>
      </trkpt>
      <trkpt lat="47.05873" lon="6.88858">
        <ele>928.76</ele>
        <time>2020-06-27T08:17:28.022Z</time>
      </trkpt>
      <trkpt lat="47.05878" lon="6.88878">
        <ele>927.17</ele>
        <time>2020-06-27T08:17:29.454Z</time>
      </trkpt>
      <trkpt lat="47.05888" lon="6.88899">
        <ele>925.89</ele>
        <time>2020-06-27T08:17:31.178Z</time>
      </trkpt>
      <trkpt lat="47.05893" lon="6.88907">
        <ele>925.69</ele>
        <time>2020-06-27T08:17:32.134Z</time>
      </trkpt>
      <trkpt lat="47.05897" lon="6.88914">
        <ele>925.48</ele>
        <time>2020-06-27T08:17:32.884Z</time>
      </trkpt>
      <trkpt lat="47.05901" lon="6.88919">
        <ele>925.37</ele>
        <time>2020-06-27T08:17:33.611Z</time>
      </trkpt>
      <trkpt lat="47.05904" lon="6.88926">
        <ele>924.97</ele>
        <time>2020-06-27T08:17:34.167Z</time>
      </trkpt>
      <trkpt lat="47.05906" lon="6.8893">
        <ele>924.69</ele>
        <time>2020-06-27T08:17:34.501Z</time>
      </trkpt>
      <trkpt lat="47.05906" lon="6.88933">
        <ele>924.54</ele>
        <time>2020-06-27T08:17:34.703Z</time>
      </trkpt>
      <trkpt lat="47.05906" lon="6.88937">
        <ele>924.44</ele>
        <time>2020-06-27T08:17:35.022Z</time>
      </trkpt>
      <trkpt lat="47.05902" lon="6.88943">
        <ele>923.41</ele>
        <time>2020-06-27T08:17:35.586Z</time>
      </trkpt>
      <trkpt lat="47.05899" lon="6.88944">
        <ele>922.82</ele>
        <time>2020-06-27T08:17:35.890Z</time>
      </trkpt>
      <trkpt lat="47.05892" lon="6.8894">
        <ele>921.64</ele>
        <time>2020-06-27T08:17:36.632Z</time>
      </trkpt>
      <trkpt lat="47.05871" lon="6.88925">
        <ele>917.28</ele>
        <time>2020-06-27T08:17:38.937Z</time>
      </trkpt>
      <trkpt lat="47.05841" lon="6.88908">
        <ele>911.45</ele>
        <time>2020-06-27T08:17:42.112Z</time>
      </trkpt>
      <trkpt lat="47.05838" lon="6.88907">
        <ele>910.5</ele>
        <time>2020-06-27T08:17:42.416Z</time>
      </trkpt>
      <trkpt lat="47.05838" lon="6.88906">
        <ele>910.5</ele>
        <time>2020-06-27T08:17:42.564Z</time>
      </trkpt>
      <trkpt lat="47.05831" lon="6.88904">
        <ele>909.54</ele>
        <time>2020-06-27T08:17:43.268Z</time>
      </trkpt>
      <trkpt lat="47.05789" lon="6.88884">
        <ele>901.91</ele>
        <time>2020-06-27T08:17:47.627Z</time>
      </trkpt>
      <trkpt lat="47.05779" lon="6.88879">
        <ele>899.9</ele>
        <time>2020-06-27T08:17:48.670Z</time>
      </trkpt>
      <trkpt lat="47.05773" lon="6.88875">
        <ele>899.06</ele>
        <time>2020-06-27T08:17:49.321Z</time>
      </trkpt>
      <trkpt lat="47.0576" lon="6.88865">
        <ele>898</ele>
        <time>2020-06-27T08:17:50.770Z</time>
      </trkpt>
      <trkpt lat="47.05751" lon="6.88861">
        <ele>896.75</ele>
        <time>2020-06-27T08:17:51.698Z</time>
      </trkpt>
      <trkpt lat="47.05759" lon="6.88872">
        <ele>897.22</ele>
        <time>2020-06-27T08:17:55.630Z</time>
      </trkpt>
      <trkpt lat="47.05772" lon="6.88888">
        <ele>897.22</ele>
        <time>2020-06-27T08:17:59.326Z</time>
      </trkpt>
      <trkpt lat="47.05776" lon="6.88895">
        <ele>897.32</ele>
        <time>2020-06-27T08:18:00.915Z</time>
      </trkpt>
      <trkpt lat="47.05785" lon="6.88913">
        <ele>897.51</ele>
        <time>2020-06-27T08:18:04.657Z</time>
      </trkpt>
      <trkpt lat="47.05796" lon="6.88933">
        <ele>897.6</ele>
        <time>2020-06-27T08:18:08.660Z</time>
      </trkpt>
      <trkpt lat="47.05805" lon="6.88948">
        <ele>897.6</ele>
        <time>2020-06-27T08:18:11.626Z</time>
      </trkpt>
      <trkpt lat="47.05804" lon="6.88948">
        <ele>897.6</ele>
        <time>2020-06-27T08:18:11.843Z</time>
      </trkpt>
      <trkpt lat="47.05808" lon="6.88953">
        <ele>897.6</ele>
        <time>2020-06-27T08:18:12.988Z</time>
      </trkpt>
      <trkpt lat="47.05832" lon="6.88987">
        <ele>897.6</ele>
        <time>2020-06-27T08:18:20.253Z</time>
      </trkpt>
      <trkpt lat="47.05849" lon="6.89012">
        <ele>897.6</ele>
        <time>2020-06-27T08:18:25.495Z</time>
      </trkpt>
      <trkpt lat="47.05859" lon="6.89025">
        <ele>897.7</ele>
        <time>2020-06-27T08:18:28.619Z</time>
      </trkpt>
      <trkpt lat="47.0586" lon="6.89057">
        <ele>895.43</ele>
        <time>2020-06-27T08:18:30.773Z</time>
      </trkpt>
      <trkpt lat="47.0586" lon="6.89069">
        <ele>894.31</ele>
        <time>2020-06-27T08:18:31.580Z</time>
      </trkpt>
      <trkpt lat="47.05858" lon="6.89096">
        <ele>891.11</ele>
        <time>2020-06-27T08:18:33.407Z</time>
      </trkpt>
      <trkpt lat="47.05857" lon="6.89111">
        <ele>889.51</ele>
        <time>2020-06-27T08:18:34.421Z</time>
      </trkpt>
      <trkpt lat="47.05851" lon="6.89136">
        <ele>886.71</ele>
        <time>2020-06-27T08:18:36.203Z</time>
      </trkpt>
      <trkpt lat="47.05844" lon="6.89166">
        <ele>882.71</ele>
        <time>2020-06-27T08:18:38.336Z</time>
      </trkpt>
      <trkpt lat="47.05841" lon="6.89174">
        <ele>881.52</ele>
        <time>2020-06-27T08:18:38.950Z</time>
      </trkpt>
      <trkpt lat="47.05848" lon="6.89203">
        <ele>881.59</ele>
        <time>2020-06-27T08:18:43.660Z</time>
      </trkpt>
      <trkpt lat="47.05858" lon="6.89241">
        <ele>881.94</ele>
        <time>2020-06-27T08:18:50.494Z</time>
      </trkpt>
      <trkpt lat="47.05874" lon="6.89289">
        <ele>883.03</ele>
        <time>2020-06-27T08:19:01.421Z</time>
      </trkpt>
      <trkpt lat="47.05878" lon="6.89305">
        <ele>883.14</ele>
        <time>2020-06-27T08:19:04.190Z</time>
      </trkpt>
      <trkpt lat="47.05877" lon="6.89305">
        <ele>883.14</ele>
        <time>2020-06-27T08:19:04.408Z</time>
      </trkpt>
      <trkpt lat="47.05878" lon="6.89308">
        <ele>883.24</ele>
        <time>2020-06-27T08:19:05.237Z</time>
      </trkpt>
      <trkpt lat="47.05886" lon="6.89339">
        <ele>884.44</ele>
        <time>2020-06-27T08:19:14.019Z</time>
      </trkpt>
      <trkpt lat="47.05889" lon="6.89362">
        <ele>884.94</ele>
        <time>2020-06-27T08:19:18.894Z</time>
      </trkpt>
      <trkpt lat="47.05893" lon="6.89387">
        <ele>884.85</ele>
        <time>2020-06-27T08:19:22.426Z</time>
      </trkpt>
      <trkpt lat="47.05906" lon="6.89426">
        <ele>884.49</ele>
        <time>2020-06-27T08:19:26.984Z</time>
      </trkpt>
      <trkpt lat="47.05909" lon="6.89432">
        <ele>884.29</ele>
        <time>2020-06-27T08:19:27.561Z</time>
      </trkpt>
      <trkpt lat="47.0592" lon="6.89452">
        <ele>884.22</ele>
        <time>2020-06-27T08:19:31.155Z</time>
      </trkpt>
      <trkpt lat="47.05942" lon="6.89487">
        <ele>883.41</ele>
        <time>2020-06-27T08:19:35.446Z</time>
      </trkpt>
      <trkpt lat="47.05948" lon="6.89497">
        <ele>883.11</ele>
        <time>2020-06-27T08:19:36.547Z</time>
      </trkpt>
      <trkpt lat="47.05992" lon="6.89567">
        <ele>880.36</ele>
        <time>2020-06-27T08:19:43.740Z</time>
      </trkpt>
      <trkpt lat="47.0602" lon="6.89612">
        <ele>878.57</ele>
        <time>2020-06-27T08:19:48.311Z</time>
      </trkpt>
      <trkpt lat="47.06028" lon="6.89624">
        <ele>879.31</ele>
        <time>2020-06-27T08:19:53.131Z</time>
      </trkpt>
      <trkpt lat="47.06045" lon="6.89643">
        <ele>879.23</ele>
        <time>2020-06-27T08:19:57.533Z</time>
      </trkpt>
      <trkpt lat="47.06067" lon="6.89664">
        <ele>879.43</ele>
        <time>2020-06-27T08:20:03.678Z</time>
      </trkpt>
      <trkpt lat="47.0609" lon="6.89687">
        <ele>879.64</ele>
        <time>2020-06-27T08:20:10.190Z</time>
      </trkpt>
      <trkpt lat="47.06107" lon="6.89704">
        <ele>879.91</ele>
        <time>2020-06-27T08:20:15.283Z</time>
      </trkpt>
      <trkpt lat="47.06106" lon="6.89704">
        <ele>879.91</ele>
        <time>2020-06-27T08:20:15.501Z</time>
      </trkpt>
      <trkpt lat="47.06124" lon="6.89722">
        <ele>880.19</ele>
        <time>2020-06-27T08:20:20.878Z</time>
      </trkpt>
      <trkpt lat="47.06131" lon="6.89728">
        <ele>880.19</ele>
        <time>2020-06-27T08:20:22.644Z</time>
      </trkpt>
      <trkpt lat="47.06144" lon="6.89749">
        <ele>880.63</ele>
        <time>2020-06-27T08:20:27.963Z</time>
      </trkpt>
      <trkpt lat="47.06148" lon="6.89758">
        <ele>880.5</ele>
        <time>2020-06-27T08:20:29.015Z</time>
      </trkpt>
      <trkpt lat="47.06154" lon="6.89771">
        <ele>881.19</ele>
        <time>2020-06-27T08:20:33.517Z</time>
      </trkpt>
      <trkpt lat="47.06185" lon="6.89844">
        <ele>879.16</ele>
        <time>2020-06-27T08:20:40.516Z</time>
      </trkpt>
      <trkpt lat="47.06189" lon="6.89866">
        <ele>876.5</ele>
        <time>2020-06-27T08:20:42.047Z</time>
      </trkpt>
      <trkpt lat="47.06195" lon="6.89896">
        <ele>872.56</ele>
        <time>2020-06-27T08:20:44.150Z</time>
      </trkpt>
      <trkpt lat="47.06202" lon="6.89934">
        <ele>867.54</ele>
        <time>2020-06-27T08:20:46.798Z</time>
      </trkpt>
      <trkpt lat="47.06205" lon="6.89968">
        <ele>863.81</ele>
        <time>2020-06-27T08:20:49.103Z</time>
      </trkpt>
      <trkpt lat="47.06205" lon="6.89989">
        <ele>861.57</ele>
        <time>2020-06-27T08:20:50.516Z</time>
      </trkpt>
      <trkpt lat="47.06203" lon="6.90006">
        <ele>859.76</ele>
        <time>2020-06-27T08:20:51.676Z</time>
      </trkpt>
      <trkpt lat="47.062" lon="6.90015">
        <ele>858.48</ele>
        <time>2020-06-27T08:20:52.350Z</time>
      </trkpt>
      <trkpt lat="47.06196" lon="6.90024">
        <ele>857.63</ele>
        <time>2020-06-27T08:20:53.072Z</time>
      </trkpt>
      <trkpt lat="47.06205" lon="6.90032">
        <ele>857.73</ele>
        <time>2020-06-27T08:20:55.583Z</time>
      </trkpt>
      <trkpt lat="47.06214" lon="6.90042">
        <ele>857.84</ele>
        <time>2020-06-27T08:20:58.282Z</time>
      </trkpt>
      <trkpt lat="47.06224" lon="6.90057">
        <ele>857.84</ele>
        <time>2020-06-27T08:21:01.397Z</time>
      </trkpt>
      <trkpt lat="47.0624" lon="6.90089">
        <ele>857.94</ele>
        <time>2020-06-27T08:21:07.493Z</time>
      </trkpt>
      <trkpt lat="47.06252" lon="6.9012">
        <ele>858</ele>
        <time>2020-06-27T08:21:12.906Z</time>
      </trkpt>
      <trkpt lat="47.06252" lon="6.90119">
        <ele>858</ele>
        <time>2020-06-27T08:21:13.055Z</time>
      </trkpt>
      <trkpt lat="47.06255" lon="6.90127">
        <ele>858.05</ele>
        <time>2020-06-27T08:21:14.517Z</time>
      </trkpt>
      <trkpt lat="47.06274" lon="6.90174">
        <ele>858.27</ele>
        <time>2020-06-27T08:21:23.091Z</time>
      </trkpt>
      <trkpt lat="47.06287" lon="6.90206">
        <ele>858.05</ele>
        <time>2020-06-27T08:21:27.187Z</time>
      </trkpt>
      <trkpt lat="47.06308" lon="6.90254">
        <ele>858.69</ele>
        <time>2020-06-27T08:21:37.155Z</time>
      </trkpt>
      <trkpt lat="47.0631" lon="6.90261">
        <ele>858.8</ele>
        <time>2020-06-27T08:21:38.554Z</time>
      </trkpt>
      <trkpt lat="47.0631" lon="6.90264">
        <ele>858.8</ele>
        <time>2020-06-27T08:21:38.999Z</time>
      </trkpt>
      <trkpt lat="47.0631" lon="6.90267">
        <ele>858.8</ele>
        <time>2020-06-27T08:21:39.444Z</time>
      </trkpt>
      <trkpt lat="47.06313" lon="6.90271">
        <ele>859.01</ele>
        <time>2020-06-27T08:21:41.007Z</time>
      </trkpt>
      <trkpt lat="47.06317" lon="6.90277">
        <ele>859.11</ele>
        <time>2020-06-27T08:21:42.490Z</time>
      </trkpt>
      <trkpt lat="47.0632" lon="6.90283">
        <ele>859.31</ele>
        <time>2020-06-27T08:21:44.219Z</time>
      </trkpt>
      <trkpt lat="47.06332" lon="6.90316">
        <ele>860.25</ele>
        <time>2020-06-27T08:21:52.602Z</time>
      </trkpt>
      <trkpt lat="47.06349" lon="6.90363">
        <ele>861.28</ele>
        <time>2020-06-27T08:22:03.276Z</time>
      </trkpt>
      <trkpt lat="47.06367" lon="6.90411">
        <ele>861.74</ele>
        <time>2020-06-27T08:22:12.441Z</time>
      </trkpt>
      <trkpt lat="47.06383" lon="6.90455">
        <ele>862.54</ele>
        <time>2020-06-27T08:22:21.876Z</time>
      </trkpt>
      <trkpt lat="47.0639" lon="6.90481">
        <ele>862.49</ele>
        <time>2020-06-27T08:22:25.864Z</time>
      </trkpt>
      <trkpt lat="47.06397" lon="6.90502">
        <ele>862.38</ele>
        <time>2020-06-27T08:22:29.001Z</time>
      </trkpt>
      <trkpt lat="47.06401" lon="6.90516">
        <ele>862.32</ele>
        <time>2020-06-27T08:22:31.070Z</time>
      </trkpt>
      <trkpt lat="47.06415" lon="6.90555">
        <ele>862.59</ele>
        <time>2020-06-27T08:22:38.198Z</time>
      </trkpt>
      <trkpt lat="47.0642" lon="6.90577">
        <ele>862.65</ele>
        <time>2020-06-27T08:22:41.763Z</time>
      </trkpt>
      <trkpt lat="47.06428" lon="6.90617">
        <ele>863.06</ele>
        <time>2020-06-27T08:22:48.891Z</time>
      </trkpt>
      <trkpt lat="47.06437" lon="6.90657">
        <ele>863.1</ele>
        <time>2020-06-27T08:22:55.223Z</time>
      </trkpt>
      <trkpt lat="47.06442" lon="6.90687">
        <ele>863.14</ele>
        <time>2020-06-27T08:22:59.886Z</time>
      </trkpt>
      <trkpt lat="47.06442" lon="6.90686">
        <ele>863.14</ele>
        <time>2020-06-27T08:23:00.035Z</time>
      </trkpt>
      <trkpt lat="47.06443" lon="6.90692">
        <ele>863.19</ele>
        <time>2020-06-27T08:23:01.063Z</time>
      </trkpt>
      <trkpt lat="47.0645" lon="6.90723">
        <ele>863.32</ele>
        <time>2020-06-27T08:23:06.183Z</time>
      </trkpt>
      <trkpt lat="47.06453" lon="6.90736">
        <ele>863.78</ele>
        <time>2020-06-27T08:23:09.726Z</time>
      </trkpt>
      <trkpt lat="47.06459" lon="6.90755">
        <ele>864.2</ele>
        <time>2020-06-27T08:23:13.980Z</time>
      </trkpt>
      <trkpt lat="47.06472" lon="6.90798">
        <ele>864.28</ele>
        <time>2020-06-27T08:23:21.124Z</time>
      </trkpt>
      <trkpt lat="47.06482" lon="6.90829">
        <ele>864.21</ele>
        <time>2020-06-27T08:23:25.990Z</time>
      </trkpt>
      <trkpt lat="47.06485" lon="6.90838">
        <ele>864.42</ele>
        <time>2020-06-27T08:23:28.060Z</time>
      </trkpt>
      <trkpt lat="47.06494" lon="6.90858">
        <ele>864.96</ele>
        <time>2020-06-27T08:23:33.162Z</time>
      </trkpt>
      <trkpt lat="47.06499" lon="6.90872">
        <ele>865.27</ele>
        <time>2020-06-27T08:23:36.348Z</time>
      </trkpt>
      <trkpt lat="47.06506" lon="6.90894">
        <ele>865.47</ele>
        <time>2020-06-27T08:23:40.399Z</time>
      </trkpt>
      <trkpt lat="47.06512" lon="6.90921">
        <ele>865.21</ele>
        <time>2020-06-27T08:23:43.332Z</time>
      </trkpt>
      <trkpt lat="47.06519" lon="6.90948">
        <ele>865.49</ele>
        <time>2020-06-27T08:23:48.261Z</time>
      </trkpt>
      <trkpt lat="47.06528" lon="6.9097">
        <ele>866.07</ele>
        <time>2020-06-27T08:23:53.731Z</time>
      </trkpt>
      <trkpt lat="47.06536" lon="6.90993">
        <ele>866.37</ele>
        <time>2020-06-27T08:23:58.272Z</time>
      </trkpt>
      <trkpt lat="47.06544" lon="6.91023">
        <ele>864.88</ele>
        <time>2020-06-27T08:24:00.439Z</time>
      </trkpt>
      <trkpt lat="47.06553" lon="6.91067">
        <ele>861.9</ele>
        <time>2020-06-27T08:24:03.528Z</time>
      </trkpt>
      <trkpt lat="47.06556" lon="6.91084">
        <ele>860.21</ele>
        <time>2020-06-27T08:24:04.709Z</time>
      </trkpt>
      <trkpt lat="47.06564" lon="6.91119">
        <ele>857.63</ele>
        <time>2020-06-27T08:24:07.192Z</time>
      </trkpt>
      <trkpt lat="47.06574" lon="6.91197">
        <ele>852.75</ele>
        <time>2020-06-27T08:24:12.529Z</time>
      </trkpt>
      <trkpt lat="47.06583" lon="6.91234">
        <ele>849.98</ele>
        <time>2020-06-27T08:24:15.171Z</time>
      </trkpt>
      <trkpt lat="47.06591" lon="6.91286">
        <ele>846.62</ele>
        <time>2020-06-27T08:24:18.756Z</time>
      </trkpt>
      <trkpt lat="47.06592" lon="6.91293">
        <ele>846.12</ele>
        <time>2020-06-27T08:24:19.237Z</time>
      </trkpt>
      <trkpt lat="47.06592" lon="6.91292">
        <ele>846.12</ele>
        <time>2020-06-27T08:24:19.386Z</time>
      </trkpt>
      <trkpt lat="47.06593" lon="6.91299">
        <ele>845.63</ele>
        <time>2020-06-27T08:24:19.866Z</time>
      </trkpt>
      <trkpt lat="47.06597" lon="6.91314">
        <ele>844.63</ele>
        <time>2020-06-27T08:24:20.950Z</time>
      </trkpt>
      <trkpt lat="47.06605" lon="6.91347">
        <ele>842.64</ele>
        <time>2020-06-27T08:24:23.305Z</time>
      </trkpt>
      <trkpt lat="47.06612" lon="6.91387">
        <ele>840.32</ele>
        <time>2020-06-27T08:24:26.083Z</time>
      </trkpt>
      <trkpt lat="47.06616" lon="6.91411">
        <ele>839.68</ele>
        <time>2020-06-27T08:24:28.027Z</time>
      </trkpt>
      <trkpt lat="47.0662" lon="6.91433">
        <ele>838.84</ele>
        <time>2020-06-27T08:24:29.576Z</time>
      </trkpt>
      <trkpt lat="47.06622" lon="6.91456">
        <ele>836.71</ele>
        <time>2020-06-27T08:24:31.136Z</time>
      </trkpt>
      <trkpt lat="47.06622" lon="6.9147">
        <ele>835.54</ele>
        <time>2020-06-27T08:24:32.077Z</time>
      </trkpt>
      <trkpt lat="47.06621" lon="6.9151">
        <ele>831.93</ele>
        <time>2020-06-27T08:24:34.769Z</time>
      </trkpt>
      <trkpt lat="47.06621" lon="6.91564">
        <ele>827.26</ele>
        <time>2020-06-27T08:24:38.400Z</time>
      </trkpt>
      <trkpt lat="47.0662" lon="6.91615">
        <ele>822.16</ele>
        <time>2020-06-27T08:24:41.831Z</time>
      </trkpt>
      <trkpt lat="47.06619" lon="6.91625">
        <ele>821.3</ele>
        <time>2020-06-27T08:24:42.511Z</time>
      </trkpt>
      <trkpt lat="47.06617" lon="6.91636">
        <ele>820.07</ele>
        <time>2020-06-27T08:24:43.277Z</time>
      </trkpt>
      <trkpt lat="47.06613" lon="6.91645">
        <ele>818.52</ele>
        <time>2020-06-27T08:24:43.999Z</time>
      </trkpt>
      <trkpt lat="47.06613" lon="6.91645">
        <ele>817.72</ele>
        <time>2020-06-27T08:24:43.999Z</time>
      </trkpt>
      <trkpt lat="47.06608" lon="6.91655">
        <ele>816.93</ele>
        <time>2020-06-27T08:24:44.833Z</time>
      </trkpt>
      <trkpt lat="47.06604" lon="6.91661">
        <ele>815.82</ele>
        <time>2020-06-27T08:24:45.398Z</time>
      </trkpt>
      <trkpt lat="47.06602" lon="6.91665">
        <ele>814.99</ele>
        <time>2020-06-27T08:24:45.732Z</time>
      </trkpt>
      <trkpt lat="47.06592" lon="6.91676">
        <ele>812.67</ele>
        <time>2020-06-27T08:24:46.965Z</time>
      </trkpt>
      <trkpt lat="47.06583" lon="6.91684">
        <ele>810.88</ele>
        <time>2020-06-27T08:24:48.004Z</time>
      </trkpt>
      <trkpt lat="47.06588" lon="6.91689">
        <ele>811.28</ele>
        <time>2020-06-27T08:24:50.580Z</time>
      </trkpt>
      <trkpt lat="47.06593" lon="6.91695">
        <ele>811.72</ele>
        <time>2020-06-27T08:24:53.372Z</time>
      </trkpt>
      <trkpt lat="47.06601" lon="6.91707">
        <ele>812.24</ele>
        <time>2020-06-27T08:24:57.602Z</time>
      </trkpt>
      <trkpt lat="47.06605" lon="6.91714">
        <ele>812.31</ele>
        <time>2020-06-27T08:24:59.113Z</time>
      </trkpt>
      <trkpt lat="47.0661" lon="6.91723">
        <ele>812.5</ele>
        <time>2020-06-27T08:25:01.323Z</time>
      </trkpt>
      <trkpt lat="47.06616" lon="6.91739">
        <ele>812.94</ele>
        <time>2020-06-27T08:25:05.331Z</time>
      </trkpt>
      <trkpt lat="47.06625" lon="6.91761">
        <ele>813.57</ele>
        <time>2020-06-27T08:25:11.015Z</time>
      </trkpt>
      <trkpt lat="47.06624" lon="6.91763">
        <ele>813.57</ele>
        <time>2020-06-27T08:25:11.383Z</time>
      </trkpt>
      <trkpt lat="47.06623" lon="6.91766">
        <ele>813.57</ele>
        <time>2020-06-27T08:25:11.879Z</time>
      </trkpt>
      <trkpt lat="47.06626" lon="6.91779">
        <ele>813.09</ele>
        <time>2020-06-27T08:25:12.835Z</time>
      </trkpt>
      <trkpt lat="47.06632" lon="6.91797">
        <ele>812.29</ele>
        <time>2020-06-27T08:25:14.150Z</time>
      </trkpt>
      <trkpt lat="47.06636" lon="6.91809">
        <ele>812.13</ele>
        <time>2020-06-27T08:25:15.461Z</time>
      </trkpt>
      <trkpt lat="47.06641" lon="6.91827">
        <ele>811.97</ele>
        <time>2020-06-27T08:25:17.504Z</time>
      </trkpt>
      <trkpt lat="47.06648" lon="6.9186">
        <ele>810.37</ele>
        <time>2020-06-27T08:25:19.828Z</time>
      </trkpt>
      <trkpt lat="47.06648" lon="6.91863">
        <ele>810.05</ele>
        <time>2020-06-27T08:25:20.030Z</time>
      </trkpt>
      <trkpt lat="47.06648" lon="6.91865">
        <ele>809.89</ele>
        <time>2020-06-27T08:25:20.164Z</time>
      </trkpt>
      <trkpt lat="47.06647" lon="6.91867">
        <ele>809.57</ele>
        <time>2020-06-27T08:25:20.331Z</time>
      </trkpt>
      <trkpt lat="47.06652" lon="6.91869">
        <ele>809.88</ele>
        <time>2020-06-27T08:25:22.440Z</time>
      </trkpt>
      <trkpt lat="47.06673" lon="6.91919">
        <ele>811.49</ele>
        <time>2020-06-27T08:25:36.243Z</time>
      </trkpt>
      <trkpt lat="47.06675" lon="6.91925">
        <ele>811.67</ele>
        <time>2020-06-27T08:25:37.797Z</time>
      </trkpt>
      <trkpt lat="47.06689" lon="6.91958">
        <ele>812.34</ele>
        <time>2020-06-27T08:25:45.306Z</time>
      </trkpt>
      <trkpt lat="47.06707" lon="6.91995">
        <ele>813</ele>
        <time>2020-06-27T08:25:53.688Z</time>
      </trkpt>
      <trkpt lat="47.06716" lon="6.92016">
        <ele>813</ele>
        <time>2020-06-27T08:25:57.369Z</time>
      </trkpt>
      <trkpt lat="47.0672" lon="6.92019">
        <ele>813</ele>
        <time>2020-06-27T08:25:58.347Z</time>
      </trkpt>
      <trkpt lat="47.06726" lon="6.92063">
        <ele>810.89</ele>
        <time>2020-06-27T08:26:01.365Z</time>
      </trkpt>
      <trkpt lat="47.06729" lon="6.92083">
        <ele>810.4</ele>
        <time>2020-06-27T08:26:03.023Z</time>
      </trkpt>
      <trkpt lat="47.06734" lon="6.92101">
        <ele>809.86</ele>
        <time>2020-06-27T08:26:04.513Z</time>
      </trkpt>
      <trkpt lat="47.06754" lon="6.92166">
        <ele>807.99</ele>
        <time>2020-06-27T08:26:10.100Z</time>
      </trkpt>
      <trkpt lat="47.06767" lon="6.92217">
        <ele>807.87</ele>
        <time>2020-06-27T08:26:17.797Z</time>
      </trkpt>
      <trkpt lat="47.06767" lon="6.92216">
        <ele>807.87</ele>
        <time>2020-06-27T08:26:17.946Z</time>
      </trkpt>
      <trkpt lat="47.06769" lon="6.92224">
        <ele>807.75</ele>
        <time>2020-06-27T08:26:18.752Z</time>
      </trkpt>
      <trkpt lat="47.06783" lon="6.92277">
        <ele>806.21</ele>
        <time>2020-06-27T08:26:23.150Z</time>
      </trkpt>
      <trkpt lat="47.06795" lon="6.92307">
        <ele>806.83</ele>
        <time>2020-06-27T08:26:29.939Z</time>
      </trkpt>
      <trkpt lat="47.06808" lon="6.92334">
        <ele>808.42</ele>
        <time>2020-06-27T08:26:39.855Z</time>
      </trkpt>
      <trkpt lat="47.06819" lon="6.9236">
        <ele>809.86</ele>
        <time>2020-06-27T08:26:48.929Z</time>
      </trkpt>
      <trkpt lat="47.06826" lon="6.92381">
        <ele>811.07</ele>
        <time>2020-06-27T08:26:56.239Z</time>
      </trkpt>
      <trkpt lat="47.06855" lon="6.92497">
        <ele>813.38</ele>
        <time>2020-06-27T08:27:20.729Z</time>
      </trkpt>
      <trkpt lat="47.06902" lon="6.92694">
        <ele>813.68</ele>
        <time>2020-06-27T08:27:52.308Z</time>
      </trkpt>
      <trkpt lat="47.06908" lon="6.92733">
        <ele>812.61</ele>
        <time>2020-06-27T08:27:55.415Z</time>
      </trkpt>
      <trkpt lat="47.06912" lon="6.92753">
        <ele>811.65</ele>
        <time>2020-06-27T08:27:56.817Z</time>
      </trkpt>
      <trkpt lat="47.06912" lon="6.92752">
        <ele>811.65</ele>
        <time>2020-06-27T08:27:56.965Z</time>
      </trkpt>
      <trkpt lat="47.06924" lon="6.9281">
        <ele>810.69</ele>
        <time>2020-06-27T08:28:02.531Z</time>
      </trkpt>
      <trkpt lat="47.06928" lon="6.92831">
        <ele>810.39</ele>
        <time>2020-06-27T08:28:04.605Z</time>
      </trkpt>
      <trkpt lat="47.06929" lon="6.92847">
        <ele>809.95</ele>
        <time>2020-06-27T08:28:05.843Z</time>
      </trkpt>
      <trkpt lat="47.06937" lon="6.92884">
        <ele>809.44</ele>
        <time>2020-06-27T08:28:09.574Z</time>
      </trkpt>
      <trkpt lat="47.06949" lon="6.92938">
        <ele>808.12</ele>
        <time>2020-06-27T08:28:14.219Z</time>
      </trkpt>
      <trkpt lat="47.0696" lon="6.92985">
        <ele>806.85</ele>
        <time>2020-06-27T08:28:18.149Z</time>
      </trkpt>
      <trkpt lat="47.06966" lon="6.93025">
        <ele>805.89</ele>
        <time>2020-06-27T08:28:21.488Z</time>
      </trkpt>
      <trkpt lat="47.06969" lon="6.93036">
        <ele>805.57</ele>
        <time>2020-06-27T08:28:22.406Z</time>
      </trkpt>
      <trkpt lat="47.06966" lon="6.9305">
        <ele>803.97</ele>
        <time>2020-06-27T08:28:23.393Z</time>
      </trkpt>
      <trkpt lat="47.06963" lon="6.93058">
        <ele>802.85</ele>
        <time>2020-06-27T08:28:24.007Z</time>
      </trkpt>
      <trkpt lat="47.06959" lon="6.93063">
        <ele>802.08</ele>
        <time>2020-06-27T08:28:24.526Z</time>
      </trkpt>
      <trkpt lat="47.06954" lon="6.93069">
        <ele>800.95</ele>
        <time>2020-06-27T08:28:25.163Z</time>
      </trkpt>
      <trkpt lat="47.06967" lon="6.93114">
        <ele>802.6</ele>
        <time>2020-06-27T08:28:37.807Z</time>
      </trkpt>
      <trkpt lat="47.06976" lon="6.93141">
        <ele>804</ele>
        <time>2020-06-27T08:28:46.673Z</time>
      </trkpt>
      <trkpt lat="47.06993" lon="6.9318">
        <ele>806.53</ele>
        <time>2020-06-27T08:29:01.650Z</time>
      </trkpt>
      <trkpt lat="47.07018" lon="6.93226">
        <ele>810.67</ele>
        <time>2020-06-27T08:29:25.106Z</time>
      </trkpt>
      <trkpt lat="47.07032" lon="6.93246">
        <ele>812.4</ele>
        <time>2020-06-27T08:29:35.062Z</time>
      </trkpt>
      <trkpt lat="47.07039" lon="6.93257">
        <ele>813.08</ele>
        <time>2020-06-27T08:29:39.434Z</time>
      </trkpt>
      <trkpt lat="47.07047" lon="6.93272">
        <ele>814.04</ele>
        <time>2020-06-27T08:29:45.298Z</time>
      </trkpt>
      <trkpt lat="47.07047" lon="6.93293">
        <ele>814.08</ele>
        <time>2020-06-27T08:29:48.496Z</time>
      </trkpt>
      <trkpt lat="47.07048" lon="6.93297">
        <ele>813.85</ele>
        <time>2020-06-27T08:29:48.782Z</time>
      </trkpt>
      <trkpt lat="47.07048" lon="6.93302">
        <ele>813.67</ele>
        <time>2020-06-27T08:29:49.126Z</time>
      </trkpt>
      <trkpt lat="47.07058" lon="6.93326">
        <ele>813.83</ele>
        <time>2020-06-27T08:29:53.646Z</time>
      </trkpt>
      <trkpt lat="47.07071" lon="6.93358">
        <ele>815.03</ele>
        <time>2020-06-27T08:30:03.143Z</time>
      </trkpt>
      <trkpt lat="47.07079" lon="6.93379">
        <ele>815.34</ele>
        <time>2020-06-27T08:30:07.460Z</time>
      </trkpt>
      <trkpt lat="47.07079" lon="6.93378">
        <ele>815.34</ele>
        <time>2020-06-27T08:30:07.609Z</time>
      </trkpt>
      <trkpt lat="47.07083" lon="6.93389">
        <ele>815.66</ele>
        <time>2020-06-27T08:30:10.434Z</time>
      </trkpt>
      <trkpt lat="47.07114" lon="6.93465">
        <ele>817.69</ele>
        <time>2020-06-27T08:30:29.431Z</time>
      </trkpt>
      <trkpt lat="47.07117" lon="6.93475">
        <ele>817.65</ele>
        <time>2020-06-27T08:30:30.928Z</time>
      </trkpt>
      <trkpt lat="47.0712" lon="6.93487">
        <ele>817.5</ele>
        <time>2020-06-27T08:30:32.188Z</time>
      </trkpt>
      <trkpt lat="47.07121" lon="6.93494">
        <ele>817.3</ele>
        <time>2020-06-27T08:30:32.734Z</time>
      </trkpt>
      <trkpt lat="47.07121" lon="6.935">
        <ele>816.78</ele>
        <time>2020-06-27T08:30:33.138Z</time>
      </trkpt>
      <trkpt lat="47.07121" lon="6.93507">
        <ele>816.36</ele>
        <time>2020-06-27T08:30:33.609Z</time>
      </trkpt>
      <trkpt lat="47.0712" lon="6.93514">
        <ele>815.95</ele>
        <time>2020-06-27T08:30:34.089Z</time>
      </trkpt>
      <trkpt lat="47.07119" lon="6.93519">
        <ele>815.38</ele>
        <time>2020-06-27T08:30:34.440Z</time>
      </trkpt>
      <trkpt lat="47.07117" lon="6.93525">
        <ele>814.72</ele>
        <time>2020-06-27T08:30:34.889Z</time>
      </trkpt>
      <trkpt lat="47.07115" lon="6.93528">
        <ele>814.41</ele>
        <time>2020-06-27T08:30:35.171Z</time>
      </trkpt>
      <trkpt lat="47.07113" lon="6.93531">
        <ele>813.79</ele>
        <time>2020-06-27T08:30:35.454Z</time>
      </trkpt>
      <trkpt lat="47.07111" lon="6.93532">
        <ele>813.53</ele>
        <time>2020-06-27T08:30:35.662Z</time>
      </trkpt>
      <trkpt lat="47.07109" lon="6.93532">
        <ele>813.05</ele>
        <time>2020-06-27T08:30:35.860Z</time>
      </trkpt>
      <trkpt lat="47.07105" lon="6.93531">
        <ele>812.36</ele>
        <time>2020-06-27T08:30:36.260Z</time>
      </trkpt>
      <trkpt lat="47.07103" lon="6.9353">
        <ele>811.9</ele>
        <time>2020-06-27T08:30:36.469Z</time>
      </trkpt>
      <trkpt lat="47.071" lon="6.93528">
        <ele>811.08</ele>
        <time>2020-06-27T08:30:36.794Z</time>
      </trkpt>
      <trkpt lat="47.07096" lon="6.93523">
        <ele>809.89</ele>
        <time>2020-06-27T08:30:37.313Z</time>
      </trkpt>
      <trkpt lat="47.07091" lon="6.93519">
        <ele>809.05</ele>
        <time>2020-06-27T08:30:37.875Z</time>
      </trkpt>
      <trkpt lat="47.07087" lon="6.93516">
        <ele>808.28</ele>
        <time>2020-06-27T08:30:38.318Z</time>
      </trkpt>
      <trkpt lat="47.07071" lon="6.93511">
        <ele>805.83</ele>
        <time>2020-06-27T08:30:39.933Z</time>
      </trkpt>
      <trkpt lat="47.07076" lon="6.93526">
        <ele>806.43</ele>
        <time>2020-06-27T08:30:44.345Z</time>
      </trkpt>
      <trkpt lat="47.07093" lon="6.93578">
        <ele>805.23</ele>
        <time>2020-06-27T08:30:49.238Z</time>
      </trkpt>
      <trkpt lat="47.07119" lon="6.93647">
        <ele>806.36</ele>
        <time>2020-06-27T08:31:03.729Z</time>
      </trkpt>
      <trkpt lat="47.07126" lon="6.93668">
        <ele>806.69</ele>
        <time>2020-06-27T08:31:08.010Z</time>
      </trkpt>
      <trkpt lat="47.07126" lon="6.93667">
        <ele>806.69</ele>
        <time>2020-06-27T08:31:08.159Z</time>
      </trkpt>
      <trkpt lat="47.07139" lon="6.93706">
        <ele>807.02</ele>
        <time>2020-06-27T08:31:15.334Z</time>
      </trkpt>
      <trkpt lat="47.07153" lon="6.9376">
        <ele>806.54</ele>
        <time>2020-06-27T08:31:21.396Z</time>
      </trkpt>
      <trkpt lat="47.07166" lon="6.93793">
        <ele>806.75</ele>
        <time>2020-06-27T08:31:27.504Z</time>
      </trkpt>
      <trkpt lat="47.07182" lon="6.93838">
        <ele>807.67</ele>
        <time>2020-06-27T08:31:37.462Z</time>
      </trkpt>
      <trkpt lat="47.07187" lon="6.93852">
        <ele>807.85</ele>
        <time>2020-06-27T08:31:40.231Z</time>
      </trkpt>
      <trkpt lat="47.07199" lon="6.93878">
        <ele>808.73</ele>
        <time>2020-06-27T08:31:47.708Z</time>
      </trkpt>
      <trkpt lat="47.0721" lon="6.93907">
        <ele>809.51</ele>
        <time>2020-06-27T08:31:54.908Z</time>
      </trkpt>
      <trkpt lat="47.07235" lon="6.93957">
        <ele>811.33</ele>
        <time>2020-06-27T08:32:10.108Z</time>
      </trkpt>
      <trkpt lat="47.07249" lon="6.93976">
        <ele>812.86</ele>
        <time>2020-06-27T08:32:19.165Z</time>
      </trkpt>
      <trkpt lat="47.07254" lon="6.9398">
        <ele>813.63</ele>
        <time>2020-06-27T08:32:23.949Z</time>
      </trkpt>
      <trkpt lat="47.07253" lon="6.9398">
        <ele>813.63</ele>
        <time>2020-06-27T08:32:24.166Z</time>
      </trkpt>
      <trkpt lat="47.07262" lon="6.93989">
        <ele>814.41</ele>
        <time>2020-06-27T08:32:28.999Z</time>
      </trkpt>
      <trkpt lat="47.07299" lon="6.94028">
        <ele>817.14</ele>
        <time>2020-06-27T08:32:47.555Z</time>
      </trkpt>
      <trkpt lat="47.07308" lon="6.94039">
        <ele>817.61</ele>
        <time>2020-06-27T08:32:51.588Z</time>
      </trkpt>
      <trkpt lat="47.07316" lon="6.94049">
        <ele>817.87</ele>
        <time>2020-06-27T08:32:54.548Z</time>
      </trkpt>
      <trkpt lat="47.07347" lon="6.94092">
        <ele>820.35</ele>
        <time>2020-06-27T08:33:11.707Z</time>
      </trkpt>
      <trkpt lat="47.07355" lon="6.94102">
        <ele>820.83</ele>
        <time>2020-06-27T08:33:15.599Z</time>
      </trkpt>
      <trkpt lat="47.07361" lon="6.94111">
        <ele>821.29</ele>
        <time>2020-06-27T08:33:18.945Z</time>
      </trkpt>
      <trkpt lat="47.07366" lon="6.94119">
        <ele>821.86</ele>
        <time>2020-06-27T08:33:22.369Z</time>
      </trkpt>
      <trkpt lat="47.07373" lon="6.94131">
        <ele>822.25</ele>
        <time>2020-06-27T08:33:25.878Z</time>
      </trkpt>
      <trkpt lat="47.0738" lon="6.94145">
        <ele>822.96</ele>
        <time>2020-06-27T08:33:30.700Z</time>
      </trkpt>
      <trkpt lat="47.07386" lon="6.94162">
        <ele>823.62</ele>
        <time>2020-06-27T08:33:35.686Z</time>
      </trkpt>
      <trkpt lat="47.07389" lon="6.94174">
        <ele>823.93</ele>
        <time>2020-06-27T08:33:38.501Z</time>
      </trkpt>
      <trkpt lat="47.07394" lon="6.94198">
        <ele>824.23</ele>
        <time>2020-06-27T08:33:42.937Z</time>
      </trkpt>
      <trkpt lat="47.07399" lon="6.94222">
        <ele>824.85</ele>
        <time>2020-06-27T08:33:48.513Z</time>
      </trkpt>
      <trkpt lat="47.07403" lon="6.94238">
        <ele>825.59</ele>
        <time>2020-06-27T08:33:53.372Z</time>
      </trkpt>
      <trkpt lat="47.07408" lon="6.94251">
        <ele>826.13</ele>
        <time>2020-06-27T08:33:57.325Z</time>
      </trkpt>
      <trkpt lat="47.07417" lon="6.94271">
        <ele>826.82</ele>
        <time>2020-06-27T08:34:03.127Z</time>
      </trkpt>
      <trkpt lat="47.07424" lon="6.94284">
        <ele>827.06</ele>
        <time>2020-06-27T08:34:06.180Z</time>
      </trkpt>
      <trkpt lat="47.07436" lon="6.94302">
        <ele>827.65</ele>
        <time>2020-06-27T08:34:11.636Z</time>
      </trkpt>
      <trkpt lat="47.07441" lon="6.94314">
        <ele>828.22</ele>
        <time>2020-06-27T08:34:15.527Z</time>
      </trkpt>
      <trkpt lat="47.07443" lon="6.9432">
        <ele>828.55</ele>
        <time>2020-06-27T08:34:17.560Z</time>
      </trkpt>
      <trkpt lat="47.07444" lon="6.94325">
        <ele>828.21</ele>
        <time>2020-06-27T08:34:17.910Z</time>
      </trkpt>
      <trkpt lat="47.07444" lon="6.94332">
        <ele>828.28</ele>
        <time>2020-06-27T08:34:19.110Z</time>
      </trkpt>
      <trkpt lat="47.07444" lon="6.94338">
        <ele>828.35</ele>
        <time>2020-06-27T08:34:20.166Z</time>
      </trkpt>
      <trkpt lat="47.07442" lon="6.94346">
        <ele>828.84</ele>
        <time>2020-06-27T08:34:23.020Z</time>
      </trkpt>
      <trkpt lat="47.07439" lon="6.94352">
        <ele>829.25</ele>
        <time>2020-06-27T08:34:25.441Z</time>
      </trkpt>
      <trkpt lat="47.07435" lon="6.9436">
        <ele>829.45</ele>
        <time>2020-06-27T08:34:27.460Z</time>
      </trkpt>
      <trkpt lat="47.07413" lon="6.94389">
        <ele>830.47</ele>
        <time>2020-06-27T08:34:36.875Z</time>
      </trkpt>
      <trkpt lat="47.07399" lon="6.94405">
        <ele>831.44</ele>
        <time>2020-06-27T08:34:43.846Z</time>
      </trkpt>
      <trkpt lat="47.07391" lon="6.94416">
        <ele>831.67</ele>
        <time>2020-06-27T08:34:46.802Z</time>
      </trkpt>
      <trkpt lat="47.07382" lon="6.94437">
        <ele>832.61</ele>
        <time>2020-06-27T08:34:53.484Z</time>
      </trkpt>
      <trkpt lat="47.07379" lon="6.94452">
        <ele>832.71</ele>
        <time>2020-06-27T08:34:56.022Z</time>
      </trkpt>
      <trkpt lat="47.07377" lon="6.94472">
        <ele>833.64</ele>
        <time>2020-06-27T08:35:01.946Z</time>
      </trkpt>
      <trkpt lat="47.07375" lon="6.94498">
        <ele>834.26</ele>
        <time>2020-06-27T08:35:07.644Z</time>
      </trkpt>
      <trkpt lat="47.07374" lon="6.94517">
        <ele>834.64</ele>
        <time>2020-06-27T08:35:11.507Z</time>
      </trkpt>
      <trkpt lat="47.07375" lon="6.94538">
        <ele>834.9</ele>
        <time>2020-06-27T08:35:15.252Z</time>
      </trkpt>
      <trkpt lat="47.07375" lon="6.94563">
        <ele>835.41</ele>
        <time>2020-06-27T08:35:20.363Z</time>
      </trkpt>
      <trkpt lat="47.07376" lon="6.9459">
        <ele>836.56</ele>
        <time>2020-06-27T08:35:28.000Z</time>
      </trkpt>
      <trkpt lat="47.07376" lon="6.94639">
        <ele>837.71</ele>
        <time>2020-06-27T08:35:38.622Z</time>
      </trkpt>
      <trkpt lat="47.0738" lon="6.94743">
        <ele>840.94</ele>
        <time>2020-06-27T08:36:04.873Z</time>
      </trkpt>
      <trkpt lat="47.07381" lon="6.94751">
        <ele>841.12</ele>
        <time>2020-06-27T08:36:06.591Z</time>
      </trkpt>
      <trkpt lat="47.07383" lon="6.94778">
        <ele>841.79</ele>
        <time>2020-06-27T08:36:12.620Z</time>
      </trkpt>
      <trkpt lat="47.07389" lon="6.94831">
        <ele>842.7</ele>
        <time>2020-06-27T08:36:22.942Z</time>
      </trkpt>
      <trkpt lat="47.07397" lon="6.9491">
        <ele>842.78</ele>
        <time>2020-06-27T08:36:34.952Z</time>
      </trkpt>
      <trkpt lat="47.07404" lon="6.94993">
        <ele>842.36</ele>
        <time>2020-06-27T08:36:44.309Z</time>
      </trkpt>
      <trkpt lat="47.07408" lon="6.95032">
        <ele>840.86</ele>
        <time>2020-06-27T08:36:46.955Z</time>
      </trkpt>
      <trkpt lat="47.07412" lon="6.95065">
        <ele>839.79</ele>
        <time>2020-06-27T08:36:49.384Z</time>
      </trkpt>
      <trkpt lat="47.07419" lon="6.95109">
        <ele>837.93</ele>
        <time>2020-06-27T08:36:52.305Z</time>
      </trkpt>
      <trkpt lat="47.07426" lon="6.95152">
        <ele>836.89</ele>
        <time>2020-06-27T08:36:55.905Z</time>
      </trkpt>
      <trkpt lat="47.07432" lon="6.95184">
        <ele>835.7</ele>
        <time>2020-06-27T08:36:58.193Z</time>
      </trkpt>
      <trkpt lat="47.07434" lon="6.95203">
        <ele>835.19</ele>
        <time>2020-06-27T08:36:59.692Z</time>
      </trkpt>
      <trkpt lat="47.07436" lon="6.95224">
        <ele>834.99</ele>
        <time>2020-06-27T08:37:01.870Z</time>
      </trkpt>
      <trkpt lat="47.07437" lon="6.95246">
        <ele>834.39</ele>
        <time>2020-06-27T08:37:03.573Z</time>
      </trkpt>
      <trkpt lat="47.07439" lon="6.9532">
        <ele>832.24</ele>
        <time>2020-06-27T08:37:09.151Z</time>
      </trkpt>
      <trkpt lat="47.07439" lon="6.95369">
        <ele>831.01</ele>
        <time>2020-06-27T08:37:13.050Z</time>
      </trkpt>
      <trkpt lat="47.07439" lon="6.95382">
        <ele>830.48</ele>
        <time>2020-06-27T08:37:13.894Z</time>
      </trkpt>
      <trkpt lat="47.0744" lon="6.95395">
        <ele>829.34</ele>
        <time>2020-06-27T08:37:14.774Z</time>
      </trkpt>
      <trkpt lat="47.07437" lon="6.95409">
        <ele>827.35</ele>
        <time>2020-06-27T08:37:15.761Z</time>
      </trkpt>
      <trkpt lat="47.07429" lon="6.9548">
        <ele>818.28</ele>
        <time>2020-06-27T08:37:20.599Z</time>
      </trkpt>
      <trkpt lat="47.07424" lon="6.95506">
        <ele>815.03</ele>
        <time>2020-06-27T08:37:22.416Z</time>
      </trkpt>
      <trkpt lat="47.07422" lon="6.95514">
        <ele>811.85</ele>
        <time>2020-06-27T08:37:22.989Z</time>
      </trkpt>
      <trkpt lat="47.07422" lon="6.95514">
        <ele>811.85</ele>
        <time>2020-06-27T08:37:22.989Z</time>
      </trkpt>
      <trkpt lat="47.07414" lon="6.95551">
        <ele>808.67</ele>
        <time>2020-06-27T08:37:25.599Z</time>
      </trkpt>
      <trkpt lat="47.07409" lon="6.95575">
        <ele>805.67</ele>
        <time>2020-06-27T08:37:27.287Z</time>
      </trkpt>
      <trkpt lat="47.07407" lon="6.9558">
        <ele>805.08</ele>
        <time>2020-06-27T08:37:27.676Z</time>
      </trkpt>
      <trkpt lat="47.07406" lon="6.95583">
        <ele>804.32</ele>
        <time>2020-06-27T08:37:27.901Z</time>
      </trkpt>
      <trkpt lat="47.07398" lon="6.95604">
        <ele>800.88</ele>
        <time>2020-06-27T08:37:29.519Z</time>
      </trkpt>
      <trkpt lat="47.07391" lon="6.95616">
        <ele>799.08</ele>
        <time>2020-06-27T08:37:30.581Z</time>
      </trkpt>
      <trkpt lat="47.07385" lon="6.95622">
        <ele>797.27</ele>
        <time>2020-06-27T08:37:31.298Z</time>
      </trkpt>
      <trkpt lat="47.07373" lon="6.95628">
        <ele>795.48</ele>
        <time>2020-06-27T08:37:32.549Z</time>
      </trkpt>
      <trkpt lat="47.0738" lon="6.9567">
        <ele>796.08</ele>
        <time>2020-06-27T08:37:40.436Z</time>
      </trkpt>
      <trkpt lat="47.07383" lon="6.95695">
        <ele>796.51</ele>
        <time>2020-06-27T08:37:45.313Z</time>
      </trkpt>
      <trkpt lat="47.07387" lon="6.95729">
        <ele>796.66</ele>
        <time>2020-06-27T08:37:50.749Z</time>
      </trkpt>
      <trkpt lat="47.07387" lon="6.95728">
        <ele>796.66</ele>
        <time>2020-06-27T08:37:50.897Z</time>
      </trkpt>
      <trkpt lat="47.0739" lon="6.95751">
        <ele>796.82</ele>
        <time>2020-06-27T08:37:54.723Z</time>
      </trkpt>
      <trkpt lat="47.07403" lon="6.95831">
        <ele>798.43</ele>
        <time>2020-06-27T08:38:11.284Z</time>
      </trkpt>
      <trkpt lat="47.0742" lon="6.95927">
        <ele>802.2</ele>
        <time>2020-06-27T08:38:38.032Z</time>
      </trkpt>
      <trkpt lat="47.07436" lon="6.95994">
        <ele>806.44</ele>
        <time>2020-06-27T08:39:02.487Z</time>
      </trkpt>
      <trkpt lat="47.07447" lon="6.96057">
        <ele>810.65</ele>
        <time>2020-06-27T08:39:26.422Z</time>
      </trkpt>
      <trkpt lat="47.07459" lon="6.96124">
        <ele>811.83</ele>
        <time>2020-06-27T08:39:39.753Z</time>
      </trkpt>
      <trkpt lat="47.07459" lon="6.96123">
        <ele>811.83</ele>
        <time>2020-06-27T08:39:39.902Z</time>
      </trkpt>
      <trkpt lat="47.07461" lon="6.96131">
        <ele>813</ele>
        <time>2020-06-27T08:39:44.778Z</time>
      </trkpt>
      <trkpt lat="47.07475" lon="6.96181">
        <ele>815.67</ele>
        <time>2020-06-27T08:40:01.228Z</time>
      </trkpt>
      <trkpt lat="47.07483" lon="6.96211">
        <ele>817.57</ele>
        <time>2020-06-27T08:40:12.221Z</time>
      </trkpt>
      <trkpt lat="47.07488" lon="6.96237">
        <ele>818.66</ele>
        <time>2020-06-27T08:40:19.680Z</time>
      </trkpt>
      <trkpt lat="47.07493" lon="6.96267">
        <ele>818.88</ele>
        <time>2020-06-27T08:40:24.747Z</time>
      </trkpt>
      <trkpt lat="47.07499" lon="6.963">
        <ele>820.34</ele>
        <time>2020-06-27T08:40:34.416Z</time>
      </trkpt>
      <trkpt lat="47.07508" lon="6.96339">
        <ele>822.03</ele>
        <time>2020-06-27T08:40:45.867Z</time>
      </trkpt>
      <trkpt lat="47.0751" lon="6.96355">
        <ele>822.44</ele>
        <time>2020-06-27T08:40:49.518Z</time>
      </trkpt>
      <trkpt lat="47.07514" lon="6.96379">
        <ele>822.83</ele>
        <time>2020-06-27T08:40:54.171Z</time>
      </trkpt>
      <trkpt lat="47.07521" lon="6.96411">
        <ele>822.66</ele>
        <time>2020-06-27T08:40:57.928Z</time>
      </trkpt>
      <trkpt lat="47.07528" lon="6.96438">
        <ele>823.11</ele>
        <time>2020-06-27T08:41:03.350Z</time>
      </trkpt>
      <trkpt lat="47.0754" lon="6.96477">
        <ele>823.29</ele>
        <time>2020-06-27T08:41:10.079Z</time>
      </trkpt>
      <trkpt lat="47.07554" lon="6.96514">
        <ele>824.07</ele>
        <time>2020-06-27T08:41:18.427Z</time>
      </trkpt>
      <trkpt lat="47.07555" lon="6.96517">
        <ele>824.5</ele>
        <time>2020-06-27T08:41:20.338Z</time>
      </trkpt>
      <trkpt lat="47.07554" lon="6.96521">
        <ele>824.5</ele>
        <time>2020-06-27T08:41:20.970Z</time>
      </trkpt>
      <trkpt lat="47.07566" lon="6.9654">
        <ele>826.65</ele>
        <time>2020-06-27T08:41:33.668Z</time>
      </trkpt>
      <trkpt lat="47.07582" lon="6.96569">
        <ele>829.22</ele>
        <time>2020-06-27T08:41:48.223Z</time>
      </trkpt>
      <trkpt lat="47.07582" lon="6.9657">
        <ele>829.95</ele>
        <time>2020-06-27T08:41:48.795Z</time>
      </trkpt>
      <trkpt lat="47.07582" lon="6.96569">
        <ele>829.95</ele>
        <time>2020-06-27T08:41:48.943Z</time>
      </trkpt>
      <trkpt lat="47.07588" lon="6.96581">
        <ele>830.69</ele>
        <time>2020-06-27T08:41:53.490Z</time>
      </trkpt>
      <trkpt lat="47.07599" lon="6.96598">
        <ele>833.16</ele>
        <time>2020-06-27T08:42:06.907Z</time>
      </trkpt>
      <trkpt lat="47.07606" lon="6.96606">
        <ele>834.75</ele>
        <time>2020-06-27T08:42:14.360Z</time>
      </trkpt>
      <trkpt lat="47.07615" lon="6.96611">
        <ele>835.82</ele>
        <time>2020-06-27T08:42:20.478Z</time>
      </trkpt>
      <trkpt lat="47.07636" lon="6.96622">
        <ele>839.3</ele>
        <time>2020-06-27T08:42:39.211Z</time>
      </trkpt>
      <trkpt lat="47.07639" lon="6.96631">
        <ele>839.47</ele>
        <time>2020-06-27T08:42:41.136Z</time>
      </trkpt>
      <trkpt lat="47.07657" lon="6.96653">
        <ele>840.8</ele>
        <time>2020-06-27T08:42:50.472Z</time>
      </trkpt>
      <trkpt lat="47.07665" lon="6.96664">
        <ele>841.23</ele>
        <time>2020-06-27T08:42:54.198Z</time>
      </trkpt>
      <trkpt lat="47.0768" lon="6.96688">
        <ele>842.22</ele>
        <time>2020-06-27T08:43:02.360Z</time>
      </trkpt>
      <trkpt lat="47.07682" lon="6.96693">
        <ele>842.18</ele>
        <time>2020-06-27T08:43:02.985Z</time>
      </trkpt>
      <trkpt lat="47.07696" lon="6.96719">
        <ele>841.65</ele>
        <time>2020-06-27T08:43:06.020Z</time>
      </trkpt>
      <trkpt lat="47.07709" lon="6.96746">
        <ele>840.06</ele>
        <time>2020-06-27T08:43:08.243Z</time>
      </trkpt>
      <trkpt lat="47.07719" lon="6.96767">
        <ele>839.52</ele>
        <time>2020-06-27T08:43:10.408Z</time>
      </trkpt>
      <trkpt lat="47.07719" lon="6.96766">
        <ele>839.52</ele>
        <time>2020-06-27T08:43:10.556Z</time>
      </trkpt>
      <trkpt lat="47.07722" lon="6.96772">
        <ele>838.98</ele>
        <time>2020-06-27T08:43:11.056Z</time>
      </trkpt>
      <trkpt lat="47.07727" lon="6.96782">
        <ele>838.5</ele>
        <time>2020-06-27T08:43:11.882Z</time>
      </trkpt>
      <trkpt lat="47.07742" lon="6.9681">
        <ele>836.75</ele>
        <time>2020-06-27T08:43:14.277Z</time>
      </trkpt>
      <trkpt lat="47.07749" lon="6.96827">
        <ele>835.65</ele>
        <time>2020-06-27T08:43:15.613Z</time>
      </trkpt>
      <trkpt lat="47.07753" lon="6.9684">
        <ele>834.89</ele>
        <time>2020-06-27T08:43:16.572Z</time>
      </trkpt>
      <trkpt lat="47.07756" lon="6.96852">
        <ele>834.2</ele>
        <time>2020-06-27T08:43:17.432Z</time>
      </trkpt>
      <trkpt lat="47.07758" lon="6.96863">
        <ele>833.76</ele>
        <time>2020-06-27T08:43:18.190Z</time>
      </trkpt>
      <trkpt lat="47.07758" lon="6.96873">
        <ele>833.29</ele>
        <time>2020-06-27T08:43:18.862Z</time>
      </trkpt>
      <trkpt lat="47.07757" lon="6.96886">
        <ele>832.71</ele>
        <time>2020-06-27T08:43:19.678Z</time>
      </trkpt>
      <trkpt lat="47.07754" lon="6.969">
        <ele>832.16</ele>
        <time>2020-06-27T08:43:20.669Z</time>
      </trkpt>
      <trkpt lat="47.07749" lon="6.96926">
        <ele>830.67</ele>
        <time>2020-06-27T08:43:22.485Z</time>
      </trkpt>
      <trkpt lat="47.07745" lon="6.96947">
        <ele>829.61</ele>
        <time>2020-06-27T08:43:23.952Z</time>
      </trkpt>
      <trkpt lat="47.07745" lon="6.96959">
        <ele>829.01</ele>
        <time>2020-06-27T08:43:24.758Z</time>
      </trkpt>
      <trkpt lat="47.07746" lon="6.96975">
        <ele>828.32</ele>
        <time>2020-06-27T08:43:25.776Z</time>
      </trkpt>
      <trkpt lat="47.07748" lon="6.96987">
        <ele>827.81</ele>
        <time>2020-06-27T08:43:26.573Z</time>
      </trkpt>
      <trkpt lat="47.07748" lon="6.96992">
        <ele>827.43</ele>
        <time>2020-06-27T08:43:26.909Z</time>
      </trkpt>
      <trkpt lat="47.07748" lon="6.96991">
        <ele>827.43</ele>
        <time>2020-06-27T08:43:27.058Z</time>
      </trkpt>
      <trkpt lat="47.0775" lon="6.97016">
        <ele>827.04</ele>
        <time>2020-06-27T08:43:29.382Z</time>
      </trkpt>
      <trkpt lat="47.07752" lon="6.97035">
        <ele>826.94</ele>
        <time>2020-06-27T08:43:31.525Z</time>
      </trkpt>
      <trkpt lat="47.07753" lon="6.97072">
        <ele>826.33</ele>
        <time>2020-06-27T08:43:34.888Z</time>
      </trkpt>
      <trkpt lat="47.07753" lon="6.97078">
        <ele>826.19</ele>
        <time>2020-06-27T08:43:35.378Z</time>
      </trkpt>
      <trkpt lat="47.07756" lon="6.97109">
        <ele>824.99</ele>
        <time>2020-06-27T08:43:37.472Z</time>
      </trkpt>
      <trkpt lat="47.07755" lon="6.97113">
        <ele>824.99</ele>
        <time>2020-06-27T08:43:38.104Z</time>
      </trkpt>
      <trkpt lat="47.07752" lon="6.97119">
        <ele>824.98</ele>
        <time>2020-06-27T08:43:39.175Z</time>
      </trkpt>
      <trkpt lat="47.0775" lon="6.97125">
        <ele>824.97</ele>
        <time>2020-06-27T08:43:40.134Z</time>
      </trkpt>
      <trkpt lat="47.07749" lon="6.9713">
        <ele>824.94</ele>
        <time>2020-06-27T08:43:40.709Z</time>
      </trkpt>
      <trkpt lat="47.07749" lon="6.97157">
        <ele>823.91</ele>
        <time>2020-06-27T08:43:42.518Z</time>
      </trkpt>
      <trkpt lat="47.07749" lon="6.97167">
        <ele>823.08</ele>
        <time>2020-06-27T08:43:43.190Z</time>
      </trkpt>
      <trkpt lat="47.07749" lon="6.97173">
        <ele>823.03</ele>
        <time>2020-06-27T08:43:43.819Z</time>
      </trkpt>
      <trkpt lat="47.0775" lon="6.97179">
        <ele>823.19</ele>
        <time>2020-06-27T08:43:45.225Z</time>
      </trkpt>
      <trkpt lat="47.07753" lon="6.97192">
        <ele>823.64</ele>
        <time>2020-06-27T08:43:48.743Z</time>
      </trkpt>
      <trkpt lat="47.07766" lon="6.97239">
        <ele>822.59</ele>
        <time>2020-06-27T08:43:53.052Z</time>
      </trkpt>
      <trkpt lat="47.07773" lon="6.9726">
        <ele>821.79</ele>
        <time>2020-06-27T08:43:54.697Z</time>
      </trkpt>
      <trkpt lat="47.07784" lon="6.97292">
        <ele>820.19</ele>
        <time>2020-06-27T08:43:56.923Z</time>
      </trkpt>
      <trkpt lat="47.07791" lon="6.97312">
        <ele>818.99</ele>
        <time>2020-06-27T08:43:58.435Z</time>
      </trkpt>
      <trkpt lat="47.07794" lon="6.97318">
        <ele>818.6</ele>
        <time>2020-06-27T08:43:58.936Z</time>
      </trkpt>
      <trkpt lat="47.07793" lon="6.97318">
        <ele>818.6</ele>
        <time>2020-06-27T08:43:59.153Z</time>
      </trkpt>
      <trkpt lat="47.07798" lon="6.97331">
        <ele>818.22</ele>
        <time>2020-06-27T08:44:00.335Z</time>
      </trkpt>
      <trkpt lat="47.07803" lon="6.97346">
        <ele>817.4</ele>
        <time>2020-06-27T08:44:01.458Z</time>
      </trkpt>
      <trkpt lat="47.07807" lon="6.97363">
        <ele>816.34</ele>
        <time>2020-06-27T08:44:02.668Z</time>
      </trkpt>
      <trkpt lat="47.07811" lon="6.97379">
        <ele>815.55</ele>
        <time>2020-06-27T08:44:03.813Z</time>
      </trkpt>
      <trkpt lat="47.07817" lon="6.97399">
        <ele>813.94</ele>
        <time>2020-06-27T08:44:05.283Z</time>
      </trkpt>
      <trkpt lat="47.07823" lon="6.97418">
        <ele>812.42</ele>
        <time>2020-06-27T08:44:06.691Z</time>
      </trkpt>
      <trkpt lat="47.07827" lon="6.9743">
        <ele>811.51</ele>
        <time>2020-06-27T08:44:07.589Z</time>
      </trkpt>
      <trkpt lat="47.0783" lon="6.97445">
        <ele>810.93</ele>
        <time>2020-06-27T08:44:08.650Z</time>
      </trkpt>
      <trkpt lat="47.07835" lon="6.97457">
        <ele>810.15</ele>
        <time>2020-06-27T08:44:09.596Z</time>
      </trkpt>
      <trkpt lat="47.07838" lon="6.97468">
        <ele>809.87</ele>
        <time>2020-06-27T08:44:10.559Z</time>
      </trkpt>
      <trkpt lat="47.07841" lon="6.97479">
        <ele>809.01</ele>
        <time>2020-06-27T08:44:11.356Z</time>
      </trkpt>
      <trkpt lat="47.07842" lon="6.97486">
        <ele>808.44</ele>
        <time>2020-06-27T08:44:11.837Z</time>
      </trkpt>
      <trkpt lat="47.07841" lon="6.9749">
        <ele>807.95</ele>
        <time>2020-06-27T08:44:12.123Z</time>
      </trkpt>
      <trkpt lat="47.07838" lon="6.97494">
        <ele>807.55</ele>
        <time>2020-06-27T08:44:12.523Z</time>
      </trkpt>
      <trkpt lat="47.07835" lon="6.97495">
        <ele>806.75</ele>
        <time>2020-06-27T08:44:12.827Z</time>
      </trkpt>
      <trkpt lat="47.07831" lon="6.97495">
        <ele>806.35</ele>
        <time>2020-06-27T08:44:13.222Z</time>
      </trkpt>
      <trkpt lat="47.07826" lon="6.97492">
        <ele>805.55</ele>
        <time>2020-06-27T08:44:13.755Z</time>
      </trkpt>
      <trkpt lat="47.07821" lon="6.97485">
        <ele>804.36</ele>
        <time>2020-06-27T08:44:14.437Z</time>
      </trkpt>
      <trkpt lat="47.07818" lon="6.97481">
        <ele>803.6</ele>
        <time>2020-06-27T08:44:14.837Z</time>
      </trkpt>
      <trkpt lat="47.07798" lon="6.9745">
        <ele>798.82</ele>
        <time>2020-06-27T08:44:17.708Z</time>
      </trkpt>
      <trkpt lat="47.07798" lon="6.97449">
        <ele>798.82</ele>
        <time>2020-06-27T08:44:17.856Z</time>
      </trkpt>
      <trkpt lat="47.07773" lon="6.97412">
        <ele>794.04</ele>
        <time>2020-06-27T08:44:21.361Z</time>
      </trkpt>
      <trkpt lat="47.07747" lon="6.97365">
        <ele>789.94</ele>
        <time>2020-06-27T08:44:25.432Z</time>
      </trkpt>
      <trkpt lat="47.07729" lon="6.97333">
        <ele>788.14</ele>
        <time>2020-06-27T08:44:28.047Z</time>
      </trkpt>
      <trkpt lat="47.07721" lon="6.97318">
        <ele>787.72</ele>
        <time>2020-06-27T08:44:29.633Z</time>
      </trkpt>
      <trkpt lat="47.07714" lon="6.97307">
        <ele>786.95</ele>
        <time>2020-06-27T08:44:30.645Z</time>
      </trkpt>
      <trkpt lat="47.07707" lon="6.97297">
        <ele>786.06</ele>
        <time>2020-06-27T08:44:31.609Z</time>
      </trkpt>
      <trkpt lat="47.07702" lon="6.9729">
        <ele>785.32</ele>
        <time>2020-06-27T08:44:32.291Z</time>
      </trkpt>
      <trkpt lat="47.07702" lon="6.97289">
        <ele>785.32</ele>
        <time>2020-06-27T08:44:32.440Z</time>
      </trkpt>
      <trkpt lat="47.07698" lon="6.97285">
        <ele>784.59</ele>
        <time>2020-06-27T08:44:32.918Z</time>
      </trkpt>
      <trkpt lat="47.07684" lon="6.97268">
        <ele>783.34</ele>
        <time>2020-06-27T08:44:34.711Z</time>
      </trkpt>
      <trkpt lat="47.07675" lon="6.97254">
        <ele>782.56</ele>
        <time>2020-06-27T08:44:35.965Z</time>
      </trkpt>
      <trkpt lat="47.07669" lon="6.97251">
        <ele>781.47</ele>
        <time>2020-06-27T08:44:36.591Z</time>
      </trkpt>
      <trkpt lat="47.07665" lon="6.97247">
        <ele>780.78</ele>
        <time>2020-06-27T08:44:37.069Z</time>
      </trkpt>
      <trkpt lat="47.07658" lon="6.97235">
        <ele>779.65</ele>
        <time>2020-06-27T08:44:38.131Z</time>
      </trkpt>
      <trkpt lat="47.0765" lon="6.97224">
        <ele>778.37</ele>
        <time>2020-06-27T08:44:39.213Z</time>
      </trkpt>
      <trkpt lat="47.07646" lon="6.9722">
        <ele>777.83</ele>
        <time>2020-06-27T08:44:39.691Z</time>
      </trkpt>
      <trkpt lat="47.07642" lon="6.97217">
        <ele>777.54</ele>
        <time>2020-06-27T08:44:40.104Z</time>
      </trkpt>
      <trkpt lat="47.07638" lon="6.97215">
        <ele>777.05</ele>
        <time>2020-06-27T08:44:40.521Z</time>
      </trkpt>
      <trkpt lat="47.07633" lon="6.97213">
        <ele>776.63</ele>
        <time>2020-06-27T08:44:41.032Z</time>
      </trkpt>
      <trkpt lat="47.07631" lon="6.97213">
        <ele>776.19</ele>
        <time>2020-06-27T08:44:41.230Z</time>
      </trkpt>
      <trkpt lat="47.07627" lon="6.97213">
        <ele>775.86</ele>
        <time>2020-06-27T08:44:41.625Z</time>
      </trkpt>
      <trkpt lat="47.07605" lon="6.97213">
        <ele>773.16</ele>
        <time>2020-06-27T08:44:43.797Z</time>
      </trkpt>
      <trkpt lat="47.07599" lon="6.97214">
        <ele>772.82</ele>
        <time>2020-06-27T08:44:44.389Z</time>
      </trkpt>
      <trkpt lat="47.07593" lon="6.97213">
        <ele>772.51</ele>
        <time>2020-06-27T08:44:45.007Z</time>
      </trkpt>
      <trkpt lat="47.07588" lon="6.97211">
        <ele>772.24</ele>
        <time>2020-06-27T08:44:45.534Z</time>
      </trkpt>
      <trkpt lat="47.07582" lon="6.97206">
        <ele>772.17</ele>
        <time>2020-06-27T08:44:46.626Z</time>
      </trkpt>
      <trkpt lat="47.07581" lon="6.97206">
        <ele>771.87</ele>
        <time>2020-06-27T08:44:46.724Z</time>
      </trkpt>
      <trkpt lat="47.07575" lon="6.972">
        <ele>771.65</ele>
        <time>2020-06-27T08:44:47.631Z</time>
      </trkpt>
      <trkpt lat="47.07565" lon="6.97189">
        <ele>771.28</ele>
        <time>2020-06-27T08:44:49.202Z</time>
      </trkpt>
      <trkpt lat="47.07554" lon="6.97178">
        <ele>770.51</ele>
        <time>2020-06-27T08:44:50.492Z</time>
      </trkpt>
      <trkpt lat="47.07533" lon="6.97159">
        <ele>768.16</ele>
        <time>2020-06-27T08:44:52.927Z</time>
      </trkpt>
      <trkpt lat="47.07525" lon="6.97151">
        <ele>767.49</ele>
        <time>2020-06-27T08:44:53.883Z</time>
      </trkpt>
      <trkpt lat="47.07524" lon="6.97151">
        <ele>767.49</ele>
        <time>2020-06-27T08:44:54.101Z</time>
      </trkpt>
      <trkpt lat="47.07521" lon="6.97148">
        <ele>766.82</ele>
        <time>2020-06-27T08:44:54.459Z</time>
      </trkpt>
      <trkpt lat="47.07516" lon="6.97144">
        <ele>766.24</ele>
        <time>2020-06-27T08:44:55.021Z</time>
      </trkpt>
      <trkpt lat="47.07501" lon="6.97135">
        <ele>764.42</ele>
        <time>2020-06-27T08:44:56.621Z</time>
      </trkpt>
      <trkpt lat="47.07493" lon="6.97144">
        <ele>763.25</ele>
        <time>2020-06-27T08:44:57.616Z</time>
      </trkpt>
      <trkpt lat="47.07482" lon="6.97155">
        <ele>761.76</ele>
        <time>2020-06-27T08:44:58.930Z</time>
      </trkpt>
      <trkpt lat="47.0747" lon="6.9717">
        <ele>761.06</ele>
        <time>2020-06-27T08:45:00.644Z</time>
      </trkpt>
      <trkpt lat="47.07461" lon="6.97153">
        <ele>760.65</ele>
        <time>2020-06-27T08:45:02.521Z</time>
      </trkpt>
      <trkpt lat="47.07452" lon="6.9714">
        <ele>760.34</ele>
        <time>2020-06-27T08:45:04.198Z</time>
      </trkpt>
      <trkpt lat="47.07445" lon="6.97128">
        <ele>759.99</ele>
        <time>2020-06-27T08:45:05.511Z</time>
      </trkpt>
      <trkpt lat="47.0744" lon="6.97121">
        <ele>759.73</ele>
        <time>2020-06-27T08:45:06.312Z</time>
      </trkpt>
      <trkpt lat="47.07438" lon="6.97117">
        <ele>759.66</ele>
        <time>2020-06-27T08:45:06.781Z</time>
      </trkpt>
      <trkpt lat="47.07437" lon="6.97117">
        <ele>759.66</ele>
        <time>2020-06-27T08:45:06.999Z</time>
      </trkpt>
      <trkpt lat="47.07433" lon="6.97111">
        <ele>759.58</ele>
        <time>2020-06-27T08:45:07.860Z</time>
      </trkpt>
      <trkpt lat="47.07427" lon="6.97104">
        <ele>759.33</ele>
        <time>2020-06-27T08:45:08.794Z</time>
      </trkpt>
      <trkpt lat="47.0742" lon="6.97096">
        <ele>759.04</ele>
        <time>2020-06-27T08:45:09.875Z</time>
      </trkpt>
      <trkpt lat="47.07413" lon="6.97089">
        <ele>758.92</ele>
        <time>2020-06-27T08:45:11.147Z</time>
      </trkpt>
      <trkpt lat="47.07404" lon="6.97081">
        <ele>758.49</ele>
        <time>2020-06-27T08:45:12.330Z</time>
      </trkpt>
      <trkpt lat="47.07403" lon="6.97081">
        <ele>758.49</ele>
        <time>2020-06-27T08:45:12.548Z</time>
      </trkpt>
      <trkpt lat="47.0738" lon="6.97059">
        <ele>758.07</ele>
        <time>2020-06-27T08:45:16.613Z</time>
      </trkpt>
      <trkpt lat="47.07371" lon="6.97049">
        <ele>757.84</ele>
        <time>2020-06-27T08:45:18.186Z</time>
      </trkpt>
      <trkpt lat="47.07365" lon="6.97042">
        <ele>757.72</ele>
        <time>2020-06-27T08:45:19.316Z</time>
      </trkpt>
      <trkpt lat="47.07364" lon="6.9704">
        <ele>757.57</ele>
        <time>2020-06-27T08:45:19.482Z</time>
      </trkpt>
      <trkpt lat="47.07363" lon="6.9704">
        <ele>757.57</ele>
        <time>2020-06-27T08:45:19.700Z</time>
      </trkpt>
      <trkpt lat="47.07356" lon="6.9703">
        <ele>757.42</ele>
        <time>2020-06-27T08:45:21.146Z</time>
      </trkpt>
      <trkpt lat="47.07351" lon="6.97023">
        <ele>757.24</ele>
        <time>2020-06-27T08:45:22.048Z</time>
      </trkpt>
      <trkpt lat="47.07343" lon="6.9701">
        <ele>757.09</ele>
        <time>2020-06-27T08:45:23.878Z</time>
      </trkpt>
      <trkpt lat="47.07343" lon="6.97009">
        <ele>757.09</ele>
        <time>2020-06-27T08:45:24.026Z</time>
      </trkpt>
      <trkpt lat="47.0734" lon="6.97005">
        <ele>756.94</ele>
        <time>2020-06-27T08:45:24.499Z</time>
      </trkpt>
      <trkpt lat="47.07335" lon="6.96995">
        <ele>756.83</ele>
        <time>2020-06-27T08:45:25.786Z</time>
      </trkpt>
      <trkpt lat="47.0733" lon="6.96985">
        <ele>756.67</ele>
        <time>2020-06-27T08:45:26.984Z</time>
      </trkpt>
      <trkpt lat="47.0733" lon="6.96984">
        <ele>756.67</ele>
        <time>2020-06-27T08:45:27.132Z</time>
      </trkpt>
      <trkpt lat="47.07328" lon="6.96979">
        <ele>756.51</ele>
        <time>2020-06-27T08:45:27.578Z</time>
      </trkpt>
      <trkpt lat="47.07326" lon="6.96974">
        <ele>756.56</ele>
        <time>2020-06-27T08:45:28.551Z</time>
      </trkpt>
      <trkpt lat="47.07325" lon="6.96967">
        <ele>756.46</ele>
        <time>2020-06-27T08:45:29.228Z</time>
      </trkpt>
      <trkpt lat="47.07323" lon="6.96967">
        <ele>756.42</ele>
        <time>2020-06-27T08:45:29.508Z</time>
      </trkpt>
      <trkpt lat="47.07321" lon="6.96968">
        <ele>756.52</ele>
        <time>2020-06-27T08:45:30.299Z</time>
      </trkpt>
      <trkpt lat="47.07318" lon="6.96967">
        <ele>756.52</ele>
        <time>2020-06-27T08:45:30.969Z</time>
      </trkpt>
      <trkpt lat="47.07315" lon="6.96964">
        <ele>756.52</ele>
        <time>2020-06-27T08:45:31.760Z</time>
      </trkpt>
      <trkpt lat="47.07302" lon="6.96949">
        <ele>755.78</ele>
        <time>2020-06-27T08:45:33.553Z</time>
      </trkpt>
      <trkpt lat="47.07302" lon="6.96948">
        <ele>755.78</ele>
        <time>2020-06-27T08:45:33.701Z</time>
      </trkpt>
      <trkpt lat="47.07248" lon="6.96887">
        <ele>755.03</ele>
        <time>2020-06-27T08:45:44.360Z</time>
      </trkpt>
      <trkpt lat="47.07217" lon="6.96848">
        <ele>754.24</ele>
        <time>2020-06-27T08:45:50.116Z</time>
      </trkpt>
      <trkpt lat="47.07211" lon="6.9684">
        <ele>754.09</ele>
        <time>2020-06-27T08:45:51.271Z</time>
      </trkpt>
      <trkpt lat="47.07197" lon="6.9682">
        <ele>753.76</ele>
        <time>2020-06-27T08:45:54.108Z</time>
      </trkpt>
      <trkpt lat="47.07186" lon="6.96803">
        <ele>753.49</ele>
        <time>2020-06-27T08:45:56.427Z</time>
      </trkpt>
      <trkpt lat="47.07177" lon="6.96784">
        <ele>753.07</ele>
        <time>2020-06-27T08:45:58.473Z</time>
      </trkpt>
      <trkpt lat="47.07167" lon="6.96763">
        <ele>752.72</ele>
        <time>2020-06-27T08:46:00.914Z</time>
      </trkpt>
      <trkpt lat="47.07157" lon="6.96739">
        <ele>752.36</ele>
        <time>2020-06-27T08:46:03.634Z</time>
      </trkpt>
      <trkpt lat="47.07149" lon="6.96716">
        <ele>752.03</ele>
        <time>2020-06-27T08:46:06.132Z</time>
      </trkpt>
      <trkpt lat="47.07139" lon="6.96687">
        <ele>751.73</ele>
        <time>2020-06-27T08:46:09.484Z</time>
      </trkpt>
      <trkpt lat="47.07133" lon="6.96665">
        <ele>751.46</ele>
        <time>2020-06-27T08:46:11.832Z</time>
      </trkpt>
      <trkpt lat="47.07127" lon="6.96638">
        <ele>750.66</ele>
        <time>2020-06-27T08:46:13.997Z</time>
      </trkpt>
      <trkpt lat="47.07123" lon="6.96615">
        <ele>750.14</ele>
        <time>2020-06-27T08:46:15.977Z</time>
      </trkpt>
      <trkpt lat="47.07121" lon="6.96595">
        <ele>749.88</ele>
        <time>2020-06-27T08:46:17.930Z</time>
      </trkpt>
      <trkpt lat="47.07121" lon="6.96581">
        <ele>749.65</ele>
        <time>2020-06-27T08:46:19.202Z</time>
      </trkpt>
      <trkpt lat="47.0712" lon="6.96553">
        <ele>749.33</ele>
        <time>2020-06-27T08:46:21.981Z</time>
      </trkpt>
      <trkpt lat="47.07116" lon="6.96554">
        <ele>749.33</ele>
        <time>2020-06-27T08:46:22.864Z</time>
      </trkpt>
      <trkpt lat="47.07113" lon="6.96555">
        <ele>749.44</ele>
        <time>2020-06-27T08:46:23.861Z</time>
      </trkpt>
      <trkpt lat="47.0711" lon="6.96556">
        <ele>749.55</ele>
        <time>2020-06-27T08:46:24.857Z</time>
      </trkpt>
      <trkpt lat="47.07092" lon="6.96571">
        <ele>750.31</ele>
        <time>2020-06-27T08:46:31.650Z</time>
      </trkpt>
      <trkpt lat="47.07088" lon="6.96574">
        <ele>750.42</ele>
        <time>2020-06-27T08:46:32.912Z</time>
      </trkpt>
      <trkpt lat="47.07072" lon="6.96587">
        <ele>751.16</ele>
        <time>2020-06-27T08:46:39.241Z</time>
      </trkpt>
      <trkpt lat="47.07072" lon="6.96587">
        <ele>751.16</ele>
        <time>2020-06-27T08:46:39.241Z</time>
      </trkpt>
      <trkpt lat="47.07064" lon="6.96593">
        <ele>751.9</ele>
        <time>2020-06-27T08:46:43.584Z</time>
      </trkpt>
      <trkpt lat="47.07041" lon="6.96611">
        <ele>754.02</ele>
        <time>2020-06-27T08:46:56.076Z</time>
      </trkpt>
      <trkpt lat="47.07024" lon="6.96627">
        <ele>756.38</ele>
        <time>2020-06-27T08:47:09.765Z</time>
      </trkpt>
      <trkpt lat="47.07009" lon="6.9664">
        <ele>758.43</ele>
        <time>2020-06-27T08:47:21.686Z</time>
      </trkpt>
      <trkpt lat="47.06995" lon="6.96655">
        <ele>760.61</ele>
        <time>2020-06-27T08:47:34.798Z</time>
      </trkpt>
      <trkpt lat="47.0696" lon="6.96695">
        <ele>766.61</ele>
        <time>2020-06-27T08:48:12.063Z</time>
      </trkpt>
      <trkpt lat="47.06937" lon="6.96726">
        <ele>770.66</ele>
        <time>2020-06-27T08:48:36.957Z</time>
      </trkpt>
      <trkpt lat="47.06917" lon="6.96755">
        <ele>773.27</ele>
        <time>2020-06-27T08:48:51.842Z</time>
      </trkpt>
      <trkpt lat="47.06917" lon="6.96756">
        <ele>773.27</ele>
        <time>2020-06-27T08:48:51.991Z</time>
      </trkpt>
      <trkpt lat="47.0691" lon="6.96767">
        <ele>775.89</ele>
        <time>2020-06-27T08:49:00.605Z</time>
      </trkpt>
      <trkpt lat="47.06887" lon="6.96806">
        <ele>780.58</ele>
        <time>2020-06-27T08:49:30.127Z</time>
      </trkpt>
      <trkpt lat="47.06864" lon="6.96847">
        <ele>785.48</ele>
        <time>2020-06-27T08:50:00.522Z</time>
      </trkpt>
      <trkpt lat="47.06838" lon="6.9689">
        <ele>789.7</ele>
        <time>2020-06-27T08:50:24.519Z</time>
      </trkpt>
      <trkpt lat="47.06814" lon="6.96932">
        <ele>793.49</ele>
        <time>2020-06-27T08:50:45.984Z</time>
      </trkpt>
      <trkpt lat="47.06795" lon="6.96965">
        <ele>796.87</ele>
        <time>2020-06-27T08:51:05.475Z</time>
      </trkpt>
      <trkpt lat="47.06781" lon="6.96992">
        <ele>799.8</ele>
        <time>2020-06-27T08:51:23.187Z</time>
      </trkpt>
      <trkpt lat="47.06765" lon="6.97024">
        <ele>803.3</ele>
        <time>2020-06-27T08:51:44.666Z</time>
      </trkpt>
      <trkpt lat="47.06749" lon="6.97057">
        <ele>806.66</ele>
        <time>2020-06-27T08:52:04.505Z</time>
      </trkpt>
      <trkpt lat="47.06719" lon="6.97124">
        <ele>812.56</ele>
        <time>2020-06-27T08:52:38.067Z</time>
      </trkpt>
      <trkpt lat="47.06709" lon="6.97148">
        <ele>814.55</ele>
        <time>2020-06-27T08:52:49.345Z</time>
      </trkpt>
      <trkpt lat="47.06682" lon="6.97224">
        <ele>819.08</ele>
        <time>2020-06-27T08:53:16.489Z</time>
      </trkpt>
      <trkpt lat="47.06648" lon="6.9731">
        <ele>823.5</ele>
        <time>2020-06-27T08:53:45.151Z</time>
      </trkpt>
      <trkpt lat="47.06644" lon="6.97318">
        <ele>824.47</ele>
        <time>2020-06-27T08:53:50.831Z</time>
      </trkpt>
      <trkpt lat="47.0663" lon="6.9735">
        <ele>825.44</ele>
        <time>2020-06-27T08:53:59.419Z</time>
      </trkpt>
      <trkpt lat="47.06629" lon="6.97354">
        <ele>825.59</ele>
        <time>2020-06-27T08:54:00.537Z</time>
      </trkpt>
      <trkpt lat="47.06628" lon="6.97357">
        <ele>825.7</ele>
        <time>2020-06-27T08:54:01.394Z</time>
      </trkpt>
      <trkpt lat="47.06628" lon="6.97361">
        <ele>825.81</ele>
        <time>2020-06-27T08:54:02.336Z</time>
      </trkpt>
      <trkpt lat="47.0663" lon="6.97365">
        <ele>826.19</ele>
        <time>2020-06-27T08:54:04.514Z</time>
      </trkpt>
      <trkpt lat="47.06631" lon="6.97369">
        <ele>826.18</ele>
        <time>2020-06-27T08:54:05.115Z</time>
      </trkpt>
      <trkpt lat="47.06632" lon="6.97372">
        <ele>826.25</ele>
        <time>2020-06-27T08:54:05.805Z</time>
      </trkpt>
      <trkpt lat="47.06633" lon="6.97377">
        <ele>826.39</ele>
        <time>2020-06-27T08:54:07.015Z</time>
      </trkpt>
      <trkpt lat="47.06632" lon="6.97383">
        <ele>826.57</ele>
        <time>2020-06-27T08:54:08.522Z</time>
      </trkpt>
      <trkpt lat="47.06631" lon="6.97387">
        <ele>826.92</ele>
        <time>2020-06-27T08:54:10.579Z</time>
      </trkpt>
      <trkpt lat="47.06625" lon="6.97399">
        <ele>827.17</ele>
        <time>2020-06-27T08:54:13.432Z</time>
      </trkpt>
      <trkpt lat="47.06623" lon="6.97401">
        <ele>827.4</ele>
        <time>2020-06-27T08:54:14.739Z</time>
      </trkpt>
      <trkpt lat="47.0662" lon="6.97402">
        <ele>827.46</ele>
        <time>2020-06-27T08:54:15.555Z</time>
      </trkpt>
      <trkpt lat="47.06616" lon="6.97402">
        <ele>827.61</ele>
        <time>2020-06-27T08:54:16.882Z</time>
      </trkpt>
      <trkpt lat="47.06602" lon="6.97401">
        <ele>827.79</ele>
        <time>2020-06-27T08:54:20.343Z</time>
      </trkpt>
      <trkpt lat="47.06599" lon="6.97401">
        <ele>827.84</ele>
        <time>2020-06-27T08:54:21.114Z</time>
      </trkpt>
      <trkpt lat="47.06596" lon="6.97404">
        <ele>827.9</ele>
        <time>2020-06-27T08:54:22.045Z</time>
      </trkpt>
      <trkpt lat="47.06584" lon="6.97418">
        <ele>828.01</ele>
        <time>2020-06-27T08:54:25.619Z</time>
      </trkpt>
      <trkpt lat="47.06576" lon="6.97404">
        <ele>827.49</ele>
        <time>2020-06-27T08:54:27.007Z</time>
      </trkpt>
      <trkpt lat="47.06566" lon="6.97419">
        <ele>827.73</ele>
        <time>2020-06-27T08:54:30.687Z</time>
      </trkpt>
      <trkpt lat="47.06555" lon="6.97439">
        <ele>828.25</ele>
        <time>2020-06-27T08:54:35.926Z</time>
      </trkpt>
      <trkpt lat="47.06547" lon="6.97458">
        <ele>828.88</ele>
        <time>2020-06-27T08:54:41.265Z</time>
      </trkpt>
      <trkpt lat="47.06544" lon="6.97465">
        <ele>829.33</ele>
        <time>2020-06-27T08:54:43.933Z</time>
      </trkpt>
      <trkpt lat="47.06544" lon="6.97465">
        <ele>829.33</ele>
        <time>2020-06-27T08:54:43.933Z</time>
      </trkpt>
      <trkpt lat="47.06531" lon="6.97496">
        <ele>829.78</ele>
        <time>2020-06-27T08:54:50.411Z</time>
      </trkpt>
      <trkpt lat="47.06482" lon="6.97604">
        <ele>831.17</ele>
        <time>2020-06-27T08:55:12.905Z</time>
      </trkpt>
      <trkpt lat="47.06435" lon="6.97712">
        <ele>830.33</ele>
        <time>2020-06-27T08:55:26.814Z</time>
      </trkpt>
      <trkpt lat="47.06407" lon="6.97775">
        <ele>830.5</ele>
        <time>2020-06-27T08:55:38.326Z</time>
      </trkpt>
      <trkpt lat="47.06398" lon="6.97797">
        <ele>831.03</ele>
        <time>2020-06-27T08:55:43.597Z</time>
      </trkpt>
      <trkpt lat="47.06394" lon="6.97806">
        <ele>831.56</ele>
        <time>2020-06-27T08:55:46.865Z</time>
      </trkpt>
      <trkpt lat="47.06391" lon="6.97809">
        <ele>831.92</ele>
        <time>2020-06-27T08:55:48.905Z</time>
      </trkpt>
      <trkpt lat="47.06388" lon="6.97811">
        <ele>832.07</ele>
        <time>2020-06-27T08:55:50.124Z</time>
      </trkpt>
      <trkpt lat="47.06384" lon="6.97812">
        <ele>831.94</ele>
        <time>2020-06-27T08:55:50.622Z</time>
      </trkpt>
      <trkpt lat="47.06381" lon="6.9781">
        <ele>831.84</ele>
        <time>2020-06-27T08:55:51.033Z</time>
      </trkpt>
      <trkpt lat="47.06378" lon="6.97806">
        <ele>831.44</ele>
        <time>2020-06-27T08:55:51.433Z</time>
      </trkpt>
      <trkpt lat="47.06378" lon="6.97805">
        <ele>831.44</ele>
        <time>2020-06-27T08:55:51.581Z</time>
      </trkpt>
      <trkpt lat="47.06364" lon="6.97791">
        <ele>831.04</ele>
        <time>2020-06-27T08:55:53.855Z</time>
      </trkpt>
      <trkpt lat="47.06327" lon="6.97756">
        <ele>830.05</ele>
        <time>2020-06-27T08:55:59.840Z</time>
      </trkpt>
      <trkpt lat="47.06308" lon="6.97736">
        <ele>829.59</ele>
        <time>2020-06-27T08:56:03.125Z</time>
      </trkpt>
      <trkpt lat="47.06291" lon="6.97722">
        <ele>828.96</ele>
        <time>2020-06-27T08:56:05.508Z</time>
      </trkpt>
      <trkpt lat="47.06274" lon="6.97706">
        <ele>828.4</ele>
        <time>2020-06-27T08:56:08.099Z</time>
      </trkpt>
      <trkpt lat="47.06261" lon="6.97692">
        <ele>827.94</ele>
        <time>2020-06-27T08:56:10.150Z</time>
      </trkpt>
      <trkpt lat="47.06242" lon="6.97676">
        <ele>827.5</ele>
        <time>2020-06-27T08:56:13.212Z</time>
      </trkpt>
      <trkpt lat="47.06225" lon="6.97658">
        <ele>826.8</ele>
        <time>2020-06-27T08:56:15.747Z</time>
      </trkpt>
      <trkpt lat="47.06207" lon="6.97637">
        <ele>826.07</ele>
        <time>2020-06-27T08:56:18.575Z</time>
      </trkpt>
      <trkpt lat="47.06181" lon="6.97614">
        <ele>824.99</ele>
        <time>2020-06-27T08:56:22.167Z</time>
      </trkpt>
      <trkpt lat="47.06172" lon="6.97607">
        <ele>824.61</ele>
        <time>2020-06-27T08:56:23.352Z</time>
      </trkpt>
      <trkpt lat="47.06164" lon="6.97601">
        <ele>824.31</ele>
        <time>2020-06-27T08:56:24.438Z</time>
      </trkpt>
      <trkpt lat="47.06147" lon="6.97589">
        <ele>823.66</ele>
        <time>2020-06-27T08:56:26.696Z</time>
      </trkpt>
      <trkpt lat="47.06126" lon="6.97574">
        <ele>823.09</ele>
        <time>2020-06-27T08:56:29.803Z</time>
      </trkpt>
      <trkpt lat="47.06042" lon="6.97518">
        <ele>821.13</ele>
        <time>2020-06-27T08:56:42.528Z</time>
      </trkpt>
      <trkpt lat="47.05922" lon="6.97438">
        <ele>819.64</ele>
        <time>2020-06-27T08:57:03.066Z</time>
      </trkpt>
      <trkpt lat="47.05883" lon="6.97412">
        <ele>819.41</ele>
        <time>2020-06-27T08:57:11.687Z</time>
      </trkpt>
      <trkpt lat="47.05827" lon="6.97375">
        <ele>819.15</ele>
        <time>2020-06-27T08:57:24.249Z</time>
      </trkpt>
      <trkpt lat="47.05795" lon="6.97354">
        <ele>818.86</ele>
        <time>2020-06-27T08:57:29.936Z</time>
      </trkpt>
      <trkpt lat="47.05795" lon="6.97353">
        <ele>818.86</ele>
        <time>2020-06-27T08:57:30.085Z</time>
      </trkpt>
      <trkpt lat="47.05784" lon="6.97347">
        <ele>818.58</ele>
        <time>2020-06-27T08:57:31.656Z</time>
      </trkpt>
      <trkpt lat="47.05751" lon="6.97325">
        <ele>818.5</ele>
        <time>2020-06-27T08:57:39.292Z</time>
      </trkpt>
      <trkpt lat="47.05727" lon="6.97311">
        <ele>818.64</ele>
        <time>2020-06-27T08:57:45.212Z</time>
      </trkpt>
      <trkpt lat="47.05701" lon="6.97297">
        <ele>818.21</ele>
        <time>2020-06-27T08:57:49.302Z</time>
      </trkpt>
      <trkpt lat="47.05666" lon="6.97277">
        <ele>818.22</ele>
        <time>2020-06-27T08:57:57.503Z</time>
      </trkpt>
      <trkpt lat="47.05645" lon="6.97266">
        <ele>818.42</ele>
        <time>2020-06-27T08:58:02.794Z</time>
      </trkpt>
      <trkpt lat="47.0561" lon="6.97249">
        <ele>819.17</ele>
        <time>2020-06-27T08:58:12.664Z</time>
      </trkpt>
      <trkpt lat="47.05594" lon="6.97239">
        <ele>819.59</ele>
        <time>2020-06-27T08:58:17.528Z</time>
      </trkpt>
      <trkpt lat="47.05578" lon="6.97229">
        <ele>820.13</ele>
        <time>2020-06-27T08:58:22.821Z</time>
      </trkpt>
      <trkpt lat="47.05566" lon="6.9722">
        <ele>820.41</ele>
        <time>2020-06-27T08:58:26.447Z</time>
      </trkpt>
      <trkpt lat="47.05559" lon="6.97213">
        <ele>820.64</ele>
        <time>2020-06-27T08:58:28.903Z</time>
      </trkpt>
      <trkpt lat="47.05554" lon="6.97207">
        <ele>820.9</ele>
        <time>2020-06-27T08:58:31.131Z</time>
      </trkpt>
      <trkpt lat="47.05549" lon="6.97199">
        <ele>820.86</ele>
        <time>2020-06-27T08:58:32.619Z</time>
      </trkpt>
      <trkpt lat="47.05546" lon="6.97191">
        <ele>820.95</ele>
        <time>2020-06-27T08:58:34.181Z</time>
      </trkpt>
      <trkpt lat="47.05543" lon="6.97189">
        <ele>821.15</ele>
        <time>2020-06-27T08:58:35.531Z</time>
      </trkpt>
      <trkpt lat="47.05533" lon="6.97182">
        <ele>821.38</ele>
        <time>2020-06-27T08:58:38.511Z</time>
      </trkpt>
      <trkpt lat="47.05532" lon="6.97182">
        <ele>821.38</ele>
        <time>2020-06-27T08:58:38.728Z</time>
      </trkpt>
      <trkpt lat="47.05531" lon="6.97181">
        <ele>821.6</ele>
        <time>2020-06-27T08:58:39.745Z</time>
      </trkpt>
      <trkpt lat="47.05523" lon="6.97176">
        <ele>821.61</ele>
        <time>2020-06-27T08:58:41.659Z</time>
      </trkpt>
      <trkpt lat="47.05517" lon="6.97172">
        <ele>821.44</ele>
        <time>2020-06-27T08:58:42.523Z</time>
      </trkpt>
      <trkpt lat="47.05504" lon="6.97164">
        <ele>820.91</ele>
        <time>2020-06-27T08:58:44.158Z</time>
      </trkpt>
      <trkpt lat="47.05502" lon="6.97165">
        <ele>820.98</ele>
        <time>2020-06-27T08:58:44.819Z</time>
      </trkpt>
      <trkpt lat="47.05502" lon="6.97165">
        <ele>820.98</ele>
        <time>2020-06-27T08:58:44.819Z</time>
      </trkpt>
      <trkpt lat="47.05497" lon="6.97165">
        <ele>821.05</ele>
        <time>2020-06-27T08:58:46.068Z</time>
      </trkpt>
      <trkpt lat="47.05486" lon="6.97164">
        <ele>820.9</ele>
        <time>2020-06-27T08:58:47.735Z</time>
      </trkpt>
      <trkpt lat="47.0548" lon="6.97162">
        <ele>821.07</ele>
        <time>2020-06-27T08:58:49.529Z</time>
      </trkpt>
      <trkpt lat="47.05474" lon="6.97159">
        <ele>820.92</ele>
        <time>2020-06-27T08:58:50.380Z</time>
      </trkpt>
      <trkpt lat="47.05467" lon="6.97154">
        <ele>820.61</ele>
        <time>2020-06-27T08:58:51.264Z</time>
      </trkpt>
      <trkpt lat="47.05448" lon="6.97137">
        <ele>820.9</ele>
        <time>2020-06-27T08:58:56.768Z</time>
      </trkpt>
      <trkpt lat="47.05421" lon="6.97112">
        <ele>820.88</ele>
        <time>2020-06-27T08:59:03.655Z</time>
      </trkpt>
      <trkpt lat="47.05401" lon="6.97092">
        <ele>820.86</ele>
        <time>2020-06-27T08:59:08.861Z</time>
      </trkpt>
      <trkpt lat="47.05371" lon="6.97064">
        <ele>821.09</ele>
        <time>2020-06-27T08:59:17.093Z</time>
      </trkpt>
      <trkpt lat="47.05371" lon="6.97063">
        <ele>821.09</ele>
        <time>2020-06-27T08:59:17.241Z</time>
      </trkpt>
      <trkpt lat="47.05367" lon="6.9706">
        <ele>821.32</ele>
        <time>2020-06-27T08:59:18.966Z</time>
      </trkpt>
      <trkpt lat="47.05341" lon="6.97037">
        <ele>821.9</ele>
        <time>2020-06-27T08:59:26.981Z</time>
      </trkpt>
      <trkpt lat="47.05294" lon="6.96999">
        <ele>823.61</ele>
        <time>2020-06-27T08:59:43.487Z</time>
      </trkpt>
      <trkpt lat="47.05244" lon="6.96957">
        <ele>824.57</ele>
        <time>2020-06-27T08:59:58.296Z</time>
      </trkpt>
      <trkpt lat="47.05222" lon="6.96938">
        <ele>825.01</ele>
        <time>2020-06-27T09:00:04.899Z</time>
      </trkpt>
      <trkpt lat="47.05201" lon="6.96918">
        <ele>825.3</ele>
        <time>2020-06-27T09:00:10.999Z</time>
      </trkpt>
      <trkpt lat="47.05188" lon="6.96905">
        <ele>825.73</ele>
        <time>2020-06-27T09:00:15.570Z</time>
      </trkpt>
      <trkpt lat="47.0517" lon="6.96885">
        <ele>825.91</ele>
        <time>2020-06-27T09:00:20.875Z</time>
      </trkpt>
      <trkpt lat="47.05136" lon="6.96836">
        <ele>825.69</ele>
        <time>2020-06-27T09:00:30.569Z</time>
      </trkpt>
      <trkpt lat="47.05108" lon="6.96798">
        <ele>824.56</ele>
        <time>2020-06-27T09:00:35.364Z</time>
      </trkpt>
      <trkpt lat="47.05092" lon="6.96775">
        <ele>824.24</ele>
        <time>2020-06-27T09:00:38.723Z</time>
      </trkpt>
      <trkpt lat="47.05075" lon="6.96749">
        <ele>824.16</ele>
        <time>2020-06-27T09:00:43.817Z</time>
      </trkpt>
      <trkpt lat="47.05049" lon="6.96709">
        <ele>824.2</ele>
        <time>2020-06-27T09:00:52.102Z</time>
      </trkpt>
      <trkpt lat="47.0503" lon="6.9668">
        <ele>825.1</ele>
        <time>2020-06-27T09:01:00.641Z</time>
      </trkpt>
      <trkpt lat="47.05013" lon="6.96655">
        <ele>825.7</ele>
        <time>2020-06-27T09:01:07.434Z</time>
      </trkpt>
      <trkpt lat="47.04987" lon="6.96613">
        <ele>825.17</ele>
        <time>2020-06-27T09:01:13.276Z</time>
      </trkpt>
      <trkpt lat="47.04975" lon="6.96592">
        <ele>824.87</ele>
        <time>2020-06-27T09:01:16.016Z</time>
      </trkpt>
      <trkpt lat="47.04962" lon="6.96563">
        <ele>824.09</ele>
        <time>2020-06-27T09:01:18.889Z</time>
      </trkpt>
      <trkpt lat="47.04917" lon="6.96459">
        <ele>821.97</ele>
        <time>2020-06-27T09:01:29.954Z</time>
      </trkpt>
      <trkpt lat="47.04913" lon="6.96449">
        <ele>821.8</ele>
        <time>2020-06-27T09:01:31.040Z</time>
      </trkpt>
      <trkpt lat="47.0491" lon="6.96441">
        <ele>821.66</ele>
        <time>2020-06-27T09:01:31.886Z</time>
      </trkpt>
      <trkpt lat="47.04905" lon="6.96427">
        <ele>821.68</ele>
        <time>2020-06-27T09:01:34.273Z</time>
      </trkpt>
      <trkpt lat="47.04901" lon="6.96412">
        <ele>821.04</ele>
        <time>2020-06-27T09:01:35.333Z</time>
      </trkpt>
      <trkpt lat="47.04893" lon="6.9639">
        <ele>820.18</ele>
        <time>2020-06-27T09:01:37.082Z</time>
      </trkpt>
      <trkpt lat="47.04858" lon="6.96298">
        <ele>815.32</ele>
        <time>2020-06-27T09:01:44.170Z</time>
      </trkpt>
      <trkpt lat="47.04835" lon="6.96237">
        <ele>811.36</ele>
        <time>2020-06-27T09:01:48.860Z</time>
      </trkpt>
      <trkpt lat="47.04827" lon="6.96217">
        <ele>809.85</ele>
        <time>2020-06-27T09:01:50.420Z</time>
      </trkpt>
      <trkpt lat="47.04815" lon="6.96188">
        <ele>808.02</ele>
        <time>2020-06-27T09:01:52.703Z</time>
      </trkpt>
      <trkpt lat="47.04806" lon="6.96167">
        <ele>806.88</ele>
        <time>2020-06-27T09:01:54.372Z</time>
      </trkpt>
      <trkpt lat="47.04801" lon="6.96155">
        <ele>806.27</ele>
        <time>2020-06-27T09:01:55.259Z</time>
      </trkpt>
      <trkpt lat="47.04796" lon="6.96146">
        <ele>805.7</ele>
        <time>2020-06-27T09:01:56.040Z</time>
      </trkpt>
      <trkpt lat="47.04789" lon="6.96137">
        <ele>805.44</ele>
        <time>2020-06-27T09:01:57.231Z</time>
      </trkpt>
      <trkpt lat="47.04782" lon="6.96131">
        <ele>804.92</ele>
        <time>2020-06-27T09:01:57.979Z</time>
      </trkpt>
      <trkpt lat="47.04772" lon="6.96124">
        <ele>804.54</ele>
        <time>2020-06-27T09:01:59.307Z</time>
      </trkpt>
      <trkpt lat="47.04767" lon="6.96119">
        <ele>804.24</ele>
        <time>2020-06-27T09:01:59.935Z</time>
      </trkpt>
      <trkpt lat="47.04763" lon="6.96115">
        <ele>803.98</ele>
        <time>2020-06-27T09:02:00.421Z</time>
      </trkpt>
      <trkpt lat="47.04758" lon="6.96107">
        <ele>803.76</ele>
        <time>2020-06-27T09:02:01.350Z</time>
      </trkpt>
      <trkpt lat="47.04753" lon="6.96096">
        <ele>803.23</ele>
        <time>2020-06-27T09:02:02.216Z</time>
      </trkpt>
      <trkpt lat="47.04752" lon="6.96093">
        <ele>802.8</ele>
        <time>2020-06-27T09:02:02.441Z</time>
      </trkpt>
      <trkpt lat="47.04752" lon="6.96092">
        <ele>802.8</ele>
        <time>2020-06-27T09:02:02.589Z</time>
      </trkpt>
      <trkpt lat="47.04739" lon="6.9606">
        <ele>802.37</ele>
        <time>2020-06-27T09:02:06.274Z</time>
      </trkpt>
      <trkpt lat="47.04732" lon="6.96043">
        <ele>802.38</ele>
        <time>2020-06-27T09:02:09.242Z</time>
      </trkpt>
      <trkpt lat="47.04728" lon="6.96027">
        <ele>802.08</ele>
        <time>2020-06-27T09:02:10.763Z</time>
      </trkpt>
      <trkpt lat="47.04722" lon="6.96006">
        <ele>802.62</ele>
        <time>2020-06-27T09:02:15.725Z</time>
      </trkpt>
      <trkpt lat="47.04717" lon="6.96005">
        <ele>803.21</ele>
        <time>2020-06-27T09:02:19.147Z</time>
      </trkpt>
      <trkpt lat="47.04713" lon="6.96004">
        <ele>803.69</ele>
        <time>2020-06-27T09:02:21.944Z</time>
      </trkpt>
      <trkpt lat="47.04704" lon="6.95999">
        <ele>804.99</ele>
        <time>2020-06-27T09:02:30.030Z</time>
      </trkpt>
      <trkpt lat="47.04682" lon="6.95988">
        <ele>807.65</ele>
        <time>2020-06-27T09:02:45.352Z</time>
      </trkpt>
      <trkpt lat="47.04676" lon="6.95984">
        <ele>808.07</ele>
        <time>2020-06-27T09:02:48.110Z</time>
      </trkpt>
      <trkpt lat="47.04661" lon="6.95973">
        <ele>809.77</ele>
        <time>2020-06-27T09:02:57.738Z</time>
      </trkpt>
      <trkpt lat="47.04648" lon="6.9596">
        <ele>810.89</ele>
        <time>2020-06-27T09:03:04.696Z</time>
      </trkpt>
      <trkpt lat="47.04625" lon="6.95939">
        <ele>812.89</ele>
        <time>2020-06-27T09:03:16.923Z</time>
      </trkpt>
      <trkpt lat="47.04607" lon="6.95924">
        <ele>814.15</ele>
        <time>2020-06-27T09:03:25.411Z</time>
      </trkpt>
      <trkpt lat="47.04586" lon="6.95905">
        <ele>816.55</ele>
        <time>2020-06-27T09:03:39.025Z</time>
      </trkpt>
      <trkpt lat="47.04573" lon="6.95894">
        <ele>817.25</ele>
        <time>2020-06-27T09:03:44.618Z</time>
      </trkpt>
      <trkpt lat="47.04564" lon="6.95886">
        <ele>817.84</ele>
        <time>2020-06-27T09:03:48.791Z</time>
      </trkpt>
      <trkpt lat="47.04545" lon="6.95871">
        <ele>819.25</ele>
        <time>2020-06-27T09:03:57.928Z</time>
      </trkpt>
      <trkpt lat="47.04537" lon="6.95864">
        <ele>819.86</ele>
        <time>2020-06-27T09:04:01.876Z</time>
      </trkpt>
      <trkpt lat="47.0453" lon="6.95851">
        <ele>820.27</ele>
        <time>2020-06-27T09:04:05.561Z</time>
      </trkpt>
      <trkpt lat="47.04523" lon="6.95837">
        <ele>820.02</ele>
        <time>2020-06-27T09:04:07.195Z</time>
      </trkpt>
      <trkpt lat="47.04513" lon="6.95818">
        <ele>819.13</ele>
        <time>2020-06-27T09:04:08.827Z</time>
      </trkpt>
      <trkpt lat="47.04501" lon="6.95796">
        <ele>818.25</ele>
        <time>2020-06-27T09:04:10.889Z</time>
      </trkpt>
      <trkpt lat="47.04482" lon="6.95764">
        <ele>817.9</ele>
        <time>2020-06-27T09:04:15.350Z</time>
      </trkpt>
      <trkpt lat="47.04466" lon="6.9574">
        <ele>817.64</ele>
        <time>2020-06-27T09:04:18.912Z</time>
      </trkpt>
      <trkpt lat="47.04458" lon="6.95728">
        <ele>817.64</ele>
        <time>2020-06-27T09:04:21.404Z</time>
      </trkpt>
      <trkpt lat="47.04458" lon="6.95727">
        <ele>817.64</ele>
        <time>2020-06-27T09:04:21.553Z</time>
      </trkpt>
      <trkpt lat="47.04458" lon="6.95726">
        <ele>817.64</ele>
        <time>2020-06-27T09:04:21.701Z</time>
      </trkpt>
      <trkpt lat="47.04441" lon="6.957">
        <ele>817.56</ele>
        <time>2020-06-27T09:04:26.795Z</time>
      </trkpt>
      <trkpt lat="47.04413" lon="6.95654">
        <ele>817.03</ele>
        <time>2020-06-27T09:04:33.235Z</time>
      </trkpt>
      <trkpt lat="47.04397" lon="6.95629">
        <ele>816.97</ele>
        <time>2020-06-27T09:04:38.133Z</time>
      </trkpt>
      <trkpt lat="47.04377" lon="6.95598">
        <ele>817.64</ele>
        <time>2020-06-27T09:04:46.164Z</time>
      </trkpt>
      <trkpt lat="47.04361" lon="6.95574">
        <ele>818.94</ele>
        <time>2020-06-27T09:04:55.286Z</time>
      </trkpt>
      <trkpt lat="47.04353" lon="6.95563">
        <ele>819.41</ele>
        <time>2020-06-27T09:04:59.218Z</time>
      </trkpt>
      <trkpt lat="47.04345" lon="6.95549">
        <ele>820.18</ele>
        <time>2020-06-27T09:05:04.359Z</time>
      </trkpt>
      <trkpt lat="47.04339" lon="6.9554">
        <ele>820.27</ele>
        <time>2020-06-27T09:05:06.426Z</time>
      </trkpt>
      <trkpt lat="47.0433" lon="6.95524">
        <ele>820.28</ele>
        <time>2020-06-27T09:05:09.526Z</time>
      </trkpt>
      <trkpt lat="47.04325" lon="6.95511">
        <ele>819.91</ele>
        <time>2020-06-27T09:05:10.720Z</time>
      </trkpt>
      <trkpt lat="47.04316" lon="6.95498">
        <ele>820.05</ele>
        <time>2020-06-27T09:05:13.782Z</time>
      </trkpt>
      <trkpt lat="47.04314" lon="6.95497">
        <ele>820.31</ele>
        <time>2020-06-27T09:05:15.326Z</time>
      </trkpt>
      <trkpt lat="47.04309" lon="6.95497">
        <ele>820.84</ele>
        <time>2020-06-27T09:05:18.334Z</time>
      </trkpt>
      <trkpt lat="47.04302" lon="6.95494">
        <ele>821.57</ele>
        <time>2020-06-27T09:05:22.469Z</time>
      </trkpt>
      <trkpt lat="47.04294" lon="6.9549">
        <ele>822.97</ele>
        <time>2020-06-27T09:05:29.569Z</time>
      </trkpt>
      <trkpt lat="47.04287" lon="6.95485">
        <ele>823.93</ele>
        <time>2020-06-27T09:05:35.275Z</time>
      </trkpt>
      <trkpt lat="47.04278" lon="6.95477">
        <ele>825.16</ele>
        <time>2020-06-27T09:05:42.410Z</time>
      </trkpt>
      <trkpt lat="47.04259" lon="6.95457">
        <ele>827.64</ele>
        <time>2020-06-27T09:05:56.487Z</time>
      </trkpt>
      <trkpt lat="47.0426" lon="6.95454">
        <ele>827.61</ele>
        <time>2020-06-27T09:05:56.833Z</time>
      </trkpt>
      <trkpt lat="47.0426" lon="6.95453">
        <ele>827.68</ele>
        <time>2020-06-27T09:05:57.230Z</time>
      </trkpt>
      <trkpt lat="47.04259" lon="6.95451">
        <ele>827.55</ele>
        <time>2020-06-27T09:05:57.396Z</time>
      </trkpt>
      <trkpt lat="47.04258" lon="6.95448">
        <ele>827.62</ele>
        <time>2020-06-27T09:05:58.087Z</time>
      </trkpt>
      <trkpt lat="47.04238" lon="6.95405">
        <ele>828.38</ele>
        <time>2020-06-27T09:06:07.701Z</time>
      </trkpt>
      <trkpt lat="47.04226" lon="6.95379">
        <ele>828.59</ele>
        <time>2020-06-27T09:06:12.822Z</time>
      </trkpt>
      <trkpt lat="47.04205" lon="6.9532">
        <ele>827.08</ele>
        <time>2020-06-27T09:06:18.314Z</time>
      </trkpt>
      <trkpt lat="47.0419" lon="6.95271">
        <ele>827.03</ele>
        <time>2020-06-27T09:06:26.124Z</time>
      </trkpt>
      <trkpt lat="47.04168" lon="6.95201">
        <ele>825.3</ele>
        <time>2020-06-27T09:06:32.508Z</time>
      </trkpt>
      <trkpt lat="47.04159" lon="6.95168">
        <ele>824.56</ele>
        <time>2020-06-27T09:06:35.524Z</time>
      </trkpt>
      <trkpt lat="47.04149" lon="6.95131">
        <ele>822.78</ele>
        <time>2020-06-27T09:06:37.997Z</time>
      </trkpt>
      <trkpt lat="47.0414" lon="6.95096">
        <ele>821.62</ele>
        <time>2020-06-27T09:06:40.743Z</time>
      </trkpt>
      <trkpt lat="47.04125" lon="6.95049">
        <ele>820.28</ele>
        <time>2020-06-27T09:06:44.834Z</time>
      </trkpt>
      <trkpt lat="47.04119" lon="6.95032">
        <ele>819.78</ele>
        <time>2020-06-27T09:06:46.337Z</time>
      </trkpt>
      <trkpt lat="47.04116" lon="6.95025">
        <ele>819.54</ele>
        <time>2020-06-27T09:06:46.961Z</time>
      </trkpt>
      <trkpt lat="47.04116" lon="6.95024">
        <ele>819.54</ele>
        <time>2020-06-27T09:06:47.109Z</time>
      </trkpt>
      <trkpt lat="47.04114" lon="6.95019">
        <ele>819.3</ele>
        <time>2020-06-27T09:06:47.483Z</time>
      </trkpt>
      <trkpt lat="47.04107" lon="6.95007">
        <ele>819.32</ele>
        <time>2020-06-27T09:06:49.869Z</time>
      </trkpt>
      <trkpt lat="47.041" lon="6.94995">
        <ele>819.08</ele>
        <time>2020-06-27T09:06:51.335Z</time>
      </trkpt>
      <trkpt lat="47.04091" lon="6.94984">
        <ele>819.03</ele>
        <time>2020-06-27T09:06:53.730Z</time>
      </trkpt>
      <trkpt lat="47.04073" lon="6.94962">
        <ele>818.52</ele>
        <time>2020-06-27T09:06:56.942Z</time>
      </trkpt>
      <trkpt lat="47.04064" lon="6.94951">
        <ele>818.27</ele>
        <time>2020-06-27T09:06:58.555Z</time>
      </trkpt>
      <trkpt lat="47.04053" lon="6.94934">
        <ele>818.12</ele>
        <time>2020-06-27T09:07:01.109Z</time>
      </trkpt>
      <trkpt lat="47.04043" lon="6.94917">
        <ele>817.98</ele>
        <time>2020-06-27T09:07:03.563Z</time>
      </trkpt>
      <trkpt lat="47.04037" lon="6.94905">
        <ele>817.86</ele>
        <time>2020-06-27T09:07:05.133Z</time>
      </trkpt>
      <trkpt lat="47.04032" lon="6.94896">
        <ele>817.86</ele>
        <time>2020-06-27T09:07:06.856Z</time>
      </trkpt>
      <trkpt lat="47.04026" lon="6.94884">
        <ele>817.37</ele>
        <time>2020-06-27T09:07:07.922Z</time>
      </trkpt>
      <trkpt lat="47.04022" lon="6.94873">
        <ele>817.24</ele>
        <time>2020-06-27T09:07:09.180Z</time>
      </trkpt>
      <trkpt lat="47.04019" lon="6.94861">
        <ele>816.95</ele>
        <time>2020-06-27T09:07:10.235Z</time>
      </trkpt>
      <trkpt lat="47.04015" lon="6.94843">
        <ele>816.66</ele>
        <time>2020-06-27T09:07:11.990Z</time>
      </trkpt>
      <trkpt lat="47.04009" lon="6.94827">
        <ele>816.02</ele>
        <time>2020-06-27T09:07:13.262Z</time>
      </trkpt>
      <trkpt lat="47.04003" lon="6.94814">
        <ele>815.32</ele>
        <time>2020-06-27T09:07:14.239Z</time>
      </trkpt>
      <trkpt lat="47.03997" lon="6.94802">
        <ele>815.74</ele>
        <time>2020-06-27T09:07:17.799Z</time>
      </trkpt>
      <trkpt lat="47.03989" lon="6.94789">
        <ele>814.67</ele>
        <time>2020-06-27T09:07:18.977Z</time>
      </trkpt>
      <trkpt lat="47.03977" lon="6.94772">
        <ele>814.38</ele>
        <time>2020-06-27T09:07:21.385Z</time>
      </trkpt>
      <trkpt lat="47.03963" lon="6.94754">
        <ele>813.93</ele>
        <time>2020-06-27T09:07:23.868Z</time>
      </trkpt>
      <trkpt lat="47.03951" lon="6.94737">
        <ele>813.25</ele>
        <time>2020-06-27T09:07:25.745Z</time>
      </trkpt>
      <trkpt lat="47.03945" lon="6.94728">
        <ele>812.91</ele>
        <time>2020-06-27T09:07:26.721Z</time>
      </trkpt>
      <trkpt lat="47.0394" lon="6.94717">
        <ele>812.64</ele>
        <time>2020-06-27T09:07:27.851Z</time>
      </trkpt>
      <trkpt lat="47.03935" lon="6.94706">
        <ele>812.62</ele>
        <time>2020-06-27T09:07:29.749Z</time>
      </trkpt>
      <trkpt lat="47.0393" lon="6.94695">
        <ele>812.68</ele>
        <time>2020-06-27T09:07:31.839Z</time>
      </trkpt>
      <trkpt lat="47.03921" lon="6.9467">
        <ele>812.75</ele>
        <time>2020-06-27T09:07:36.181Z</time>
      </trkpt>
      <trkpt lat="47.03916" lon="6.94652">
        <ele>812.71</ele>
        <time>2020-06-27T09:07:38.938Z</time>
      </trkpt>
      <trkpt lat="47.03905" lon="6.94625">
        <ele>812.73</ele>
        <time>2020-06-27T09:07:43.648Z</time>
      </trkpt>
      <trkpt lat="47.03896" lon="6.94607">
        <ele>813.06</ele>
        <time>2020-06-27T09:07:47.784Z</time>
      </trkpt>
      <trkpt lat="47.03888" lon="6.94589">
        <ele>813.46</ele>
        <time>2020-06-27T09:07:52.038Z</time>
      </trkpt>
      <trkpt lat="47.03879" lon="6.94573">
        <ele>814.07</ele>
        <time>2020-06-27T09:07:57.130Z</time>
      </trkpt>
      <trkpt lat="47.03869" lon="6.94557">
        <ele>814.65</ele>
        <time>2020-06-27T09:08:02.159Z</time>
      </trkpt>
      <trkpt lat="47.03859" lon="6.94542">
        <ele>815.2</ele>
        <time>2020-06-27T09:08:06.968Z</time>
      </trkpt>
      <trkpt lat="47.03851" lon="6.9453">
        <ele>815.44</ele>
        <time>2020-06-27T09:08:10.053Z</time>
      </trkpt>
      <trkpt lat="47.03836" lon="6.94504">
        <ele>816.07</ele>
        <time>2020-06-27T09:08:16.782Z</time>
      </trkpt>
      <trkpt lat="47.03822" lon="6.94482">
        <ele>816.76</ele>
        <time>2020-06-27T09:08:23.240Z</time>
      </trkpt>
      <trkpt lat="47.03821" lon="6.94482">
        <ele>816.76</ele>
        <time>2020-06-27T09:08:23.458Z</time>
      </trkpt>
      <trkpt lat="47.03815" lon="6.94472">
        <ele>817.45</ele>
        <time>2020-06-27T09:08:27.626Z</time>
      </trkpt>
      <trkpt lat="47.03799" lon="6.94447">
        <ele>818</ele>
        <time>2020-06-27T09:08:34.116Z</time>
      </trkpt>
      <trkpt lat="47.03785" lon="6.94424">
        <ele>818.52</ele>
        <time>2020-06-27T09:08:40.036Z</time>
      </trkpt>
      <trkpt lat="47.03773" lon="6.94401">
        <ele>818.79</ele>
        <time>2020-06-27T09:08:44.951Z</time>
      </trkpt>
      <trkpt lat="47.03766" lon="6.94386">
        <ele>819.04</ele>
        <time>2020-06-27T09:08:48.262Z</time>
      </trkpt>
      <trkpt lat="47.03757" lon="6.9437">
        <ele>819.11</ele>
        <time>2020-06-27T09:08:51.488Z</time>
      </trkpt>
      <trkpt lat="47.03746" lon="6.94348">
        <ele>820.24</ele>
        <time>2020-06-27T09:08:59.108Z</time>
      </trkpt>
      <trkpt lat="47.03732" lon="6.94325">
        <ele>820.84</ele>
        <time>2020-06-27T09:09:05.307Z</time>
      </trkpt>
      <trkpt lat="47.03717" lon="6.94299">
        <ele>821.43</ele>
        <time>2020-06-27T09:09:11.899Z</time>
      </trkpt>
      <trkpt lat="47.03706" lon="6.94281">
        <ele>821.75</ele>
        <time>2020-06-27T09:09:16.264Z</time>
      </trkpt>
      <trkpt lat="47.03698" lon="6.94269">
        <ele>822.58</ele>
        <time>2020-06-27T09:09:21.377Z</time>
      </trkpt>
      <trkpt lat="47.03694" lon="6.94261">
        <ele>822.72</ele>
        <time>2020-06-27T09:09:23.195Z</time>
      </trkpt>
      <trkpt lat="47.0369" lon="6.9425">
        <ele>822.41</ele>
        <time>2020-06-27T09:09:24.191Z</time>
      </trkpt>
      <trkpt lat="47.03684" lon="6.94247">
        <ele>822.6</ele>
        <time>2020-06-27T09:09:26.094Z</time>
      </trkpt>
      <trkpt lat="47.03676" lon="6.94243">
        <ele>823.01</ele>
        <time>2020-06-27T09:09:29.282Z</time>
      </trkpt>
      <trkpt lat="47.03669" lon="6.94238">
        <ele>823.25</ele>
        <time>2020-06-27T09:09:31.645Z</time>
      </trkpt>
      <trkpt lat="47.03659" lon="6.94227">
        <ele>823.17</ele>
        <time>2020-06-27T09:09:34.125Z</time>
      </trkpt>
      <trkpt lat="47.03631" lon="6.94192">
        <ele>823.03</ele>
        <time>2020-06-27T09:09:41.695Z</time>
      </trkpt>
      <trkpt lat="47.03602" lon="6.94156">
        <ele>823.12</ele>
        <time>2020-06-27T09:09:50.153Z</time>
      </trkpt>
      <trkpt lat="47.0357" lon="6.94117">
        <ele>823.15</ele>
        <time>2020-06-27T09:09:59.275Z</time>
      </trkpt>
      <trkpt lat="47.03513" lon="6.94044">
        <ele>821.17</ele>
        <time>2020-06-27T09:10:09.148Z</time>
      </trkpt>
      <trkpt lat="47.03483" lon="6.94007">
        <ele>820.04</ele>
        <time>2020-06-27T09:10:14.118Z</time>
      </trkpt>
      <trkpt lat="47.03464" lon="6.93983">
        <ele>819.09</ele>
        <time>2020-06-27T09:10:17.018Z</time>
      </trkpt>
      <trkpt lat="47.03425" lon="6.93936">
        <ele>817.43</ele>
        <time>2020-06-27T09:10:23.153Z</time>
      </trkpt>
      <trkpt lat="47.03402" lon="6.93907">
        <ele>816.5</ele>
        <time>2020-06-27T09:10:26.925Z</time>
      </trkpt>
      <trkpt lat="47.03383" lon="6.93881">
        <ele>815.55</ele>
        <time>2020-06-27T09:10:29.969Z</time>
      </trkpt>
      <trkpt lat="47.03366" lon="6.93858">
        <ele>814.82</ele>
        <time>2020-06-27T09:10:32.819Z</time>
      </trkpt>
      <trkpt lat="47.03357" lon="6.93843">
        <ele>814.32</ele>
        <time>2020-06-27T09:10:34.413Z</time>
      </trkpt>
      <trkpt lat="47.03351" lon="6.93834">
        <ele>814.1</ele>
        <time>2020-06-27T09:10:35.539Z</time>
      </trkpt>
      <trkpt lat="47.03332" lon="6.938">
        <ele>813.55</ele>
        <time>2020-06-27T09:10:39.815Z</time>
      </trkpt>
      <trkpt lat="47.03332" lon="6.93799">
        <ele>813.55</ele>
        <time>2020-06-27T09:10:39.964Z</time>
      </trkpt>
      <trkpt lat="47.03325" lon="6.93786">
        <ele>813</ele>
        <time>2020-06-27T09:10:41.146Z</time>
      </trkpt>
      <trkpt lat="47.03294" lon="6.9373">
        <ele>811.6</ele>
        <time>2020-06-27T09:10:47.405Z</time>
      </trkpt>
      <trkpt lat="47.03272" lon="6.93691">
        <ele>810.18</ele>
        <time>2020-06-27T09:10:51.274Z</time>
      </trkpt>
      <trkpt lat="47.03261" lon="6.9367">
        <ele>809.66</ele>
        <time>2020-06-27T09:10:53.564Z</time>
      </trkpt>
      <trkpt lat="47.03254" lon="6.9366">
        <ele>809.53</ele>
        <time>2020-06-27T09:10:55.048Z</time>
      </trkpt>
      <trkpt lat="47.0324" lon="6.93635">
        <ele>809.23</ele>
        <time>2020-06-27T09:10:58.384Z</time>
      </trkpt>
      <trkpt lat="47.03232" lon="6.93621">
        <ele>808.34</ele>
        <time>2020-06-27T09:10:59.613Z</time>
      </trkpt>
      <trkpt lat="47.03219" lon="6.93598">
        <ele>808.28</ele>
        <time>2020-06-27T09:11:03.858Z</time>
      </trkpt>
      <trkpt lat="47.03202" lon="6.93567">
        <ele>807.73</ele>
        <time>2020-06-27T09:11:07.640Z</time>
      </trkpt>
      <trkpt lat="47.03125" lon="6.9344">
        <ele>806.46</ele>
        <time>2020-06-27T09:11:25.776Z</time>
      </trkpt>
      <trkpt lat="47.03114" lon="6.93421">
        <ele>806.39</ele>
        <time>2020-06-27T09:11:29.257Z</time>
      </trkpt>
      <trkpt lat="47.03075" lon="6.93352">
        <ele>805.9</ele>
        <time>2020-06-27T09:11:39.205Z</time>
      </trkpt>
      <trkpt lat="47.03021" lon="6.93262">
        <ele>804.34</ele>
        <time>2020-06-27T09:11:50.765Z</time>
      </trkpt>
      <trkpt lat="47.03001" lon="6.9323">
        <ele>803.65</ele>
        <time>2020-06-27T09:11:54.752Z</time>
      </trkpt>
      <trkpt lat="47.02989" lon="6.93211">
        <ele>802.68</ele>
        <time>2020-06-27T09:11:56.504Z</time>
      </trkpt>
      <trkpt lat="47.02986" lon="6.93207">
        <ele>802.18</ele>
        <time>2020-06-27T09:11:56.904Z</time>
      </trkpt>
      <trkpt lat="47.02983" lon="6.93202">
        <ele>801.92</ele>
        <time>2020-06-27T09:11:57.347Z</time>
      </trkpt>
      <trkpt lat="47.02977" lon="6.93192">
        <ele>801.95</ele>
        <time>2020-06-27T09:11:59.386Z</time>
      </trkpt>
      <trkpt lat="47.02973" lon="6.93184">
        <ele>801.83</ele>
        <time>2020-06-27T09:12:00.358Z</time>
      </trkpt>
      <trkpt lat="47.02965" lon="6.93171">
        <ele>801.57</ele>
        <time>2020-06-27T09:12:01.995Z</time>
      </trkpt>
      <trkpt lat="47.02964" lon="6.93169">
        <ele>801.47</ele>
        <time>2020-06-27T09:12:02.157Z</time>
      </trkpt>
      <trkpt lat="47.02964" lon="6.93166">
        <ele>801.29</ele>
        <time>2020-06-27T09:12:02.359Z</time>
      </trkpt>
      <trkpt lat="47.02922" lon="6.93106">
        <ele>798.86</ele>
        <time>2020-06-27T09:12:08.914Z</time>
      </trkpt>
      <trkpt lat="47.02908" lon="6.93086">
        <ele>798.25</ele>
        <time>2020-06-27T09:12:11.330Z</time>
      </trkpt>
      <trkpt lat="47.02869" lon="6.93027">
        <ele>794.72</ele>
        <time>2020-06-27T09:12:16.541Z</time>
      </trkpt>
      <trkpt lat="47.02847" lon="6.92996">
        <ele>792.59</ele>
        <time>2020-06-27T09:12:19.553Z</time>
      </trkpt>
      <trkpt lat="47.02827" lon="6.92966">
        <ele>791</ele>
        <time>2020-06-27T09:12:22.377Z</time>
      </trkpt>
      <trkpt lat="47.02821" lon="6.92958">
        <ele>790.57</ele>
        <time>2020-06-27T09:12:23.195Z</time>
      </trkpt>
      <trkpt lat="47.0282" lon="6.92958">
        <ele>790.57</ele>
        <time>2020-06-27T09:12:23.413Z</time>
      </trkpt>
      <trkpt lat="47.0281" lon="6.92944">
        <ele>790.13</ele>
        <time>2020-06-27T09:12:25.111Z</time>
      </trkpt>
      <trkpt lat="47.02793" lon="6.92918">
        <ele>789.18</ele>
        <time>2020-06-27T09:12:27.930Z</time>
      </trkpt>
      <trkpt lat="47.02778" lon="6.92896">
        <ele>788.07</ele>
        <time>2020-06-27T09:12:30.082Z</time>
      </trkpt>
      <trkpt lat="47.02747" lon="6.92852">
        <ele>786.26</ele>
        <time>2020-06-27T09:12:34.882Z</time>
      </trkpt>
      <trkpt lat="47.0272" lon="6.92812">
        <ele>784.4</ele>
        <time>2020-06-27T09:12:38.908Z</time>
      </trkpt>
      <trkpt lat="47.02706" lon="6.92792">
        <ele>783.48</ele>
        <time>2020-06-27T09:12:40.984Z</time>
      </trkpt>
      <trkpt lat="47.0269" lon="6.9277">
        <ele>782.73</ele>
        <time>2020-06-27T09:12:43.614Z</time>
      </trkpt>
      <trkpt lat="47.02675" lon="6.92751">
        <ele>782.05</ele>
        <time>2020-06-27T09:12:45.989Z</time>
      </trkpt>
      <trkpt lat="47.02664" lon="6.92735">
        <ele>781.08</ele>
        <time>2020-06-27T09:12:47.434Z</time>
      </trkpt>
      <trkpt lat="47.02627" lon="6.92681">
        <ele>779.86</ele>
        <time>2020-06-27T09:12:54.460Z</time>
      </trkpt>
      <trkpt lat="47.02607" lon="6.9265">
        <ele>778.42</ele>
        <time>2020-06-27T09:12:57.485Z</time>
      </trkpt>
      <trkpt lat="47.02573" lon="6.926">
        <ele>777.53</ele>
        <time>2020-06-27T09:13:04.344Z</time>
      </trkpt>
      <trkpt lat="47.02552" lon="6.92568">
        <ele>776.66</ele>
        <time>2020-06-27T09:13:08.188Z</time>
      </trkpt>
      <trkpt lat="47.02543" lon="6.92551">
        <ele>776.94</ele>
        <time>2020-06-27T09:13:12.061Z</time>
      </trkpt>
      <trkpt lat="47.02536" lon="6.92538">
        <ele>776.91</ele>
        <time>2020-06-27T09:13:14.425Z</time>
      </trkpt>
      <trkpt lat="47.02525" lon="6.92512">
        <ele>776.63</ele>
        <time>2020-06-27T09:13:17.588Z</time>
      </trkpt>
      <trkpt lat="47.02515" lon="6.9249">
        <ele>776.6</ele>
        <time>2020-06-27T09:13:21.416Z</time>
      </trkpt>
      <trkpt lat="47.02502" lon="6.92459">
        <ele>776.94</ele>
        <time>2020-06-27T09:13:27.596Z</time>
      </trkpt>
      <trkpt lat="47.02496" lon="6.92444">
        <ele>776.82</ele>
        <time>2020-06-27T09:13:29.473Z</time>
      </trkpt>
      <trkpt lat="47.02489" lon="6.92425">
        <ele>777.04</ele>
        <time>2020-06-27T09:13:33.188Z</time>
      </trkpt>
      <trkpt lat="47.02485" lon="6.92415">
        <ele>777.19</ele>
        <time>2020-06-27T09:13:35.272Z</time>
      </trkpt>
      <trkpt lat="47.02468" lon="6.92391">
        <ele>777.74</ele>
        <time>2020-06-27T09:13:41.807Z</time>
      </trkpt>
      <trkpt lat="47.02452" lon="6.92369">
        <ele>778.23</ele>
        <time>2020-06-27T09:13:47.813Z</time>
      </trkpt>
      <trkpt lat="47.02408" lon="6.92312">
        <ele>779.11</ele>
        <time>2020-06-27T09:14:02.634Z</time>
      </trkpt>
      <trkpt lat="47.02408" lon="6.92311">
        <ele>779.11</ele>
        <time>2020-06-27T09:14:02.783Z</time>
      </trkpt>
      <trkpt lat="47.02405" lon="6.92307">
        <ele>780</ele>
        <time>2020-06-27T09:14:06.189Z</time>
      </trkpt>
      <trkpt lat="47.02395" lon="6.92293">
        <ele>780.39</ele>
        <time>2020-06-27T09:14:10.249Z</time>
      </trkpt>
      <trkpt lat="47.02392" lon="6.9229">
        <ele>780.49</ele>
        <time>2020-06-27T09:14:11.307Z</time>
      </trkpt>
      <trkpt lat="47.02373" lon="6.9226">
        <ele>781.45</ele>
        <time>2020-06-27T09:14:20.184Z</time>
      </trkpt>
      <trkpt lat="47.02369" lon="6.92254">
        <ele>781.38</ele>
        <time>2020-06-27T09:14:21.064Z</time>
      </trkpt>
      <trkpt lat="47.02366" lon="6.92248">
        <ele>781.17</ele>
        <time>2020-06-27T09:14:21.632Z</time>
      </trkpt>
      <trkpt lat="47.02358" lon="6.92232">
        <ele>780.13</ele>
        <time>2020-06-27T09:14:22.967Z</time>
      </trkpt>
      <trkpt lat="47.02351" lon="6.92217">
        <ele>780.14</ele>
        <time>2020-06-27T09:14:25.687Z</time>
      </trkpt>
      <trkpt lat="47.02344" lon="6.92199">
        <ele>779.27</ele>
        <time>2020-06-27T09:14:27.015Z</time>
      </trkpt>
      <trkpt lat="47.02335" lon="6.92181">
        <ele>778.54</ele>
        <time>2020-06-27T09:14:28.619Z</time>
      </trkpt>
      <trkpt lat="47.02331" lon="6.92174">
        <ele>778.15</ele>
        <time>2020-06-27T09:14:29.200Z</time>
      </trkpt>
      <trkpt lat="47.02312" lon="6.92142">
        <ele>776.23</ele>
        <time>2020-06-27T09:14:31.822Z</time>
      </trkpt>
      <trkpt lat="47.02285" lon="6.92109">
        <ele>776.04</ele>
        <time>2020-06-27T09:14:38.892Z</time>
      </trkpt>
      <trkpt lat="47.0227" lon="6.92093">
        <ele>776.07</ele>
        <time>2020-06-27T09:14:42.992Z</time>
      </trkpt>
      <trkpt lat="47.02237" lon="6.9205">
        <ele>776.03</ele>
        <time>2020-06-27T09:14:52.475Z</time>
      </trkpt>
      <trkpt lat="47.02213" lon="6.9202">
        <ele>774.16</ele>
        <time>2020-06-27T09:14:55.495Z</time>
      </trkpt>
      <trkpt lat="47.0219" lon="6.91993">
        <ele>774.36</ele>
        <time>2020-06-27T09:15:02.338Z</time>
      </trkpt>
      <trkpt lat="47.02168" lon="6.91964">
        <ele>774.13</ele>
        <time>2020-06-27T09:15:07.169Z</time>
      </trkpt>
      <trkpt lat="47.02197" lon="6.91984">
        <ele>771.23</ele>
        <time>2020-06-27T09:15:10.333Z</time>
      </trkpt>
      <trkpt lat="47.02214" lon="6.91993">
        <ele>769.68</ele>
        <time>2020-06-27T09:15:12.117Z</time>
      </trkpt>
      <trkpt lat="47.02213" lon="6.91993">
        <ele>769.68</ele>
        <time>2020-06-27T09:15:12.335Z</time>
      </trkpt>
      <trkpt lat="47.02221" lon="6.91997">
        <ele>768.13</ele>
        <time>2020-06-27T09:15:13.170Z</time>
      </trkpt>
      <trkpt lat="47.0223" lon="6.92001">
        <ele>767.54</ele>
        <time>2020-06-27T09:15:14.046Z</time>
      </trkpt>
      <trkpt lat="47.02245" lon="6.92007">
        <ele>765.55</ele>
        <time>2020-06-27T09:15:15.581Z</time>
      </trkpt>
      <trkpt lat="47.02255" lon="6.92008">
        <ele>763.96</ele>
        <time>2020-06-27T09:15:16.571Z</time>
      </trkpt>
      <trkpt lat="47.02267" lon="6.92009">
        <ele>762.75</ele>
        <time>2020-06-27T09:15:17.757Z</time>
      </trkpt>
      <trkpt lat="47.02275" lon="6.92009">
        <ele>761.9</ele>
        <time>2020-06-27T09:15:18.547Z</time>
      </trkpt>
      <trkpt lat="47.02285" lon="6.92006">
        <ele>760.55</ele>
        <time>2020-06-27T09:15:19.555Z</time>
      </trkpt>
      <trkpt lat="47.02296" lon="6.92002">
        <ele>759</ele>
        <time>2020-06-27T09:15:20.674Z</time>
      </trkpt>
      <trkpt lat="47.02299" lon="6.91994">
        <ele>758.71</ele>
        <time>2020-06-27T09:15:21.338Z</time>
      </trkpt>
      <trkpt lat="47.02306" lon="6.92">
        <ele>758.65</ele>
        <time>2020-06-27T09:15:22.669Z</time>
      </trkpt>
      <trkpt lat="47.02306" lon="6.91999">
        <ele>758.59</ele>
        <time>2020-06-27T09:15:22.736Z</time>
      </trkpt>
      <trkpt lat="47.02306" lon="6.91997">
        <ele>758.47</ele>
        <time>2020-06-27T09:15:22.871Z</time>
      </trkpt>
      <trkpt lat="47.02306" lon="6.91996">
        <ele>758.33</ele>
        <time>2020-06-27T09:15:22.938Z</time>
      </trkpt>
      <trkpt lat="47.02304" lon="6.91993">
        <ele>758.02</ele>
        <time>2020-06-27T09:15:23.221Z</time>
      </trkpt>
      <trkpt lat="47.02302" lon="6.91988">
        <ele>758</ele>
        <time>2020-06-27T09:15:24.020Z</time>
      </trkpt>
      <trkpt lat="47.02297" lon="6.91981">
        <ele>757.84</ele>
        <time>2020-06-27T09:15:24.952Z</time>
      </trkpt>
      <trkpt lat="47.02283" lon="6.91963">
        <ele>757.35</ele>
        <time>2020-06-27T09:15:27.378Z</time>
      </trkpt>
      <trkpt lat="47.0226" lon="6.9193">
        <ele>757.02</ele>
        <time>2020-06-27T09:15:32.461Z</time>
      </trkpt>
      <trkpt lat="47.02256" lon="6.91924">
        <ele>756.85</ele>
        <time>2020-06-27T09:15:33.180Z</time>
      </trkpt>
      <trkpt lat="47.02255" lon="6.91924">
        <ele>756.85</ele>
        <time>2020-06-27T09:15:33.397Z</time>
      </trkpt>
      <trkpt lat="47.02241" lon="6.91905">
        <ele>756.69</ele>
        <time>2020-06-27T09:15:36.487Z</time>
      </trkpt>
      <trkpt lat="47.02237" lon="6.91901">
        <ele>756.8</ele>
        <time>2020-06-27T09:15:37.819Z</time>
      </trkpt>
      <trkpt lat="47.02224" lon="6.91885">
        <ele>756.19</ele>
        <time>2020-06-27T09:15:39.820Z</time>
      </trkpt>
      <trkpt lat="47.02212" lon="6.91871">
        <ele>756.2</ele>
        <time>2020-06-27T09:15:43.179Z</time>
      </trkpt>
      <trkpt lat="47.02204" lon="6.91863">
        <ele>756.58</ele>
        <time>2020-06-27T09:15:46.472Z</time>
      </trkpt>
      <trkpt lat="47.02185" lon="6.91847">
        <ele>757.72</ele>
        <time>2020-06-27T09:15:54.929Z</time>
      </trkpt>
      <trkpt lat="47.0217" lon="6.91837">
        <ele>758.93</ele>
        <time>2020-06-27T09:16:02.343Z</time>
      </trkpt>
      <trkpt lat="47.02146" lon="6.91819">
        <ele>760.1</ele>
        <time>2020-06-27T09:16:12.090Z</time>
      </trkpt>
      <trkpt lat="47.02113" lon="6.91798">
        <ele>761.89</ele>
        <time>2020-06-27T09:16:25.769Z</time>
      </trkpt>
      <trkpt lat="47.021" lon="6.91788">
        <ele>762.14</ele>
        <time>2020-06-27T09:16:29.557Z</time>
      </trkpt>
      <trkpt lat="47.0209" lon="6.91779">
        <ele>762.02</ele>
        <time>2020-06-27T09:16:31.412Z</time>
      </trkpt>
      <trkpt lat="47.02074" lon="6.91765">
        <ele>761.72</ele>
        <time>2020-06-27T09:16:34.144Z</time>
      </trkpt>
      <trkpt lat="47.02062" lon="6.91753">
        <ele>761.42</ele>
        <time>2020-06-27T09:16:36.161Z</time>
      </trkpt>
      <trkpt lat="47.02048" lon="6.9174">
        <ele>761.2</ele>
        <time>2020-06-27T09:16:38.678Z</time>
      </trkpt>
      <trkpt lat="47.02036" lon="6.91728">
        <ele>761</ele>
        <time>2020-06-27T09:16:40.871Z</time>
      </trkpt>
      <trkpt lat="47.02025" lon="6.91717">
        <ele>760.94</ele>
        <time>2020-06-27T09:16:43.583Z</time>
      </trkpt>
      <trkpt lat="47.0201" lon="6.91704">
        <ele>760.78</ele>
        <time>2020-06-27T09:16:46.375Z</time>
      </trkpt>
      <trkpt lat="47.01998" lon="6.91695">
        <ele>760.72</ele>
        <time>2020-06-27T09:16:49.124Z</time>
      </trkpt>
      <trkpt lat="47.01984" lon="6.91682">
        <ele>760.58</ele>
        <time>2020-06-27T09:16:51.806Z</time>
      </trkpt>
      <trkpt lat="47.01976" lon="6.91676">
        <ele>760.2</ele>
        <time>2020-06-27T09:16:52.803Z</time>
      </trkpt>
      <trkpt lat="47.0197" lon="6.91671">
        <ele>759.7</ele>
        <time>2020-06-27T09:16:53.484Z</time>
      </trkpt>
      <trkpt lat="47.01962" lon="6.91661">
        <ele>758.59</ele>
        <time>2020-06-27T09:16:54.522Z</time>
      </trkpt>
      <trkpt lat="47.01955" lon="6.9165">
        <ele>757.8</ele>
        <time>2020-06-27T09:16:55.534Z</time>
      </trkpt>
      <trkpt lat="47.01944" lon="6.91639">
        <ele>756.25</ele>
        <time>2020-06-27T09:16:56.849Z</time>
      </trkpt>
      <trkpt lat="47.01928" lon="6.91626">
        <ele>754.58</ele>
        <time>2020-06-27T09:16:58.654Z</time>
      </trkpt>
      <trkpt lat="47.01893" lon="6.91605">
        <ele>750.26</ele>
        <time>2020-06-27T09:17:02.388Z</time>
      </trkpt>
      <trkpt lat="47.0187" lon="6.91587">
        <ele>747.93</ele>
        <time>2020-06-27T09:17:04.961Z</time>
      </trkpt>
      <trkpt lat="47.01856" lon="6.91571">
        <ele>743.16</ele>
        <time>2020-06-27T09:17:06.714Z</time>
      </trkpt>
      <trkpt lat="47.01845" lon="6.91553">
        <ele>738.06</ele>
        <time>2020-06-27T09:17:08.341Z</time>
      </trkpt>
      <trkpt lat="47.01832" lon="6.91523">
        <ele>731.97</ele>
        <time>2020-06-27T09:17:10.733Z</time>
      </trkpt>
      <trkpt lat="47.01817" lon="6.91474">
        <ele>724.76</ele>
        <time>2020-06-27T09:17:14.349Z</time>
      </trkpt>
      <trkpt lat="47.01812" lon="6.91459">
        <ele>723.37</ele>
        <time>2020-06-27T09:17:15.472Z</time>
      </trkpt>
      <trkpt lat="47.01812" lon="6.91458">
        <ele>723.37</ele>
        <time>2020-06-27T09:17:15.621Z</time>
      </trkpt>
      <trkpt lat="47.01808" lon="6.91447">
        <ele>721.99</ele>
        <time>2020-06-27T09:17:16.460Z</time>
      </trkpt>
      <trkpt lat="47.01798" lon="6.91426">
        <ele>720.1</ele>
        <time>2020-06-27T09:17:18.184Z</time>
      </trkpt>
      <trkpt lat="47.01785" lon="6.91401">
        <ele>719.66</ele>
        <time>2020-06-27T09:17:21.166Z</time>
      </trkpt>
      <trkpt lat="47.01781" lon="6.91394">
        <ele>719.39</ele>
        <time>2020-06-27T09:17:21.850Z</time>
      </trkpt>
      <trkpt lat="47.01776" lon="6.91385">
        <ele>719.04</ele>
        <time>2020-06-27T09:17:22.712Z</time>
      </trkpt>
      <trkpt lat="47.01769" lon="6.91373">
        <ele>718.46</ele>
        <time>2020-06-27T09:17:23.791Z</time>
      </trkpt>
      <trkpt lat="47.01762" lon="6.91361">
        <ele>717.4</ele>
        <time>2020-06-27T09:17:24.854Z</time>
      </trkpt>
      <trkpt lat="47.01758" lon="6.91353">
        <ele>716.37</ele>
        <time>2020-06-27T09:17:25.521Z</time>
      </trkpt>
      <trkpt lat="47.01753" lon="6.91341">
        <ele>715.04</ele>
        <time>2020-06-27T09:17:26.468Z</time>
      </trkpt>
      <trkpt lat="47.01751" lon="6.91334">
        <ele>714.25</ele>
        <time>2020-06-27T09:17:26.979Z</time>
      </trkpt>
      <trkpt lat="47.0175" lon="6.91329">
        <ele>713.73</ele>
        <time>2020-06-27T09:17:27.330Z</time>
      </trkpt>
      <trkpt lat="47.0175" lon="6.91323">
        <ele>713.21</ele>
        <time>2020-06-27T09:17:27.734Z</time>
      </trkpt>
      <trkpt lat="47.0175" lon="6.91314">
        <ele>712.15</ele>
        <time>2020-06-27T09:17:28.339Z</time>
      </trkpt>
      <trkpt lat="47.01749" lon="6.91305">
        <ele>711.16</ele>
        <time>2020-06-27T09:17:28.953Z</time>
      </trkpt>
      <trkpt lat="47.01747" lon="6.91296">
        <ele>710.37</ele>
        <time>2020-06-27T09:17:29.590Z</time>
      </trkpt>
      <trkpt lat="47.01744" lon="6.91285">
        <ele>709.12</ele>
        <time>2020-06-27T09:17:30.388Z</time>
      </trkpt>
      <trkpt lat="47.01742" lon="6.91274">
        <ele>707.78</ele>
        <time>2020-06-27T09:17:31.154Z</time>
      </trkpt>
      <trkpt lat="47.01741" lon="6.91267">
        <ele>706.8</ele>
        <time>2020-06-27T09:17:31.635Z</time>
      </trkpt>
      <trkpt lat="47.0174" lon="6.91254">
        <ele>704.6</ele>
        <time>2020-06-27T09:17:32.516Z</time>
      </trkpt>
      <trkpt lat="47.0174" lon="6.91247">
        <ele>703.28</ele>
        <time>2020-06-27T09:17:32.987Z</time>
      </trkpt>
      <trkpt lat="47.01738" lon="6.91237">
        <ele>701.32</ele>
        <time>2020-06-27T09:17:33.689Z</time>
      </trkpt>
      <trkpt lat="47.01737" lon="6.91226">
        <ele>699.48</ele>
        <time>2020-06-27T09:17:34.435Z</time>
      </trkpt>
      <trkpt lat="47.01737" lon="6.91218">
        <ele>698.31</ele>
        <time>2020-06-27T09:17:34.974Z</time>
      </trkpt>
      <trkpt lat="47.01737" lon="6.9121">
        <ele>697.25</ele>
        <time>2020-06-27T09:17:35.512Z</time>
      </trkpt>
      <trkpt lat="47.01737" lon="6.91202">
        <ele>696.02</ele>
        <time>2020-06-27T09:17:36.051Z</time>
      </trkpt>
      <trkpt lat="47.01736" lon="6.91194">
        <ele>695</ele>
        <time>2020-06-27T09:17:36.598Z</time>
      </trkpt>
      <trkpt lat="47.01734" lon="6.91185">
        <ele>693.9</ele>
        <time>2020-06-27T09:17:37.235Z</time>
      </trkpt>
      <trkpt lat="47.01731" lon="6.91174">
        <ele>692.63</ele>
        <time>2020-06-27T09:17:38.033Z</time>
      </trkpt>
      <trkpt lat="47.01727" lon="6.91164">
        <ele>691.34</ele>
        <time>2020-06-27T09:17:38.813Z</time>
      </trkpt>
      <trkpt lat="47.01725" lon="6.91156">
        <ele>690.26</ele>
        <time>2020-06-27T09:17:39.387Z</time>
      </trkpt>
      <trkpt lat="47.01724" lon="6.91149">
        <ele>689.37</ele>
        <time>2020-06-27T09:17:39.868Z</time>
      </trkpt>
      <trkpt lat="47.01724" lon="6.91139">
        <ele>688.08</ele>
        <time>2020-06-27T09:17:40.541Z</time>
      </trkpt>
      <trkpt lat="47.01725" lon="6.9113">
        <ele>687.1</ele>
        <time>2020-06-27T09:17:41.155Z</time>
      </trkpt>
      <trkpt lat="47.0172" lon="6.91122">
        <ele>685.9</ele>
        <time>2020-06-27T09:17:41.886Z</time>
      </trkpt>
      <trkpt lat="47.01714" lon="6.91111">
        <ele>684.44</ele>
        <time>2020-06-27T09:17:42.834Z</time>
      </trkpt>
      <trkpt lat="47.01707" lon="6.91098">
        <ele>682.46</ele>
        <time>2020-06-27T09:17:43.949Z</time>
      </trkpt>
      <trkpt lat="47.01692" lon="6.91068">
        <ele>677.47</ele>
        <time>2020-06-27T09:17:46.453Z</time>
      </trkpt>
      <trkpt lat="47.01688" lon="6.91058">
        <ele>675.9</ele>
        <time>2020-06-27T09:17:47.233Z</time>
      </trkpt>
      <trkpt lat="47.01683" lon="6.91044">
        <ele>673.86</ele>
        <time>2020-06-27T09:17:48.297Z</time>
      </trkpt>
      <trkpt lat="47.01671" lon="6.91007">
        <ele>667.87</ele>
        <time>2020-06-27T09:17:51.055Z</time>
      </trkpt>
      <trkpt lat="47.01668" lon="6.90997">
        <ele>666.31</ele>
        <time>2020-06-27T09:17:51.790Z</time>
      </trkpt>
      <trkpt lat="47.01665" lon="6.90988">
        <ele>664.76</ele>
        <time>2020-06-27T09:17:52.465Z</time>
      </trkpt>
      <trkpt lat="47.01655" lon="6.90968">
        <ele>662.06</ele>
        <time>2020-06-27T09:17:54.134Z</time>
      </trkpt>
      <trkpt lat="47.01651" lon="6.90959">
        <ele>661.02</ele>
        <time>2020-06-27T09:17:54.857Z</time>
      </trkpt>
      <trkpt lat="47.01651" lon="6.90958">
        <ele>661.02</ele>
        <time>2020-06-27T09:17:55.006Z</time>
      </trkpt>
      <trkpt lat="47.01648" lon="6.90954">
        <ele>659.98</ele>
        <time>2020-06-27T09:17:55.406Z</time>
      </trkpt>
      <trkpt lat="47.01632" lon="6.90903">
        <ele>653.41</ele>
        <time>2020-06-27T09:17:59.185Z</time>
      </trkpt>
      <trkpt lat="47.01628" lon="6.90885">
        <ele>651.21</ele>
        <time>2020-06-27T09:18:00.459Z</time>
      </trkpt>
      <trkpt lat="47.01623" lon="6.90868">
        <ele>649.49</ele>
        <time>2020-06-27T09:18:01.705Z</time>
      </trkpt>
      <trkpt lat="47.01617" lon="6.90847">
        <ele>647.66</ele>
        <time>2020-06-27T09:18:03.238Z</time>
      </trkpt>
      <trkpt lat="47.01615" lon="6.90842">
        <ele>647.05</ele>
        <time>2020-06-27T09:18:03.628Z</time>
      </trkpt>
      <trkpt lat="47.01615" lon="6.90841">
        <ele>647.05</ele>
        <time>2020-06-27T09:18:03.777Z</time>
      </trkpt>
      <trkpt lat="47.01607" lon="6.90822">
        <ele>646.45</ele>
        <time>2020-06-27T09:18:05.512Z</time>
      </trkpt>
      <trkpt lat="47.01604" lon="6.90814">
        <ele>646.27</ele>
        <time>2020-06-27T09:18:06.301Z</time>
      </trkpt>
      <trkpt lat="47.01607" lon="6.90809">
        <ele>646.31</ele>
        <time>2020-06-27T09:18:07.377Z</time>
      </trkpt>
      <trkpt lat="47.01611" lon="6.90795">
        <ele>646.23</ele>
        <time>2020-06-27T09:18:09.069Z</time>
      </trkpt>
      <trkpt lat="47.01615" lon="6.90788">
        <ele>645.55</ele>
        <time>2020-06-27T09:18:09.683Z</time>
      </trkpt>
      <trkpt lat="47.01628" lon="6.90798">
        <ele>645.5</ele>
        <time>2020-06-27T09:18:12.722Z</time>
      </trkpt>
      <trkpt lat="47.01643" lon="6.90808">
        <ele>645.8</ele>
        <time>2020-06-27T09:18:17.030Z</time>
      </trkpt>
      <trkpt lat="47.01654" lon="6.90815">
        <ele>646.32</ele>
        <time>2020-06-27T09:18:21.363Z</time>
      </trkpt>
      <trkpt lat="47.01653" lon="6.90815">
        <ele>646.32</ele>
        <time>2020-06-27T09:18:21.581Z</time>
      </trkpt>
      <trkpt lat="47.01687" lon="6.9084">
        <ele>646.83</ele>
        <time>2020-06-27T09:18:31.025Z</time>
      </trkpt>
      <trkpt lat="47.01712" lon="6.90858">
        <ele>648.23</ele>
        <time>2020-06-27T09:18:41.651Z</time>
      </trkpt>
      <trkpt lat="47.01715" lon="6.90858">
        <ele>648.48</ele>
        <time>2020-06-27T09:18:43.113Z</time>
      </trkpt>
      <trkpt lat="47.01717" lon="6.90857">
        <ele>648.79</ele>
        <time>2020-06-27T09:18:44.888Z</time>
      </trkpt>
      <trkpt lat="47.01719" lon="6.90851">
        <ele>648.84</ele>
        <time>2020-06-27T09:18:45.991Z</time>
      </trkpt>
      <trkpt lat="47.01722" lon="6.90841">
        <ele>649.15</ele>
        <time>2020-06-27T09:18:48.613Z</time>
      </trkpt>
      <trkpt lat="47.01728" lon="6.90819">
        <ele>649.73</ele>
        <time>2020-06-27T09:18:53.856Z</time>
      </trkpt>
      <trkpt lat="47.01713" lon="6.90812">
        <ele>649.65</ele>
        <time>2020-06-27T09:18:57.037Z</time>
      </trkpt>
      <trkpt lat="47.01713" lon="6.90811">
        <ele>649.65</ele>
        <time>2020-06-27T09:18:57.186Z</time>
      </trkpt>
      <trkpt lat="47.0171" lon="6.9081">
        <ele>649.57</ele>
        <time>2020-06-27T09:18:57.588Z</time>
      </trkpt>
      <trkpt lat="47.01701" lon="6.90804">
        <ele>649.44</ele>
        <time>2020-06-27T09:18:59.092Z</time>
      </trkpt>
      <trkpt lat="47.01692" lon="6.90797">
        <ele>649.35</ele>
        <time>2020-06-27T09:19:00.733Z</time>
      </trkpt>
      <trkpt lat="47.01682" lon="6.90787">
        <ele>649.42</ele>
        <time>2020-06-27T09:19:03.516Z</time>
      </trkpt>
      <trkpt lat="47.01675" lon="6.90778">
        <ele>649.28</ele>
        <time>2020-06-27T09:19:04.900Z</time>
      </trkpt>
      <trkpt lat="47.01669" lon="6.90766">
        <ele>649.54</ele>
        <time>2020-06-27T09:19:07.787Z</time>
      </trkpt>
      <trkpt lat="47.01664" lon="6.90755">
        <ele>649.64</ele>
        <time>2020-06-27T09:19:09.973Z</time>
      </trkpt>
      <trkpt lat="47.01663" lon="6.90755">
        <ele>649.64</ele>
        <time>2020-06-27T09:19:10.191Z</time>
      </trkpt>
      <trkpt lat="47.01661" lon="6.9075">
        <ele>649.74</ele>
        <time>2020-06-27T09:19:11.311Z</time>
      </trkpt>
      <trkpt lat="47.01649" lon="6.9072">
        <ele>650.5</ele>
        <time>2020-06-27T09:19:18.623Z</time>
      </trkpt>
      <trkpt lat="47.01644" lon="6.90713">
        <ele>650.6</ele>
        <time>2020-06-27T09:19:20.359Z</time>
      </trkpt>
      <trkpt lat="47.0164" lon="6.90706">
        <ele>650.88</ele>
        <time>2020-06-27T09:19:22.655Z</time>
      </trkpt>
      <trkpt lat="47.01634" lon="6.90698">
        <ele>651.23</ele>
        <time>2020-06-27T09:19:25.576Z</time>
      </trkpt>
      <trkpt lat="47.01628" lon="6.90692">
        <ele>651.17</ele>
        <time>2020-06-27T09:19:26.754Z</time>
      </trkpt>
      <trkpt lat="47.01622" lon="6.90688">
        <ele>651.21</ele>
        <time>2020-06-27T09:19:28.275Z</time>
      </trkpt>
      <trkpt lat="47.01619" lon="6.90686">
        <ele>651.1</ele>
        <time>2020-06-27T09:19:28.673Z</time>
      </trkpt>
      <trkpt lat="47.01608" lon="6.9068">
        <ele>650.91</ele>
        <time>2020-06-27T09:19:30.392Z</time>
      </trkpt>
      <trkpt lat="47.01607" lon="6.90679">
        <ele>650.96</ele>
        <time>2020-06-27T09:19:30.816Z</time>
      </trkpt>
      <trkpt lat="47.01605" lon="6.90677">
        <ele>650.94</ele>
        <time>2020-06-27T09:19:31.209Z</time>
      </trkpt>
      <trkpt lat="47.01604" lon="6.90675">
        <ele>650.95</ele>
        <time>2020-06-27T09:19:31.599Z</time>
      </trkpt>
      <trkpt lat="47.01604" lon="6.90673">
        <ele>650.95</ele>
        <time>2020-06-27T09:19:31.896Z</time>
      </trkpt>
      <trkpt lat="47.01603" lon="6.90671">
        <ele>650.95</ele>
        <time>2020-06-27T09:19:32.264Z</time>
      </trkpt>
      <trkpt lat="47.01603" lon="6.90669">
        <ele>650.9</ele>
        <time>2020-06-27T09:19:32.424Z</time>
      </trkpt>
      <trkpt lat="47.01604" lon="6.90666">
        <ele>650.84</ele>
        <time>2020-06-27T09:19:32.720Z</time>
      </trkpt>
      <trkpt lat="47.01606" lon="6.90655">
        <ele>650.72</ele>
        <time>2020-06-27T09:19:33.867Z</time>
      </trkpt>
      <trkpt lat="47.01607" lon="6.90655">
        <ele>650.72</ele>
        <time>2020-06-27T09:19:34.085Z</time>
      </trkpt>
      <trkpt lat="47.01608" lon="6.90654">
        <ele>650.72</ele>
        <time>2020-06-27T09:19:34.349Z</time>
      </trkpt>
      <trkpt lat="47.01609" lon="6.90652">
        <ele>650.72</ele>
        <time>2020-06-27T09:19:34.717Z</time>
      </trkpt>
      <trkpt lat="47.01609" lon="6.90652">
        <ele>650.72</ele>
        <time>2020-06-27T09:19:34.717Z</time>
      </trkpt>
      <trkpt lat="47.01609" lon="6.9065">
        <ele>650.72</ele>
        <time>2020-06-27T09:19:35.014Z</time>
      </trkpt>
      <trkpt lat="47.01611" lon="6.90649">
        <ele>650.73</ele>
        <time>2020-06-27T09:19:35.495Z</time>
      </trkpt>
      <trkpt lat="47.01613" lon="6.90647">
        <ele>650.79</ele>
        <time>2020-06-27T09:19:36.178Z</time>
      </trkpt>
      <trkpt lat="47.01615" lon="6.90643">
        <ele>650.89</ele>
        <time>2020-06-27T09:19:37.188Z</time>
      </trkpt>
      <trkpt lat="47.01621" lon="6.90633">
        <ele>651.46</ele>
        <time>2020-06-27T09:19:40.963Z</time>
      </trkpt>
      <trkpt lat="47.01621" lon="6.90633">
        <ele>652.55</ele>
        <time>2020-06-27T09:19:40.963Z</time>
      </trkpt>
      <trkpt lat="47.01621" lon="6.90633">
        <ele>651.17</ele>
        <time>2020-06-27T09:19:40.963Z</time>
      </trkpt>
      <trkpt lat="47.01621" lon="6.90633">
        <ele>651.46</ele>
        <time>2020-06-27T09:19:40.963Z</time>
      </trkpt>
      <trkpt lat="47.01641" lon="6.90596">
        <ele>653.65</ele>
        <time>2020-06-27T09:19:54.866Z</time>
      </trkpt>
      <trkpt lat="47.01629" lon="6.90582">
        <ele>653.97</ele>
        <time>2020-06-27T09:19:58.995Z</time>
      </trkpt>
      <trkpt lat="47.01626" lon="6.9058">
        <ele>654.3</ele>
        <time>2020-06-27T09:20:00.865Z</time>
      </trkpt>
      <trkpt lat="47.01626" lon="6.90579">
        <ele>654.3</ele>
        <time>2020-06-27T09:20:01.013Z</time>
      </trkpt>
      <trkpt lat="47.01621" lon="6.90574">
        <ele>654.63</ele>
        <time>2020-06-27T09:20:03.389Z</time>
      </trkpt>
      <trkpt lat="47.01602" lon="6.90553">
        <ele>656.03</ele>
        <time>2020-06-27T09:20:13.007Z</time>
      </trkpt>
      <trkpt lat="47.01604" lon="6.9055">
        <ele>656.03</ele>
        <time>2020-06-27T09:20:13.631Z</time>
      </trkpt>
      <trkpt lat="47.01606" lon="6.90549">
        <ele>656.19</ele>
        <time>2020-06-27T09:20:14.598Z</time>
      </trkpt>
      <trkpt lat="47.01615" lon="6.90538">
        <ele>657.07</ele>
        <time>2020-06-27T09:20:19.939Z</time>
      </trkpt>
      <trkpt lat="47.01615" lon="6.90538">
        <ele>657.07</ele>
        <time>2020-06-27T09:20:19.939Z</time>
      </trkpt>
      <trkpt lat="47.0162" lon="6.90533">
        <ele>657.95</ele>
        <time>2020-06-27T09:20:25.024Z</time>
      </trkpt>
      <trkpt lat="47.01625" lon="6.90521">
        <ele>658.59</ele>
        <time>2020-06-27T09:20:29.126Z</time>
      </trkpt>
      <trkpt lat="47.01633" lon="6.9051">
        <ele>659.07</ele>
        <time>2020-06-27T09:20:33.113Z</time>
      </trkpt>
      <trkpt lat="47.0164" lon="6.90501">
        <ele>659.71</ele>
        <time>2020-06-27T09:20:37.155Z</time>
      </trkpt>
      <trkpt lat="47.01647" lon="6.9049">
        <ele>661.31</ele>
        <time>2020-06-27T09:20:45.774Z</time>
      </trkpt>
      <trkpt lat="47.01653" lon="6.90485">
        <ele>661.79</ele>
        <time>2020-06-27T09:20:48.789Z</time>
      </trkpt>
      <trkpt lat="47.01657" lon="6.90479">
        <ele>662.11</ele>
        <time>2020-06-27T09:20:51.056Z</time>
      </trkpt>
      <trkpt lat="47.01655" lon="6.90476">
        <ele>662.59</ele>
        <time>2020-06-27T09:20:53.460Z</time>
      </trkpt>
      <trkpt lat="47.01652" lon="6.90473">
        <ele>662.59</ele>
        <time>2020-06-27T09:20:54.251Z</time>
      </trkpt>
      <trkpt lat="47.01646" lon="6.90465">
        <ele>664.34</ele>
        <time>2020-06-27T09:21:01.063Z</time>
      </trkpt>
      <trkpt lat="47.01645" lon="6.90465">
        <ele>664.34</ele>
        <time>2020-06-27T09:21:01.281Z</time>
      </trkpt>
      <trkpt lat="47.01631" lon="6.90447">
        <ele>666.09</ele>
        <time>2020-06-27T09:21:11.244Z</time>
      </trkpt>
      <trkpt lat="47.01629" lon="6.90444">
        <ele>666.31</ele>
        <time>2020-06-27T09:21:12.567Z</time>
      </trkpt>
      <trkpt lat="47.01626" lon="6.90447">
        <ele>666.63</ele>
        <time>2020-06-27T09:21:14.410Z</time>
      </trkpt>
      <trkpt lat="47.01617" lon="6.90454">
        <ele>668.18</ele>
        <time>2020-06-27T09:21:22.969Z</time>
      </trkpt>
      <trkpt lat="47.01615" lon="6.90455">
        <ele>668.37</ele>
        <time>2020-06-27T09:21:24.059Z</time>
      </trkpt>
      <trkpt lat="47.01614" lon="6.90455">
        <ele>668.42</ele>
        <time>2020-06-27T09:21:24.440Z</time>
      </trkpt>
      <trkpt lat="47.01614" lon="6.90455">
        <ele>668.43</ele>
        <time>2020-06-27T09:21:24.440Z</time>
      </trkpt>
      <trkpt lat="47.01613" lon="6.90453">
        <ele>668.45</ele>
        <time>2020-06-27T09:21:24.853Z</time>
      </trkpt>
      <trkpt lat="47.01613" lon="6.90453">
        <ele>668.47</ele>
        <time>2020-06-27T09:21:24.853Z</time>
      </trkpt>
      <trkpt lat="47.01613" lon="6.90452">
        <ele>668.5</ele>
        <time>2020-06-27T09:21:25.102Z</time>
      </trkpt>
      <trkpt lat="47.01614" lon="6.9045">
        <ele>668.63</ele>
        <time>2020-06-27T09:21:25.884Z</time>
      </trkpt>
      <trkpt lat="47.0162" lon="6.90439">
        <ele>670.16</ele>
        <time>2020-06-27T09:21:33.953Z</time>
      </trkpt>
      <trkpt lat="47.01623" lon="6.90435">
        <ele>670.6</ele>
        <time>2020-06-27T09:21:36.458Z</time>
      </trkpt>
      <trkpt lat="47.01621" lon="6.9043">
        <ele>671.08</ele>
        <time>2020-06-27T09:21:39.288Z</time>
      </trkpt>
      <trkpt lat="47.01613" lon="6.90417">
        <ele>672.77</ele>
        <time>2020-06-27T09:21:49.319Z</time>
      </trkpt>
      <trkpt lat="47.01613" lon="6.90416">
        <ele>672.77</ele>
        <time>2020-06-27T09:21:49.468Z</time>
      </trkpt>
      <trkpt lat="47.01609" lon="6.90408">
        <ele>674.46</ele>
        <time>2020-06-27T09:21:55.151Z</time>
      </trkpt>
      <trkpt lat="47.01587" lon="6.90367">
        <ele>680.41</ele>
        <time>2020-06-27T09:22:25.038Z</time>
      </trkpt>
      <trkpt lat="47.01583" lon="6.90362">
        <ele>681.62</ele>
        <time>2020-06-27T09:22:29.453Z</time>
      </trkpt>
      <trkpt lat="47.01579" lon="6.90358">
        <ele>682.63</ele>
        <time>2020-06-27T09:22:33.521Z</time>
      </trkpt>
      <trkpt lat="47.01572" lon="6.90356">
        <ele>683.62</ele>
        <time>2020-06-27T09:22:39.512Z</time>
      </trkpt>
      <trkpt lat="47.01553" lon="6.90355">
        <ele>687.79</ele>
        <time>2020-06-27T09:22:55.486Z</time>
      </trkpt>
      <trkpt lat="47.01547" lon="6.90355">
        <ele>689.14</ele>
        <time>2020-06-27T09:23:00.527Z</time>
      </trkpt>
      <trkpt lat="47.01545" lon="6.90353">
        <ele>689.38</ele>
        <time>2020-06-27T09:23:01.887Z</time>
      </trkpt>
      <trkpt lat="47.01544" lon="6.90352">
        <ele>688.85</ele>
        <time>2020-06-27T09:23:02.006Z</time>
      </trkpt>
      <trkpt lat="47.01544" lon="6.90353">
        <ele>689.62</ele>
        <time>2020-06-27T09:23:02.579Z</time>
      </trkpt>
      <trkpt lat="47.01534" lon="6.90355">
        <ele>690.69</ele>
        <time>2020-06-27T09:23:08.652Z</time>
      </trkpt>
      <trkpt lat="47.01515" lon="6.90357">
        <ele>692.89</ele>
        <time>2020-06-27T09:23:21.361Z</time>
      </trkpt>
      <trkpt lat="47.01497" lon="6.90359">
        <ele>693.71</ele>
        <time>2020-06-27T09:23:28.036Z</time>
      </trkpt>
      <trkpt lat="47.01492" lon="6.90359">
        <ele>693.63</ele>
        <time>2020-06-27T09:23:28.770Z</time>
      </trkpt>
      <trkpt lat="47.01484" lon="6.90358">
        <ele>693.65</ele>
        <time>2020-06-27T09:23:30.560Z</time>
      </trkpt>
      <trkpt lat="47.01476" lon="6.90356">
        <ele>693.69</ele>
        <time>2020-06-27T09:23:32.411Z</time>
      </trkpt>
      <trkpt lat="47.01469" lon="6.90352">
        <ele>693.8</ele>
        <time>2020-06-27T09:23:34.301Z</time>
      </trkpt>
      <trkpt lat="47.01463" lon="6.90349">
        <ele>693.91</ele>
        <time>2020-06-27T09:23:35.943Z</time>
      </trkpt>
      <trkpt lat="47.01457" lon="6.90343">
        <ele>693.94</ele>
        <time>2020-06-27T09:23:37.587Z</time>
      </trkpt>
      <trkpt lat="47.01456" lon="6.90343">
        <ele>694.07</ele>
        <time>2020-06-27T09:23:38.387Z</time>
      </trkpt>
      <trkpt lat="47.01452" lon="6.90337">
        <ele>694.17</ele>
        <time>2020-06-27T09:23:39.871Z</time>
      </trkpt>
      <trkpt lat="47.0144" lon="6.90323">
        <ele>694.89</ele>
        <time>2020-06-27T09:23:45.597Z</time>
      </trkpt>
      <trkpt lat="47.01424" lon="6.90302">
        <ele>696.89</ele>
        <time>2020-06-27T09:23:56.998Z</time>
      </trkpt>
      <trkpt lat="47.01412" lon="6.90289">
        <ele>698.36</ele>
        <time>2020-06-27T09:24:05.330Z</time>
      </trkpt>
      <trkpt lat="47.01403" lon="6.90284">
        <ele>698</ele>
        <time>2020-06-27T09:24:06.448Z</time>
      </trkpt>
      <trkpt lat="47.01397" lon="6.90281">
        <ele>698.15</ele>
        <time>2020-06-27T09:24:08.211Z</time>
      </trkpt>
      <trkpt lat="47.0139" lon="6.9028">
        <ele>698.54</ele>
        <time>2020-06-27T09:24:10.989Z</time>
      </trkpt>
      <trkpt lat="47.01377" lon="6.90278">
        <ele>699.09</ele>
        <time>2020-06-27T09:24:15.622Z</time>
      </trkpt>
      <trkpt lat="47.01371" lon="6.90275">
        <ele>699.52</ele>
        <time>2020-06-27T09:24:18.356Z</time>
      </trkpt>
      <trkpt lat="47.01366" lon="6.9027">
        <ele>700</ele>
        <time>2020-06-27T09:24:21.209Z</time>
      </trkpt>
      <trkpt lat="47.01362" lon="6.90265">
        <ele>700.21</ele>
        <time>2020-06-27T09:24:23.014Z</time>
      </trkpt>
      <trkpt lat="47.01355" lon="6.90255">
        <ele>700.77</ele>
        <time>2020-06-27T09:24:26.923Z</time>
      </trkpt>
      <trkpt lat="47.0135" lon="6.90244">
        <ele>700.73</ele>
        <time>2020-06-27T09:24:28.762Z</time>
      </trkpt>
      <trkpt lat="47.01345" lon="6.90238">
        <ele>700.81</ele>
        <time>2020-06-27T09:24:30.349Z</time>
      </trkpt>
      <trkpt lat="47.01341" lon="6.90236">
        <ele>700.73</ele>
        <time>2020-06-27T09:24:30.948Z</time>
      </trkpt>
      <trkpt lat="47.01335" lon="6.90233">
        <ele>700.97</ele>
        <time>2020-06-27T09:24:33.062Z</time>
      </trkpt>
      <trkpt lat="47.0128" lon="6.90237">
        <ele>704.41</ele>
        <time>2020-06-27T09:24:55.902Z</time>
      </trkpt>
      <trkpt lat="47.01266" lon="6.90234">
        <ele>705.09</ele>
        <time>2020-06-27T09:25:01.223Z</time>
      </trkpt>
      <trkpt lat="47.01252" lon="6.90233">
        <ele>705.93</ele>
        <time>2020-06-27T09:25:06.933Z</time>
      </trkpt>
      <trkpt lat="47.01239" lon="6.90234">
        <ele>707.1</ele>
        <time>2020-06-27T09:25:13.645Z</time>
      </trkpt>
      <trkpt lat="47.01229" lon="6.90235">
        <ele>708</ele>
        <time>2020-06-27T09:25:18.809Z</time>
      </trkpt>
      <trkpt lat="47.01208" lon="6.90236">
        <ele>710.8</ele>
        <time>2020-06-27T09:25:36.418Z</time>
      </trkpt>
      <trkpt lat="47.01189" lon="6.90235">
        <ele>712.29</ele>
        <time>2020-06-27T09:25:45.313Z</time>
      </trkpt>
      <trkpt lat="47.01174" lon="6.90233">
        <ele>713.01</ele>
        <time>2020-06-27T09:25:50.968Z</time>
      </trkpt>
      <trkpt lat="47.01157" lon="6.90229">
        <ele>713.2</ele>
        <time>2020-06-27T09:25:55.140Z</time>
      </trkpt>
      <trkpt lat="47.01131" lon="6.90222">
        <ele>713.58</ele>
        <time>2020-06-27T09:26:01.771Z</time>
      </trkpt>
      <trkpt lat="47.0113" lon="6.90222">
        <ele>713.58</ele>
        <time>2020-06-27T09:26:01.989Z</time>
      </trkpt>
      <trkpt lat="47.0113" lon="6.90222">
        <ele>713.96</ele>
        <time>2020-06-27T09:26:01.989Z</time>
      </trkpt>
      <trkpt lat="47.01113" lon="6.90215">
        <ele>714.67</ele>
        <time>2020-06-27T09:26:08.078Z</time>
      </trkpt>
      <trkpt lat="47.01098" lon="6.90207">
        <ele>715.4</ele>
        <time>2020-06-27T09:26:13.992Z</time>
      </trkpt>
      <trkpt lat="47.01087" lon="6.90198">
        <ele>716.56</ele>
        <time>2020-06-27T09:26:20.616Z</time>
      </trkpt>
      <trkpt lat="47.01075" lon="6.90183">
        <ele>717.93</ele>
        <time>2020-06-27T09:26:28.536Z</time>
      </trkpt>
      <trkpt lat="47.01073" lon="6.9018">
        <ele>718.12</ele>
        <time>2020-06-27T09:26:29.757Z</time>
      </trkpt>
      <trkpt lat="47.01061" lon="6.90157">
        <ele>719.94</ele>
        <time>2020-06-27T09:26:40.149Z</time>
      </trkpt>
      <trkpt lat="47.01051" lon="6.90141">
        <ele>721.03</ele>
        <time>2020-06-27T09:26:46.819Z</time>
      </trkpt>
      <trkpt lat="47.01039" lon="6.90122">
        <ele>722.41</ele>
        <time>2020-06-27T09:26:55.066Z</time>
      </trkpt>
      <trkpt lat="47.01032" lon="6.90106">
        <ele>723.4</ele>
        <time>2020-06-27T09:27:01.034Z</time>
      </trkpt>
      <trkpt lat="47.01029" lon="6.90098">
        <ele>723.72</ele>
        <time>2020-06-27T09:27:03.428Z</time>
      </trkpt>
      <trkpt lat="47.01015" lon="6.90056">
        <ele>725.4</ele>
        <time>2020-06-27T09:27:15.788Z</time>
      </trkpt>
      <trkpt lat="47.01007" lon="6.90036">
        <ele>726.49</ele>
        <time>2020-06-27T09:27:22.663Z</time>
      </trkpt>
      <trkpt lat="47.00988" lon="6.89998">
        <ele>729.51</ele>
        <time>2020-06-27T09:27:39.856Z</time>
      </trkpt>
      <trkpt lat="47.00983" lon="6.89986">
        <ele>730.52</ele>
        <time>2020-06-27T09:27:45.585Z</time>
      </trkpt>
      <trkpt lat="47.00979" lon="6.89976">
        <ele>731.29</ele>
        <time>2020-06-27T09:27:49.953Z</time>
      </trkpt>
      <trkpt lat="47.00958" lon="6.89917">
        <ele>735.66</ele>
        <time>2020-06-27T09:28:14.763Z</time>
      </trkpt>
      <trkpt lat="47.00948" lon="6.89888">
        <ele>737.51</ele>
        <time>2020-06-27T09:28:25.575Z</time>
      </trkpt>
      <trkpt lat="47.00941" lon="6.89872">
        <ele>738.82</ele>
        <time>2020-06-27T09:28:32.995Z</time>
      </trkpt>
      <trkpt lat="47.00934" lon="6.89862">
        <ele>739.43</ele>
        <time>2020-06-27T09:28:37.046Z</time>
      </trkpt>
      <trkpt lat="47.00925" lon="6.89852">
        <ele>740.14</ele>
        <time>2020-06-27T09:28:41.743Z</time>
      </trkpt>
      <trkpt lat="47.00923" lon="6.8985">
        <ele>740.34</ele>
        <time>2020-06-27T09:28:42.916Z</time>
      </trkpt>
      <trkpt lat="47.00923" lon="6.89849">
        <ele>740.34</ele>
        <time>2020-06-27T09:28:43.064Z</time>
      </trkpt>
      <trkpt lat="47.00918" lon="6.89845">
        <ele>740.55</ele>
        <time>2020-06-27T09:28:44.938Z</time>
      </trkpt>
      <trkpt lat="47.00904" lon="6.89836">
        <ele>740.53</ele>
        <time>2020-06-27T09:28:48.202Z</time>
      </trkpt>
      <trkpt lat="47.00899" lon="6.89834">
        <ele>740.51</ele>
        <time>2020-06-27T09:28:49.268Z</time>
      </trkpt>
      <trkpt lat="47.00895" lon="6.89833">
        <ele>740.53</ele>
        <time>2020-06-27T09:28:50.193Z</time>
      </trkpt>
      <trkpt lat="47.00893" lon="6.89833">
        <ele>740.26</ele>
        <time>2020-06-27T09:28:50.391Z</time>
      </trkpt>
      <trkpt lat="47.00883" lon="6.89831">
        <ele>740.34</ele>
        <time>2020-06-27T09:28:52.761Z</time>
      </trkpt>
      <trkpt lat="47.0087" lon="6.89825">
        <ele>739.92</ele>
        <time>2020-06-27T09:28:54.454Z</time>
      </trkpt>
      <trkpt lat="47.00857" lon="6.89819">
        <ele>739.36</ele>
        <time>2020-06-27T09:28:55.983Z</time>
      </trkpt>
      <trkpt lat="47.00846" lon="6.89812">
        <ele>739.05</ele>
        <time>2020-06-27T09:28:57.553Z</time>
      </trkpt>
      <trkpt lat="47.00822" lon="6.89793">
        <ele>739.2</ele>
        <time>2020-06-27T09:29:03.809Z</time>
      </trkpt>
      <trkpt lat="47.00796" lon="6.89769">
        <ele>739.48</ele>
        <time>2020-06-27T09:29:11.111Z</time>
      </trkpt>
      <trkpt lat="47.00783" lon="6.89754">
        <ele>740.17</ele>
        <time>2020-06-27T09:29:16.942Z</time>
      </trkpt>
      <trkpt lat="47.00752" lon="6.89714">
        <ele>742.2</ele>
        <time>2020-06-27T09:29:32.583Z</time>
      </trkpt>
      <trkpt lat="47.00728" lon="6.89683">
        <ele>745.05</ele>
        <time>2020-06-27T09:29:48.961Z</time>
      </trkpt>
      <trkpt lat="47.00715" lon="6.89663">
        <ele>747.31</ele>
        <time>2020-06-27T09:30:02.209Z</time>
      </trkpt>
      <trkpt lat="47.00707" lon="6.89645">
        <ele>748.58</ele>
        <time>2020-06-27T09:30:09.555Z</time>
      </trkpt>
      <trkpt lat="47.00697" lon="6.89616">
        <ele>750.38</ele>
        <time>2020-06-27T09:30:20.166Z</time>
      </trkpt>
      <trkpt lat="47.00689" lon="6.89591">
        <ele>751.98</ele>
        <time>2020-06-27T09:30:29.470Z</time>
      </trkpt>
      <trkpt lat="47.00672" lon="6.89539">
        <ele>755.28</ele>
        <time>2020-06-27T09:30:48.727Z</time>
      </trkpt>
      <trkpt lat="47.00662" lon="6.89509">
        <ele>756.71</ele>
        <time>2020-06-27T09:30:58.194Z</time>
      </trkpt>
      <trkpt lat="47.00662" lon="6.89508">
        <ele>756.71</ele>
        <time>2020-06-27T09:30:58.342Z</time>
      </trkpt>
      <trkpt lat="47.00654" lon="6.89483">
        <ele>758.14</ele>
        <time>2020-06-27T09:31:06.983Z</time>
      </trkpt>
      <trkpt lat="47.00647" lon="6.89461">
        <ele>759.26</ele>
        <time>2020-06-27T09:31:14.113Z</time>
      </trkpt>
      <trkpt lat="47.00642" lon="6.89443">
        <ele>760</ele>
        <time>2020-06-27T09:31:19.362Z</time>
      </trkpt>
      <trkpt lat="47.00633" lon="6.89403">
        <ele>760.87</ele>
        <time>2020-06-27T09:31:28.021Z</time>
      </trkpt>
      <trkpt lat="47.00624" lon="6.89353">
        <ele>762.48</ele>
        <time>2020-06-27T09:31:41.080Z</time>
      </trkpt>
      <trkpt lat="47.00619" lon="6.89317">
        <ele>763.22</ele>
        <time>2020-06-27T09:31:48.561Z</time>
      </trkpt>
      <trkpt lat="47.0061" lon="6.89231">
        <ele>765.56</ele>
        <time>2020-06-27T09:32:08.794Z</time>
      </trkpt>
      <trkpt lat="47.00605" lon="6.89187">
        <ele>765.99</ele>
        <time>2020-06-27T09:32:16.406Z</time>
      </trkpt>
      <trkpt lat="47.00599" lon="6.8914">
        <ele>766.53</ele>
        <time>2020-06-27T09:32:24.778Z</time>
      </trkpt>
      <trkpt lat="47.00591" lon="6.89067">
        <ele>767.22</ele>
        <time>2020-06-27T09:32:37.335Z</time>
      </trkpt>
      <trkpt lat="47.00589" lon="6.89051">
        <ele>767.45</ele>
        <time>2020-06-27T09:32:40.317Z</time>
      </trkpt>
      <trkpt lat="47.00577" lon="6.88998">
        <ele>767.84</ele>
        <time>2020-06-27T09:32:49.471Z</time>
      </trkpt>
      <trkpt lat="47.00577" lon="6.88997">
        <ele>767.84</ele>
        <time>2020-06-27T09:32:49.620Z</time>
      </trkpt>
      <trkpt lat="47.00574" lon="6.88983">
        <ele>768.23</ele>
        <time>2020-06-27T09:32:53.010Z</time>
      </trkpt>
      <trkpt lat="47.00564" lon="6.88937">
        <ele>768.31</ele>
        <time>2020-06-27T09:33:00.344Z</time>
      </trkpt>
      <trkpt lat="47.00557" lon="6.88914">
        <ele>768.52</ele>
        <time>2020-06-27T09:33:04.557Z</time>
      </trkpt>
      <trkpt lat="47.0055" lon="6.88892">
        <ele>768.62</ele>
        <time>2020-06-27T09:33:08.375Z</time>
      </trkpt>
      <trkpt lat="47.00541" lon="6.88869">
        <ele>769.28</ele>
        <time>2020-06-27T09:33:14.292Z</time>
      </trkpt>
      <trkpt lat="47.00532" lon="6.88852">
        <ele>769.84</ele>
        <time>2020-06-27T09:33:19.206Z</time>
      </trkpt>
      <trkpt lat="47.00524" lon="6.88841">
        <ele>770.66</ele>
        <time>2020-06-27T09:33:24.192Z</time>
      </trkpt>
      <trkpt lat="47.00517" lon="6.88831">
        <ele>771.22</ele>
        <time>2020-06-27T09:33:28.102Z</time>
      </trkpt>
      <trkpt lat="47.0051" lon="6.88818">
        <ele>772.2</ele>
        <time>2020-06-27T09:33:33.769Z</time>
      </trkpt>
      <trkpt lat="47.00505" lon="6.88805">
        <ele>772.9</ele>
        <time>2020-06-27T09:33:38.189Z</time>
      </trkpt>
      <trkpt lat="47.005" lon="6.88791">
        <ele>773.53</ele>
        <time>2020-06-27T09:33:42.535Z</time>
      </trkpt>
      <trkpt lat="47.00496" lon="6.88776">
        <ele>773.7</ele>
        <time>2020-06-27T09:33:45.322Z</time>
      </trkpt>
      <trkpt lat="47.00499" lon="6.88731">
        <ele>772.87</ele>
        <time>2020-06-27T09:33:49.313Z</time>
      </trkpt>
      <trkpt lat="47.00503" lon="6.88689">
        <ele>772.23</ele>
        <time>2020-06-27T09:33:53.262Z</time>
      </trkpt>
      <trkpt lat="47.00506" lon="6.88671">
        <ele>772.12</ele>
        <time>2020-06-27T09:33:55.300Z</time>
      </trkpt>
      <trkpt lat="47.0051" lon="6.88651">
        <ele>772.03</ele>
        <time>2020-06-27T09:33:58.122Z</time>
      </trkpt>
      <trkpt lat="47.00517" lon="6.8862">
        <ele>772.09</ele>
        <time>2020-06-27T09:34:03.095Z</time>
      </trkpt>
      <trkpt lat="47.0052" lon="6.88601">
        <ele>772.09</ele>
        <time>2020-06-27T09:34:05.992Z</time>
      </trkpt>
      <trkpt lat="47.00521" lon="6.88585">
        <ele>772</ele>
        <time>2020-06-27T09:34:07.772Z</time>
      </trkpt>
      <trkpt lat="47.00522" lon="6.88568">
        <ele>771.9</ele>
        <time>2020-06-27T09:34:09.651Z</time>
      </trkpt>
      <trkpt lat="47.00522" lon="6.88525">
        <ele>772.11</ele>
        <time>2020-06-27T09:34:16.487Z</time>
      </trkpt>
      <trkpt lat="47.00521" lon="6.88508">
        <ele>772.19</ele>
        <time>2020-06-27T09:34:19.192Z</time>
      </trkpt>
      <trkpt lat="47.00521" lon="6.88478">
        <ele>772.29</ele>
        <time>2020-06-27T09:34:23.857Z</time>
      </trkpt>
      <trkpt lat="47.00522" lon="6.88427">
        <ele>772.97</ele>
        <time>2020-06-27T09:34:33.088Z</time>
      </trkpt>
      <trkpt lat="47.00522" lon="6.88413">
        <ele>773.67</ele>
        <time>2020-06-27T09:34:37.380Z</time>
      </trkpt>
      <trkpt lat="47.00523" lon="6.88372">
        <ele>774.37</ele>
        <time>2020-06-27T09:34:45.286Z</time>
      </trkpt>
      <trkpt lat="47.00523" lon="6.88348">
        <ele>775.2</ele>
        <time>2020-06-27T09:34:51.549Z</time>
      </trkpt>
      <trkpt lat="47.00523" lon="6.88323">
        <ele>775.6</ele>
        <time>2020-06-27T09:34:56.279Z</time>
      </trkpt>
      <trkpt lat="47.00522" lon="6.88309">
        <ele>775.98</ele>
        <time>2020-06-27T09:34:59.559Z</time>
      </trkpt>
      <trkpt lat="47.0052" lon="6.88293">
        <ele>776.29</ele>
        <time>2020-06-27T09:35:02.807Z</time>
      </trkpt>
      <trkpt lat="47.00517" lon="6.88271">
        <ele>776.73</ele>
        <time>2020-06-27T09:35:07.331Z</time>
      </trkpt>
      <trkpt lat="47.00502" lon="6.88202">
        <ele>777.14</ele>
        <time>2020-06-27T09:35:18.974Z</time>
      </trkpt>
      <trkpt lat="47.00491" lon="6.88147">
        <ele>777.1</ele>
        <time>2020-06-27T09:35:27.357Z</time>
      </trkpt>
      <trkpt lat="47.00487" lon="6.88125">
        <ele>777.33</ele>
        <time>2020-06-27T09:35:31.270Z</time>
      </trkpt>
      <trkpt lat="47.0048" lon="6.8811">
        <ele>777.64</ele>
        <time>2020-06-27T09:35:34.772Z</time>
      </trkpt>
      <trkpt lat="47.00476" lon="6.88099">
        <ele>777.75</ele>
        <time>2020-06-27T09:35:36.873Z</time>
      </trkpt>
      <trkpt lat="47.00464" lon="6.88066">
        <ele>778.05</ele>
        <time>2020-06-27T09:35:43.099Z</time>
      </trkpt>
      <trkpt lat="47.00458" lon="6.88045">
        <ele>778.23</ele>
        <time>2020-06-27T09:35:46.883Z</time>
      </trkpt>
      <trkpt lat="47.00452" lon="6.88026">
        <ele>778.38</ele>
        <time>2020-06-27T09:35:50.324Z</time>
      </trkpt>
      <trkpt lat="47.00438" lon="6.87967">
        <ele>779.25</ele>
        <time>2020-06-27T09:36:01.739Z</time>
      </trkpt>
      <trkpt lat="47.00428" lon="6.87929">
        <ele>780.28</ele>
        <time>2020-06-27T09:36:10.901Z</time>
      </trkpt>
      <trkpt lat="47.00423" lon="6.87915">
        <ele>780.72</ele>
        <time>2020-06-27T09:36:14.651Z</time>
      </trkpt>
      <trkpt lat="47.00417" lon="6.87902">
        <ele>781.05</ele>
        <time>2020-06-27T09:36:17.900Z</time>
      </trkpt>
      <trkpt lat="47.00416" lon="6.87902">
        <ele>781.05</ele>
        <time>2020-06-27T09:36:18.118Z</time>
      </trkpt>
      <trkpt lat="47.00411" lon="6.87889">
        <ele>781.39</ele>
        <time>2020-06-27T09:36:21.312Z</time>
      </trkpt>
      <trkpt lat="47.0039" lon="6.87846">
        <ele>784.09</ele>
        <time>2020-06-27T09:36:37.722Z</time>
      </trkpt>
      <trkpt lat="47.00379" lon="6.87815">
        <ele>785.5</ele>
        <time>2020-06-27T09:36:47.379Z</time>
      </trkpt>
      <trkpt lat="47.00376" lon="6.87807">
        <ele>785.83</ele>
        <time>2020-06-27T09:36:49.798Z</time>
      </trkpt>
      <trkpt lat="47.0037" lon="6.87798">
        <ele>785.9</ele>
        <time>2020-06-27T09:36:51.818Z</time>
      </trkpt>
      <trkpt lat="47.00353" lon="6.87775">
        <ele>787.19</ele>
        <time>2020-06-27T09:37:00.974Z</time>
      </trkpt>
      <trkpt lat="47.00341" lon="6.87758">
        <ele>788.03</ele>
        <time>2020-06-27T09:37:07.344Z</time>
      </trkpt>
      <trkpt lat="47.0033" lon="6.87743">
        <ele>788.93</ele>
        <time>2020-06-27T09:37:13.463Z</time>
      </trkpt>
      <trkpt lat="47.00322" lon="6.87728">
        <ele>789.74</ele>
        <time>2020-06-27T09:37:18.845Z</time>
      </trkpt>
      <trkpt lat="47.00319" lon="6.87717">
        <ele>789.94</ele>
        <time>2020-06-27T09:37:21.121Z</time>
      </trkpt>
      <trkpt lat="47.00313" lon="6.8769">
        <ele>791.28</ele>
        <time>2020-06-27T09:37:29.558Z</time>
      </trkpt>
      <trkpt lat="47.00308" lon="6.87669">
        <ele>792.94</ele>
        <time>2020-06-27T09:37:39.020Z</time>
      </trkpt>
      <trkpt lat="47.00304" lon="6.87656">
        <ele>794.07</ele>
        <time>2020-06-27T09:37:45.561Z</time>
      </trkpt>
      <trkpt lat="47.00298" lon="6.87642">
        <ele>795.09</ele>
        <time>2020-06-27T09:37:51.405Z</time>
      </trkpt>
      <trkpt lat="47.0029" lon="6.87631">
        <ele>796.36</ele>
        <time>2020-06-27T09:37:58.748Z</time>
      </trkpt>
      <trkpt lat="47.00281" lon="6.87621">
        <ele>797.22</ele>
        <time>2020-06-27T09:38:03.938Z</time>
      </trkpt>
      <trkpt lat="47.00271" lon="6.87615">
        <ele>798.01</ele>
        <time>2020-06-27T09:38:08.788Z</time>
      </trkpt>
      <trkpt lat="47.0027" lon="6.87615">
        <ele>798.01</ele>
        <time>2020-06-27T09:38:09.006Z</time>
      </trkpt>
      <trkpt lat="47.00266" lon="6.87612">
        <ele>798.81</ele>
        <time>2020-06-27T09:38:12.780Z</time>
      </trkpt>
      <trkpt lat="47.00252" lon="6.87602">
        <ele>800.72</ele>
        <time>2020-06-27T09:38:24.100Z</time>
      </trkpt>
      <trkpt lat="47.00238" lon="6.87594">
        <ele>802.42</ele>
        <time>2020-06-27T09:38:33.861Z</time>
      </trkpt>
      <trkpt lat="47.00233" lon="6.87592">
        <ele>802.99</ele>
        <time>2020-06-27T09:38:37.113Z</time>
      </trkpt>
      <trkpt lat="47.0023" lon="6.8759">
        <ele>803.07</ele>
        <time>2020-06-27T09:38:38.036Z</time>
      </trkpt>
      <trkpt lat="47.00222" lon="6.87585">
        <ele>803.26</ele>
        <time>2020-06-27T09:38:40.404Z</time>
      </trkpt>
      <trkpt lat="47.00216" lon="6.87578">
        <ele>803.49</ele>
        <time>2020-06-27T09:38:42.707Z</time>
      </trkpt>
      <trkpt lat="47.00192" lon="6.87552">
        <ele>804.13</ele>
        <time>2020-06-27T09:38:50.796Z</time>
      </trkpt>
      <trkpt lat="47.00171" lon="6.87529">
        <ele>805.35</ele>
        <time>2020-06-27T09:39:00.558Z</time>
      </trkpt>
      <trkpt lat="47.00156" lon="6.87513">
        <ele>806.08</ele>
        <time>2020-06-27T09:39:06.876Z</time>
      </trkpt>
      <trkpt lat="47.00147" lon="6.87504">
        <ele>806.63</ele>
        <time>2020-06-27T09:39:11.039Z</time>
      </trkpt>
      <trkpt lat="47.00142" lon="6.875">
        <ele>806.63</ele>
        <time>2020-06-27T09:39:12.279Z</time>
      </trkpt>
      <trkpt lat="47.00137" lon="6.87496">
        <ele>806.58</ele>
        <time>2020-06-27T09:39:13.197Z</time>
      </trkpt>
      <trkpt lat="47.00131" lon="6.87493">
        <ele>806.44</ele>
        <time>2020-06-27T09:39:14.063Z</time>
      </trkpt>
      <trkpt lat="47.00128" lon="6.87491">
        <ele>806.4</ele>
        <time>2020-06-27T09:39:14.571Z</time>
      </trkpt>
      <trkpt lat="47.00127" lon="6.87491">
        <ele>806.4</ele>
        <time>2020-06-27T09:39:14.789Z</time>
      </trkpt>
      <trkpt lat="47.00127" lon="6.8749">
        <ele>806.35</ele>
        <time>2020-06-27T09:39:14.856Z</time>
      </trkpt>
      <trkpt lat="47.00123" lon="6.87489">
        <ele>806.13</ele>
        <time>2020-06-27T09:39:15.262Z</time>
      </trkpt>
      <trkpt lat="47.00119" lon="6.87487">
        <ele>806.03</ele>
        <time>2020-06-27T09:39:15.829Z</time>
      </trkpt>
      <trkpt lat="47.00116" lon="6.87487">
        <ele>805.85</ele>
        <time>2020-06-27T09:39:16.114Z</time>
      </trkpt>
      <trkpt lat="47.00113" lon="6.87488">
        <ele>805.67</ele>
        <time>2020-06-27T09:39:16.411Z</time>
      </trkpt>
      <trkpt lat="47.0011" lon="6.87489">
        <ele>805.53</ele>
        <time>2020-06-27T09:39:16.742Z</time>
      </trkpt>
      <trkpt lat="47.00107" lon="6.8749">
        <ele>805.26</ele>
        <time>2020-06-27T09:39:17.046Z</time>
      </trkpt>
      <trkpt lat="47.00102" lon="6.87495">
        <ele>804.63</ele>
        <time>2020-06-27T09:39:17.644Z</time>
      </trkpt>
      <trkpt lat="47.00097" lon="6.87501">
        <ele>803.85</ele>
        <time>2020-06-27T09:39:18.281Z</time>
      </trkpt>
      <trkpt lat="47.00089" lon="6.87511">
        <ele>802.99</ele>
        <time>2020-06-27T09:39:19.319Z</time>
      </trkpt>
      <trkpt lat="47.00084" lon="6.87517">
        <ele>802.44</ele>
        <time>2020-06-27T09:39:19.957Z</time>
      </trkpt>
      <trkpt lat="47.00078" lon="6.87523">
        <ele>802.08</ele>
        <time>2020-06-27T09:39:20.712Z</time>
      </trkpt>
      <trkpt lat="47.00075" lon="6.87525">
        <ele>801.83</ele>
        <time>2020-06-27T09:39:21.037Z</time>
      </trkpt>
      <trkpt lat="47.00071" lon="6.87527">
        <ele>801.49</ele>
        <time>2020-06-27T09:39:21.454Z</time>
      </trkpt>
      <trkpt lat="47.00069" lon="6.87528">
        <ele>801.15</ele>
        <time>2020-06-27T09:39:21.663Z</time>
      </trkpt>
      <trkpt lat="47.00066" lon="6.87528">
        <ele>800.88</ele>
        <time>2020-06-27T09:39:21.959Z</time>
      </trkpt>
      <trkpt lat="47.00063" lon="6.87527">
        <ele>800.54</ele>
        <time>2020-06-27T09:39:22.263Z</time>
      </trkpt>
      <trkpt lat="47.0006" lon="6.87525">
        <ele>800.33</ele>
        <time>2020-06-27T09:39:22.568Z</time>
      </trkpt>
      <trkpt lat="47.00058" lon="6.87523">
        <ele>799.99</ele>
        <time>2020-06-27T09:39:22.807Z</time>
      </trkpt>
      <trkpt lat="47.00055" lon="6.87521">
        <ele>799.72</ele>
        <time>2020-06-27T09:39:23.132Z</time>
      </trkpt>
      <trkpt lat="47.00053" lon="6.87517">
        <ele>799.45</ele>
        <time>2020-06-27T09:39:23.466Z</time>
      </trkpt>
      <trkpt lat="47.0005" lon="6.87512">
        <ele>799.17</ele>
        <time>2020-06-27T09:39:23.893Z</time>
      </trkpt>
      <trkpt lat="47.00045" lon="6.87503">
        <ele>798.83</ele>
        <time>2020-06-27T09:39:24.766Z</time>
      </trkpt>
      <trkpt lat="47.0004" lon="6.87489">
        <ele>798.29</ele>
        <time>2020-06-27T09:39:25.881Z</time>
      </trkpt>
      <trkpt lat="47.00027" lon="6.87454">
        <ele>797.95</ele>
        <time>2020-06-27T09:39:30.051Z</time>
      </trkpt>
      <trkpt lat="47.00023" lon="6.87441">
        <ele>797.74</ele>
        <time>2020-06-27T09:39:31.387Z</time>
      </trkpt>
      <trkpt lat="47.0002" lon="6.87433">
        <ele>797.67</ele>
        <time>2020-06-27T09:39:32.358Z</time>
      </trkpt>
      <trkpt lat="47.00014" lon="6.8742">
        <ele>797.67</ele>
        <time>2020-06-27T09:39:34.690Z</time>
      </trkpt>
      <trkpt lat="47.00011" lon="6.87412">
        <ele>797.81</ele>
        <time>2020-06-27T09:39:36.398Z</time>
      </trkpt>
      <trkpt lat="47.00008" lon="6.87403">
        <ele>797.95</ele>
        <time>2020-06-27T09:39:38.230Z</time>
      </trkpt>
      <trkpt lat="47.00004" lon="6.87386">
        <ele>798.15</ele>
        <time>2020-06-27T09:39:41.371Z</time>
      </trkpt>
      <trkpt lat="47" lon="6.87365">
        <ele>798.9</ele>
        <time>2020-06-27T09:39:47.050Z</time>
      </trkpt>
      <trkpt lat="46.99996" lon="6.87349">
        <ele>799.38</ele>
        <time>2020-06-27T09:39:51.122Z</time>
      </trkpt>
      <trkpt lat="46.99995" lon="6.87344">
        <ele>799.58</ele>
        <time>2020-06-27T09:39:52.534Z</time>
      </trkpt>
      <trkpt lat="46.99991" lon="6.87339">
        <ele>799.65</ele>
        <time>2020-06-27T09:39:53.838Z</time>
      </trkpt>
      <trkpt lat="46.99988" lon="6.87334">
        <ele>799.65</ele>
        <time>2020-06-27T09:39:54.827Z</time>
      </trkpt>
      <trkpt lat="46.99984" lon="6.8733">
        <ele>799.65</ele>
        <time>2020-06-27T09:39:55.882Z</time>
      </trkpt>
      <trkpt lat="46.9998" lon="6.87327">
        <ele>799.65</ele>
        <time>2020-06-27T09:39:56.861Z</time>
      </trkpt>
      <trkpt lat="46.99975" lon="6.87325">
        <ele>799.49</ele>
        <time>2020-06-27T09:39:57.504Z</time>
      </trkpt>
      <trkpt lat="46.99967" lon="6.87323">
        <ele>799.4</ele>
        <time>2020-06-27T09:39:58.772Z</time>
      </trkpt>
      <trkpt lat="46.99951" lon="6.87321">
        <ele>799.64</ele>
        <time>2020-06-27T09:40:02.825Z</time>
      </trkpt>
      <trkpt lat="46.9995" lon="6.87321">
        <ele>799.64</ele>
        <time>2020-06-27T09:40:03.042Z</time>
      </trkpt>
      <trkpt lat="46.99942" lon="6.8732">
        <ele>799.88</ele>
        <time>2020-06-27T09:40:05.451Z</time>
      </trkpt>
      <trkpt lat="46.99932" lon="6.87316">
        <ele>800.41</ele>
        <time>2020-06-27T09:40:09.428Z</time>
      </trkpt>
      <trkpt lat="46.99918" lon="6.87309">
        <ele>801.4</ele>
        <time>2020-06-27T09:40:15.765Z</time>
      </trkpt>
      <trkpt lat="46.99909" lon="6.87304">
        <ele>802.42</ele>
        <time>2020-06-27T09:40:21.554Z</time>
      </trkpt>
      <trkpt lat="46.99898" lon="6.87297">
        <ele>803.68</ele>
        <time>2020-06-27T09:40:28.700Z</time>
      </trkpt>
      <trkpt lat="46.99887" lon="6.87286">
        <ele>805.1</ele>
        <time>2020-06-27T09:40:36.764Z</time>
      </trkpt>
      <trkpt lat="46.99877" lon="6.87275">
        <ele>806.42</ele>
        <time>2020-06-27T09:40:44.254Z</time>
      </trkpt>
      <trkpt lat="46.99872" lon="6.87266">
        <ele>807.71</ele>
        <time>2020-06-27T09:40:50.905Z</time>
      </trkpt>
      <trkpt lat="46.99869" lon="6.87256">
        <ele>808.83</ele>
        <time>2020-06-27T09:40:57.165Z</time>
      </trkpt>
      <trkpt lat="46.99868" lon="6.87244">
        <ele>809.98</ele>
        <time>2020-06-27T09:41:04.092Z</time>
      </trkpt>
      <trkpt lat="46.99867" lon="6.8723">
        <ele>810.72</ele>
        <time>2020-06-27T09:41:08.538Z</time>
      </trkpt>
      <trkpt lat="46.99866" lon="6.87219">
        <ele>811.24</ele>
        <time>2020-06-27T09:41:11.823Z</time>
      </trkpt>
      <trkpt lat="46.99865" lon="6.87215">
        <ele>811.5</ele>
        <time>2020-06-27T09:41:13.316Z</time>
      </trkpt>
      <trkpt lat="46.99863" lon="6.87205">
        <ele>811.73</ele>
        <time>2020-06-27T09:41:15.516Z</time>
      </trkpt>
      <trkpt lat="46.99859" lon="6.87191">
        <ele>811.87</ele>
        <time>2020-06-27T09:41:18.090Z</time>
      </trkpt>
      <trkpt lat="46.99835" lon="6.87117">
        <ele>813.68</ele>
        <time>2020-06-27T09:41:35.397Z</time>
      </trkpt>
      <trkpt lat="46.9983" lon="6.87101">
        <ele>813.83</ele>
        <time>2020-06-27T09:41:38.350Z</time>
      </trkpt>
      <trkpt lat="46.99826" lon="6.87092">
        <ele>813.89</ele>
        <time>2020-06-27T09:41:40.075Z</time>
      </trkpt>
      <trkpt lat="46.9982" lon="6.87079">
        <ele>813.86</ele>
        <time>2020-06-27T09:41:42.311Z</time>
      </trkpt>
      <trkpt lat="46.99815" lon="6.87067">
        <ele>814.06</ele>
        <time>2020-06-27T09:41:44.893Z</time>
      </trkpt>
      <trkpt lat="46.99809" lon="6.87052">
        <ele>814.29</ele>
        <time>2020-06-27T09:41:48.035Z</time>
      </trkpt>
      <trkpt lat="46.99802" lon="6.87024">
        <ele>814.51</ele>
        <time>2020-06-27T09:41:52.952Z</time>
      </trkpt>
      <trkpt lat="46.99787" lon="6.86976">
        <ele>815.75</ele>
        <time>2020-06-27T09:42:04.410Z</time>
      </trkpt>
      <trkpt lat="46.9977" lon="6.86918">
        <ele>816.68</ele>
        <time>2020-06-27T09:42:16.102Z</time>
      </trkpt>
      <trkpt lat="46.99764" lon="6.86893">
        <ele>816.56</ele>
        <time>2020-06-27T09:42:19.676Z</time>
      </trkpt>
      <trkpt lat="46.99762" lon="6.86883">
        <ele>816.86</ele>
        <time>2020-06-27T09:42:22.200Z</time>
      </trkpt>
      <trkpt lat="46.99762" lon="6.86882">
        <ele>816.86</ele>
        <time>2020-06-27T09:42:22.348Z</time>
      </trkpt>
      <trkpt lat="46.99758" lon="6.86858">
        <ele>817.17</ele>
        <time>2020-06-27T09:42:26.762Z</time>
      </trkpt>
      <trkpt lat="46.99752" lon="6.86818">
        <ele>816.43</ele>
        <time>2020-06-27T09:42:30.395Z</time>
      </trkpt>
      <trkpt lat="46.99745" lon="6.86764">
        <ele>815.44</ele>
        <time>2020-06-27T09:42:35.274Z</time>
      </trkpt>
      <trkpt lat="46.99742" lon="6.86745">
        <ele>815.23</ele>
        <time>2020-06-27T09:42:37.233Z</time>
      </trkpt>
      <trkpt lat="46.99739" lon="6.86734">
        <ele>815.23</ele>
        <time>2020-06-27T09:42:38.993Z</time>
      </trkpt>
      <trkpt lat="46.99731" lon="6.86698">
        <ele>815.23</ele>
        <time>2020-06-27T09:42:44.618Z</time>
      </trkpt>
      <trkpt lat="46.99729" lon="6.86687">
        <ele>815.3</ele>
        <time>2020-06-27T09:42:46.461Z</time>
      </trkpt>
      <trkpt lat="46.99726" lon="6.86668">
        <ele>815.37</ele>
        <time>2020-06-27T09:42:49.505Z</time>
      </trkpt>
      <trkpt lat="46.99724" lon="6.86656">
        <ele>815.44</ele>
        <time>2020-06-27T09:42:51.491Z</time>
      </trkpt>
      <trkpt lat="46.99713" lon="6.86573">
        <ele>812.91</ele>
        <time>2020-06-27T09:42:57.796Z</time>
      </trkpt>
      <trkpt lat="46.99708" lon="6.86541">
        <ele>811.63</ele>
        <time>2020-06-27T09:42:59.979Z</time>
      </trkpt>
      <trkpt lat="46.99705" lon="6.86515">
        <ele>810.5</ele>
        <time>2020-06-27T09:43:01.654Z</time>
      </trkpt>
      <trkpt lat="46.99702" lon="6.86491">
        <ele>809.99</ele>
        <time>2020-06-27T09:43:03.724Z</time>
      </trkpt>
      <trkpt lat="46.997" lon="6.86469">
        <ele>809.54</ele>
        <time>2020-06-27T09:43:05.626Z</time>
      </trkpt>
      <trkpt lat="46.99698" lon="6.86451">
        <ele>809.26</ele>
        <time>2020-06-27T09:43:07.317Z</time>
      </trkpt>
      <trkpt lat="46.99695" lon="6.86401">
        <ele>808.76</ele>
        <time>2020-06-27T09:43:12.431Z</time>
      </trkpt>
      <trkpt lat="46.99695" lon="6.86392">
        <ele>808.82</ele>
        <time>2020-06-27T09:43:13.899Z</time>
      </trkpt>
      <trkpt lat="46.99694" lon="6.86387">
        <ele>808.5</ele>
        <time>2020-06-27T09:43:14.250Z</time>
      </trkpt>
      <trkpt lat="46.99693" lon="6.86383">
        <ele>808.51</ele>
        <time>2020-06-27T09:43:14.904Z</time>
      </trkpt>
      <trkpt lat="46.99691" lon="6.8638">
        <ele>808.15</ele>
        <time>2020-06-27T09:43:15.186Z</time>
      </trkpt>
      <trkpt lat="46.99689" lon="6.86376">
        <ele>807.93</ele>
        <time>2020-06-27T09:43:15.496Z</time>
      </trkpt>
      <trkpt lat="46.99685" lon="6.86373">
        <ele>807.59</ele>
        <time>2020-06-27T09:43:15.940Z</time>
      </trkpt>
      <trkpt lat="46.99678" lon="6.8637">
        <ele>807.05</ele>
        <time>2020-06-27T09:43:16.660Z</time>
      </trkpt>
      <trkpt lat="46.99666" lon="6.86363">
        <ele>806.47</ele>
        <time>2020-06-27T09:43:18.058Z</time>
      </trkpt>
      <trkpt lat="46.99662" lon="6.86362">
        <ele>806.41</ele>
        <time>2020-06-27T09:43:18.663Z</time>
      </trkpt>
      <trkpt lat="46.99657" lon="6.86361">
        <ele>806.24</ele>
        <time>2020-06-27T09:43:19.272Z</time>
      </trkpt>
      <trkpt lat="46.99648" lon="6.8636">
        <ele>806.16</ele>
        <time>2020-06-27T09:43:20.725Z</time>
      </trkpt>
      <trkpt lat="46.99646" lon="6.8636">
        <ele>806.05</ele>
        <time>2020-06-27T09:43:20.923Z</time>
      </trkpt>
      <trkpt lat="46.99644" lon="6.86359">
        <ele>806.03</ele>
        <time>2020-06-27T09:43:21.260Z</time>
      </trkpt>
      <trkpt lat="46.99642" lon="6.86357">
        <ele>805.91</ele>
        <time>2020-06-27T09:43:21.512Z</time>
      </trkpt>
      <trkpt lat="46.9964" lon="6.86354">
        <ele>805.87</ele>
        <time>2020-06-27T09:43:21.943Z</time>
      </trkpt>
      <trkpt lat="46.99638" lon="6.86349">
        <ele>805.6</ele>
        <time>2020-06-27T09:43:22.333Z</time>
      </trkpt>
      <trkpt lat="46.99636" lon="6.86339">
        <ele>805.46</ele>
        <time>2020-06-27T09:43:23.331Z</time>
      </trkpt>
      <trkpt lat="46.99635" lon="6.86334">
        <ele>805.17</ele>
        <time>2020-06-27T09:43:23.682Z</time>
      </trkpt>
      <trkpt lat="46.99635" lon="6.86333">
        <ele>805.17</ele>
        <time>2020-06-27T09:43:23.831Z</time>
      </trkpt>
      <trkpt lat="46.99631" lon="6.86309">
        <ele>804.88</ele>
        <time>2020-06-27T09:43:26.269Z</time>
      </trkpt>
      <trkpt lat="46.99626" lon="6.86281">
        <ele>804.03</ele>
        <time>2020-06-27T09:43:28.443Z</time>
      </trkpt>
      <trkpt lat="46.99622" lon="6.86259">
        <ele>803.17</ele>
        <time>2020-06-27T09:43:29.979Z</time>
      </trkpt>
      <trkpt lat="46.99599" lon="6.86123">
        <ele>799.05</ele>
        <time>2020-06-27T09:43:40.501Z</time>
      </trkpt>
      <trkpt lat="46.99596" lon="6.86102">
        <ele>797.79</ele>
        <time>2020-06-27T09:43:41.946Z</time>
      </trkpt>
      <trkpt lat="46.9959" lon="6.86055">
        <ele>795.5</ele>
        <time>2020-06-27T09:43:45.166Z</time>
      </trkpt>
      <trkpt lat="46.99588" lon="6.86029">
        <ele>793.87</ele>
        <time>2020-06-27T09:43:46.927Z</time>
      </trkpt>
      <trkpt lat="46.99587" lon="6.86001">
        <ele>791.68</ele>
        <time>2020-06-27T09:43:48.815Z</time>
      </trkpt>
      <trkpt lat="46.99586" lon="6.85972">
        <ele>790.07</ele>
        <time>2020-06-27T09:43:50.771Z</time>
      </trkpt>
      <trkpt lat="46.99585" lon="6.85944">
        <ele>788.49</ele>
        <time>2020-06-27T09:43:52.659Z</time>
      </trkpt>
      <trkpt lat="46.99583" lon="6.85904">
        <ele>786.64</ele>
        <time>2020-06-27T09:43:55.359Z</time>
      </trkpt>
      <trkpt lat="46.99584" lon="6.85893">
        <ele>786.1</ele>
        <time>2020-06-27T09:43:56.107Z</time>
      </trkpt>
      <trkpt lat="46.99585" lon="6.85881">
        <ele>785.75</ele>
        <time>2020-06-27T09:43:57.020Z</time>
      </trkpt>
      <trkpt lat="46.99585" lon="6.85881">
        <ele>785.2</ele>
        <time>2020-06-27T09:43:57.020Z</time>
      </trkpt>
      <trkpt lat="46.99586" lon="6.85874">
        <ele>785.02</ele>
        <time>2020-06-27T09:43:57.590Z</time>
      </trkpt>
      <trkpt lat="46.99589" lon="6.85862">
        <ele>784.07</ele>
        <time>2020-06-27T09:43:58.450Z</time>
      </trkpt>
      <trkpt lat="46.99594" lon="6.85847">
        <ele>783.77</ele>
        <time>2020-06-27T09:43:59.933Z</time>
      </trkpt>
      <trkpt lat="46.99596" lon="6.85836">
        <ele>783.28</ele>
        <time>2020-06-27T09:44:00.655Z</time>
      </trkpt>
      <trkpt lat="46.99598" lon="6.85821">
        <ele>783.14</ele>
        <time>2020-06-27T09:44:02.236Z</time>
      </trkpt>
      <trkpt lat="46.99599" lon="6.85808">
        <ele>782.67</ele>
        <time>2020-06-27T09:44:03.139Z</time>
      </trkpt>
      <trkpt lat="46.99604" lon="6.85766">
        <ele>781.75</ele>
        <time>2020-06-27T09:44:06.719Z</time>
      </trkpt>
      <trkpt lat="46.99605" lon="6.85751">
        <ele>780.5</ele>
        <time>2020-06-27T09:44:07.734Z</time>
      </trkpt>
      <trkpt lat="46.99605" lon="6.85738">
        <ele>779.89</ele>
        <time>2020-06-27T09:44:08.609Z</time>
      </trkpt>
      <trkpt lat="46.99604" lon="6.85725">
        <ele>779.44</ele>
        <time>2020-06-27T09:44:09.530Z</time>
      </trkpt>
      <trkpt lat="46.99602" lon="6.857">
        <ele>778.43</ele>
        <time>2020-06-27T09:44:11.180Z</time>
      </trkpt>
      <trkpt lat="46.99597" lon="6.85651">
        <ele>777.23</ele>
        <time>2020-06-27T09:44:15.182Z</time>
      </trkpt>
      <trkpt lat="46.99595" lon="6.85637">
        <ele>776.83</ele>
        <time>2020-06-27T09:44:16.277Z</time>
      </trkpt>
      <trkpt lat="46.99591" lon="6.85623">
        <ele>776.48</ele>
        <time>2020-06-27T09:44:17.524Z</time>
      </trkpt>
      <trkpt lat="46.99586" lon="6.85609">
        <ele>775.98</ele>
        <time>2020-06-27T09:44:18.676Z</time>
      </trkpt>
      <trkpt lat="46.99579" lon="6.85598">
        <ele>775.55</ele>
        <time>2020-06-27T09:44:19.818Z</time>
      </trkpt>
      <trkpt lat="46.99577" lon="6.85594">
        <ele>775.27</ele>
        <time>2020-06-27T09:44:20.152Z</time>
      </trkpt>
      <trkpt lat="46.99577" lon="6.85593">
        <ele>775.27</ele>
        <time>2020-06-27T09:44:20.301Z</time>
      </trkpt>
      <trkpt lat="46.99574" lon="6.85588">
        <ele>774.98</ele>
        <time>2020-06-27T09:44:20.721Z</time>
      </trkpt>
      <trkpt lat="46.99568" lon="6.85577">
        <ele>774.34</ele>
        <time>2020-06-27T09:44:21.590Z</time>
      </trkpt>
      <trkpt lat="46.99563" lon="6.85562">
        <ele>773.64</ele>
        <time>2020-06-27T09:44:22.662Z</time>
      </trkpt>
      <trkpt lat="46.99556" lon="6.85543">
        <ele>772.95</ele>
        <time>2020-06-27T09:44:24.229Z</time>
      </trkpt>
      <trkpt lat="46.99552" lon="6.8554">
        <ele>772.8</ele>
        <time>2020-06-27T09:44:24.773Z</time>
      </trkpt>
      <trkpt lat="46.99546" lon="6.85538">
        <ele>772.59</ele>
        <time>2020-06-27T09:44:25.512Z</time>
      </trkpt>
      <trkpt lat="46.99542" lon="6.85537">
        <ele>772.44</ele>
        <time>2020-06-27T09:44:25.985Z</time>
      </trkpt>
      <trkpt lat="46.99538" lon="6.85538">
        <ele>772.37</ele>
        <time>2020-06-27T09:44:26.572Z</time>
      </trkpt>
      <trkpt lat="46.99531" lon="6.85541">
        <ele>772.16</ele>
        <time>2020-06-27T09:44:27.497Z</time>
      </trkpt>
      <trkpt lat="46.99521" lon="6.85548">
        <ele>772.02</ele>
        <time>2020-06-27T09:44:29.194Z</time>
      </trkpt>
      <trkpt lat="46.99508" lon="6.85557">
        <ele>772.02</ele>
        <time>2020-06-27T09:44:32.326Z</time>
      </trkpt>
      <trkpt lat="46.99495" lon="6.85565">
        <ele>771.95</ele>
        <time>2020-06-27T09:44:35.180Z</time>
      </trkpt>
      <trkpt lat="46.99491" lon="6.85566">
        <ele>772.09</ele>
        <time>2020-06-27T09:44:36.472Z</time>
      </trkpt>
      <trkpt lat="46.99488" lon="6.85566">
        <ele>772.16</ele>
        <time>2020-06-27T09:44:37.303Z</time>
      </trkpt>
      <trkpt lat="46.99481" lon="6.85566">
        <ele>772.31</ele>
        <time>2020-06-27T09:44:39.200Z</time>
      </trkpt>
      <trkpt lat="46.99476" lon="6.85563">
        <ele>772.74</ele>
        <time>2020-06-27T09:44:41.753Z</time>
      </trkpt>
      <trkpt lat="46.99469" lon="6.85557">
        <ele>772.85</ele>
        <time>2020-06-27T09:44:43.770Z</time>
      </trkpt>
      <trkpt lat="46.99448" lon="6.85529">
        <ele>773.49</ele>
        <time>2020-06-27T09:44:51.562Z</time>
      </trkpt>
      <trkpt lat="46.99431" lon="6.85501">
        <ele>773.81</ele>
        <time>2020-06-27T09:44:57.853Z</time>
      </trkpt>
      <trkpt lat="46.99423" lon="6.8549">
        <ele>773.38</ele>
        <time>2020-06-27T09:44:59.105Z</time>
      </trkpt>
      <trkpt lat="46.99399" lon="6.85457">
        <ele>772.74</ele>
        <time>2020-06-27T09:45:03.740Z</time>
      </trkpt>
      <trkpt lat="46.99398" lon="6.85456">
        <ele>772.12</ele>
        <time>2020-06-27T09:45:03.859Z</time>
      </trkpt>
      <trkpt lat="46.99397" lon="6.85455">
        <ele>772.12</ele>
        <time>2020-06-27T09:45:04.123Z</time>
      </trkpt>
      <trkpt lat="46.99378" lon="6.85426">
        <ele>771.5</ele>
        <time>2020-06-27T09:45:07.847Z</time>
      </trkpt>
      <trkpt lat="46.99367" lon="6.85408">
        <ele>771.28</ele>
        <time>2020-06-27T09:45:10.349Z</time>
      </trkpt>
      <trkpt lat="46.99358" lon="6.85396">
        <ele>770.64</ele>
        <time>2020-06-27T09:45:11.581Z</time>
      </trkpt>
      <trkpt lat="46.99353" lon="6.8539">
        <ele>770.14</ele>
        <time>2020-06-27T09:45:12.219Z</time>
      </trkpt>
      <trkpt lat="46.99346" lon="6.85383">
        <ele>769.68</ele>
        <time>2020-06-27T09:45:13.064Z</time>
      </trkpt>
      <trkpt lat="46.99337" lon="6.85372">
        <ele>769.04</ele>
        <time>2020-06-27T09:45:14.231Z</time>
      </trkpt>
      <trkpt lat="46.99328" lon="6.8536">
        <ele>768.51</ele>
        <time>2020-06-27T09:45:15.564Z</time>
      </trkpt>
      <trkpt lat="46.99321" lon="6.85348">
        <ele>767.98</ele>
        <time>2020-06-27T09:45:16.687Z</time>
      </trkpt>
      <trkpt lat="46.99314" lon="6.85332">
        <ele>767.65</ele>
        <time>2020-06-27T09:45:18.392Z</time>
      </trkpt>
      <trkpt lat="46.99304" lon="6.85306">
        <ele>767.44</ele>
        <time>2020-06-27T09:45:21.607Z</time>
      </trkpt>
      <trkpt lat="46.99299" lon="6.85291">
        <ele>767.23</ele>
        <time>2020-06-27T09:45:23.230Z</time>
      </trkpt>
      <trkpt lat="46.99296" lon="6.85283">
        <ele>767.23</ele>
        <time>2020-06-27T09:45:24.586Z</time>
      </trkpt>
      <trkpt lat="46.9929" lon="6.85272">
        <ele>766.94</ele>
        <time>2020-06-27T09:45:25.787Z</time>
      </trkpt>
      <trkpt lat="46.99281" lon="6.85256">
        <ele>766.77</ele>
        <time>2020-06-27T09:45:27.971Z</time>
      </trkpt>
      <trkpt lat="46.99273" lon="6.85239">
        <ele>765.58</ele>
        <time>2020-06-27T09:45:29.362Z</time>
      </trkpt>
      <trkpt lat="46.99267" lon="6.85224">
        <ele>764.46</ele>
        <time>2020-06-27T09:45:30.533Z</time>
      </trkpt>
      <trkpt lat="46.99263" lon="6.85209">
        <ele>763.27</ele>
        <time>2020-06-27T09:45:31.618Z</time>
      </trkpt>
      <trkpt lat="46.99261" lon="6.852">
        <ele>762.51</ele>
        <time>2020-06-27T09:45:32.255Z</time>
      </trkpt>
      <trkpt lat="46.99258" lon="6.85186">
        <ele>761.08</ele>
        <time>2020-06-27T09:45:33.243Z</time>
      </trkpt>
      <trkpt lat="46.99256" lon="6.85173">
        <ele>760</ele>
        <time>2020-06-27T09:45:34.141Z</time>
      </trkpt>
      <trkpt lat="46.99255" lon="6.85166">
        <ele>759.4</ele>
        <time>2020-06-27T09:45:34.622Z</time>
      </trkpt>
      <trkpt lat="46.99255" lon="6.85166">
        <ele>759.4</ele>
        <time>2020-06-27T09:45:34.622Z</time>
      </trkpt>
      <trkpt lat="46.99254" lon="6.85161">
        <ele>758.8</ele>
        <time>2020-06-27T09:45:34.973Z</time>
      </trkpt>
      <trkpt lat="46.99244" lon="6.85116">
        <ele>755.62</ele>
        <time>2020-06-27T09:45:38.160Z</time>
      </trkpt>
      <trkpt lat="46.99236" lon="6.85086">
        <ele>753.94</ele>
        <time>2020-06-27T09:45:40.329Z</time>
      </trkpt>
      <trkpt lat="46.99234" lon="6.8508">
        <ele>753.45</ele>
        <time>2020-06-27T09:45:40.779Z</time>
      </trkpt>
      <trkpt lat="46.9923" lon="6.85065">
        <ele>752.65</ele>
        <time>2020-06-27T09:45:41.864Z</time>
      </trkpt>
      <trkpt lat="46.99225" lon="6.85052">
        <ele>752.08</ele>
        <time>2020-06-27T09:45:42.865Z</time>
      </trkpt>
      <trkpt lat="46.9922" lon="6.85038">
        <ele>751.65</ele>
        <time>2020-06-27T09:45:44.089Z</time>
      </trkpt>
      <trkpt lat="46.99213" lon="6.85023">
        <ele>751.44</ele>
        <time>2020-06-27T09:45:45.888Z</time>
      </trkpt>
      <trkpt lat="46.99208" lon="6.85011">
        <ele>751.3</ele>
        <time>2020-06-27T09:45:47.321Z</time>
      </trkpt>
      <trkpt lat="46.99204" lon="6.84998">
        <ele>751.3</ele>
        <time>2020-06-27T09:45:49.440Z</time>
      </trkpt>
      <trkpt lat="46.99198" lon="6.84979">
        <ele>751.51</ele>
        <time>2020-06-27T09:45:53.035Z</time>
      </trkpt>
      <trkpt lat="46.99187" lon="6.84941">
        <ele>752.15</ele>
        <time>2020-06-27T09:46:00.781Z</time>
      </trkpt>
      <trkpt lat="46.99193" lon="6.84939">
        <ele>752.47</ele>
        <time>2020-06-27T09:46:03.156Z</time>
      </trkpt>
      <trkpt lat="46.9923" lon="6.84929">
        <ele>753.42</ele>
        <time>2020-06-27T09:46:13.817Z</time>
      </trkpt>
      <trkpt lat="46.99241" lon="6.84926">
        <ele>753.8</ele>
        <time>2020-06-27T09:46:17.354Z</time>
      </trkpt>
      <trkpt lat="46.99246" lon="6.84923">
        <ele>753.9</ele>
        <time>2020-06-27T09:46:18.771Z</time>
      </trkpt>
      <trkpt lat="46.99251" lon="6.84921">
        <ele>754.13</ele>
        <time>2020-06-27T09:46:20.674Z</time>
      </trkpt>
      <trkpt lat="46.99254" lon="6.84917">
        <ele>754.32</ele>
        <time>2020-06-27T09:46:22.187Z</time>
      </trkpt>
      <trkpt lat="46.99258" lon="6.84914">
        <ele>754.61</ele>
        <time>2020-06-27T09:46:24.078Z</time>
      </trkpt>
      <trkpt lat="46.99261" lon="6.84909">
        <ele>754.94</ele>
        <time>2020-06-27T09:46:26.110Z</time>
      </trkpt>
      <trkpt lat="46.99263" lon="6.84904">
        <ele>755.18</ele>
        <time>2020-06-27T09:46:27.729Z</time>
      </trkpt>
      <trkpt lat="46.99264" lon="6.84901">
        <ele>755.32</ele>
        <time>2020-06-27T09:46:28.667Z</time>
      </trkpt>
      <trkpt lat="46.99265" lon="6.849">
        <ele>755.46</ele>
        <time>2020-06-27T09:46:29.476Z</time>
      </trkpt>
      <trkpt lat="46.99266" lon="6.84893">
        <ele>755.84</ele>
        <time>2020-06-27T09:46:31.750Z</time>
      </trkpt>
      <trkpt lat="46.99267" lon="6.84886">
        <ele>756.22</ele>
        <time>2020-06-27T09:46:34.023Z</time>
      </trkpt>
      <trkpt lat="46.99268" lon="6.84879">
        <ele>756.41</ele>
        <time>2020-06-27T09:46:35.675Z</time>
      </trkpt>
      <trkpt lat="46.99268" lon="6.84871">
        <ele>756.69</ele>
        <time>2020-06-27T09:46:37.772Z</time>
      </trkpt>
      <trkpt lat="46.99267" lon="6.84864">
        <ele>756.88</ele>
        <time>2020-06-27T09:46:39.424Z</time>
      </trkpt>
      <trkpt lat="46.99266" lon="6.84858">
        <ele>757.12</ele>
        <time>2020-06-27T09:46:41.105Z</time>
      </trkpt>
      <trkpt lat="46.99264" lon="6.84852">
        <ele>757.4</ele>
        <time>2020-06-27T09:46:42.981Z</time>
      </trkpt>
      <trkpt lat="46.99261" lon="6.84844">
        <ele>757.88</ele>
        <time>2020-06-27T09:46:45.864Z</time>
      </trkpt>
      <trkpt lat="46.99256" lon="6.84835">
        <ele>758.35</ele>
        <time>2020-06-27T09:46:49.077Z</time>
      </trkpt>
      <trkpt lat="46.99251" lon="6.84825">
        <ele>759.07</ele>
        <time>2020-06-27T09:46:53.261Z</time>
      </trkpt>
      <trkpt lat="46.99247" lon="6.84815">
        <ele>759.77</ele>
        <time>2020-06-27T09:46:57.290Z</time>
      </trkpt>
      <trkpt lat="46.99244" lon="6.84807">
        <ele>760.31</ele>
        <time>2020-06-27T09:47:00.413Z</time>
      </trkpt>
      <trkpt lat="46.99243" lon="6.84803">
        <ele>760.59</ele>
        <time>2020-06-27T09:47:02.003Z</time>
      </trkpt>
      <trkpt lat="46.99243" lon="6.84802">
        <ele>760.59</ele>
        <time>2020-06-27T09:47:02.151Z</time>
      </trkpt>
      <trkpt lat="46.99242" lon="6.84799">
        <ele>760.86</ele>
        <time>2020-06-27T09:47:03.726Z</time>
      </trkpt>
      <trkpt lat="46.9924" lon="6.8479">
        <ele>761.24</ele>
        <time>2020-06-27T09:47:06.337Z</time>
      </trkpt>
      <trkpt lat="46.99238" lon="6.84781">
        <ele>761.86</ele>
        <time>2020-06-27T09:47:09.857Z</time>
      </trkpt>
      <trkpt lat="46.99236" lon="6.84765">
        <ele>762.96</ele>
        <time>2020-06-27T09:47:16.090Z</time>
      </trkpt>
      <trkpt lat="46.99234" lon="6.84752">
        <ele>763.64</ele>
        <time>2020-06-27T09:47:20.224Z</time>
      </trkpt>
      <trkpt lat="46.99232" lon="6.84732">
        <ele>764.8</ele>
        <time>2020-06-27T09:47:26.988Z</time>
      </trkpt>
      <trkpt lat="46.99229" lon="6.84715">
        <ele>765.63</ele>
        <time>2020-06-27T09:47:32.211Z</time>
      </trkpt>
      <trkpt lat="46.99224" lon="6.84674">
        <ele>767.8</ele>
        <time>2020-06-27T09:47:45.292Z</time>
      </trkpt>
      <trkpt lat="46.99223" lon="6.84663">
        <ele>768.57</ele>
        <time>2020-06-27T09:47:49.653Z</time>
      </trkpt>
      <trkpt lat="46.99223" lon="6.84652">
        <ele>769.21</ele>
        <time>2020-06-27T09:47:53.371Z</time>
      </trkpt>
      <trkpt lat="46.99224" lon="6.84645">
        <ele>769.71</ele>
        <time>2020-06-27T09:47:56.203Z</time>
      </trkpt>
      <trkpt lat="46.99225" lon="6.8464">
        <ele>770.14</ele>
        <time>2020-06-27T09:47:58.734Z</time>
      </trkpt>
      <trkpt lat="46.99221" lon="6.84638">
        <ele>770.11</ele>
        <time>2020-06-27T09:47:59.564Z</time>
      </trkpt>
      <trkpt lat="46.9922" lon="6.84638">
        <ele>770.11</ele>
        <time>2020-06-27T09:47:59.782Z</time>
      </trkpt>
      <trkpt lat="46.99225" lon="6.8464">
        <ele>770.14</ele>
        <time>2020-06-27T09:48:00.974Z</time>
      </trkpt>
      <trkpt lat="46.99226" lon="6.84636">
        <ele>770.4</ele>
        <time>2020-06-27T09:48:02.467Z</time>
      </trkpt>
      <trkpt lat="46.9923" lon="6.84624">
        <ele>771.34</ele>
        <time>2020-06-27T09:48:07.792Z</time>
      </trkpt>
      <trkpt lat="46.99235" lon="6.84615">
        <ele>771.79</ele>
        <time>2020-06-27T09:48:10.949Z</time>
      </trkpt>
      <trkpt lat="46.99239" lon="6.8461">
        <ele>772.28</ele>
        <time>2020-06-27T09:48:13.742Z</time>
      </trkpt>
      <trkpt lat="46.99243" lon="6.84606">
        <ele>772.56</ele>
        <time>2020-06-27T09:48:15.686Z</time>
      </trkpt>
      <trkpt lat="46.99247" lon="6.84601">
        <ele>773.09</ele>
        <time>2020-06-27T09:48:18.688Z</time>
      </trkpt>
      <trkpt lat="46.99254" lon="6.84595">
        <ele>773.94</ele>
        <time>2020-06-27T09:48:23.508Z</time>
      </trkpt>
      <trkpt lat="46.99265" lon="6.84587">
        <ele>775.15</ele>
        <time>2020-06-27T09:48:30.366Z</time>
      </trkpt>
      <trkpt lat="46.99278" lon="6.84578">
        <ele>776.36</ele>
        <time>2020-06-27T09:48:37.421Z</time>
      </trkpt>
      <trkpt lat="46.99285" lon="6.84573">
        <ele>776.75</ele>
        <time>2020-06-27T09:48:40.388Z</time>
      </trkpt>
      <trkpt lat="46.99285" lon="6.84572">
        <ele>777.14</ele>
        <time>2020-06-27T09:48:40.961Z</time>
      </trkpt>
      <trkpt lat="46.99291" lon="6.84568">
        <ele>777.78</ele>
        <time>2020-06-27T09:48:44.592Z</time>
      </trkpt>
      <trkpt lat="46.99297" lon="6.84562">
        <ele>778.35</ele>
        <time>2020-06-27T09:48:47.993Z</time>
      </trkpt>
      <trkpt lat="46.99301" lon="6.84557">
        <ele>778.84</ele>
        <time>2020-06-27T09:48:50.786Z</time>
      </trkpt>
      <trkpt lat="46.99304" lon="6.84553">
        <ele>779.2</ele>
        <time>2020-06-27T09:48:52.856Z</time>
      </trkpt>
      <trkpt lat="46.99307" lon="6.84547">
        <ele>779.48</ele>
        <time>2020-06-27T09:48:54.857Z</time>
      </trkpt>
      <trkpt lat="46.99309" lon="6.84543">
        <ele>779.84</ele>
        <time>2020-06-27T09:48:56.901Z</time>
      </trkpt>
      <trkpt lat="46.9931" lon="6.84539">
        <ele>780.13</ele>
        <time>2020-06-27T09:48:58.544Z</time>
      </trkpt>
      <trkpt lat="46.99311" lon="6.84536">
        <ele>780.27</ele>
        <time>2020-06-27T09:48:59.482Z</time>
      </trkpt>
      <trkpt lat="46.99317" lon="6.84538">
        <ele>780.62</ele>
        <time>2020-06-27T09:49:01.936Z</time>
      </trkpt>
      <trkpt lat="46.99318" lon="6.84535">
        <ele>780.77</ele>
        <time>2020-06-27T09:49:02.904Z</time>
      </trkpt>
      <trkpt lat="46.9932" lon="6.84531">
        <ele>780.98</ele>
        <time>2020-06-27T09:49:04.303Z</time>
      </trkpt>
      <trkpt lat="46.99322" lon="6.84528">
        <ele>781.12</ele>
        <time>2020-06-27T09:49:05.385Z</time>
      </trkpt>
      <trkpt lat="46.99343" lon="6.84509">
        <ele>780.84</ele>
        <time>2020-06-27T09:49:09.229Z</time>
      </trkpt>
      <trkpt lat="46.99352" lon="6.84501">
        <ele>780.95</ele>
        <time>2020-06-27T09:49:11.764Z</time>
      </trkpt>
      <trkpt lat="46.99385" lon="6.8447">
        <ele>781.25</ele>
        <time>2020-06-27T09:49:20.945Z</time>
      </trkpt>
      <trkpt lat="46.99412" lon="6.84443">
        <ele>781.46</ele>
        <time>2020-06-27T09:49:28.509Z</time>
      </trkpt>
      <trkpt lat="46.9941" lon="6.84441">
        <ele>781.69</ele>
        <time>2020-06-27T09:49:29.817Z</time>
      </trkpt>
      <trkpt lat="46.99408" lon="6.8444">
        <ele>781.69</ele>
        <time>2020-06-27T09:49:30.277Z</time>
      </trkpt>
      <trkpt lat="46.994" lon="6.84439">
        <ele>781.9</ele>
        <time>2020-06-27T09:49:32.577Z</time>
      </trkpt>
      <trkpt lat="46.99399" lon="6.84439">
        <ele>782.11</ele>
        <time>2020-06-27T09:49:33.417Z</time>
      </trkpt>
    </trkseg>
  </trk>
</gpx>